[[{"header":{"parameterUnit":"m.s-1","parameterCategory":1,"la1":30.6,"la2":28.766,"lo1":-90.7593,"lo2":-88.6598,"dy":0.0162,"dx":0.0183,"nx":116,"ny":114,"refTime":"2023-09-17T18:00:00:Z","depth":0,"parameterNumber":2,"parameterNumberName":"U-component_of_WINDS"},"data":[0.0,0.0,0.0,0.0,0.0,0.0,0.0,0.0,0.0,0.0,0.0,0.0,0.0,0.0,0.0,0.0,0.0,0.0,0.0,0.0,0.0,0.0,0.0,0.0,0.0,0.0,0.0,0.0,0.0,0.0,0.0,0.0,0.0,0.0,0.0,0.0,0.0,0.0,0.0,0.0,0.0,0.0,0.0,0.0,0.0,0.0,0.0,0.0,0.0,0.0,0.0,0.0,0.0,0.0,0.0,0.0,0.0,0.0,0.0,0.0,0.0,0.0,0.0,0.0,0.0,0.0,0.0,0.0,0.0,0.0,0.0,0.0,0.0,0.0,0.0,0.0,0.0,0.0,0.0,0.0,0.0,0.0,0.0,0.0,0.0,0.0,0.0,0.0,0.0,0.0,0.0,0.0,0.0,0.0,0.0,0.0,0.0,0.0,0.0,0.0,0.0,0.0,0.0,0.0,0.0,0.0,0.0,0.0,0.0,0.0,0.0,0.0,0.0,0.0,0.0,0.0,0.0,0.0,0.0,0.0,0.0,0.0,0.0,0.0,0.0,0.0,0.0,0.0,0.0,0.0,0.0,0.0,0.0,0.0,0.0,0.0,0.0,0.0,0.0,0.0,0.0,0.0,0.0,0.0,0.0,0.0,0.0,0.0,0.0,0.0,0.0,0.0,0.0,0.0,0.0,0.0,0.0,0.0,0.0,0.0,0.0,0.0,0.0,0.0,0.0,0.0,0.0,0.0,0.0,0.0,0.0,0.0,0.0,0.0,0.0,0.0,0.0,0.0,0.0,0.0,0.0,0.0,0.0,0.0,0.0,0.0,0.0,0.0,0.0,0.0,0.0,0.0,0.0,0.0,0.0,0.0,0.0,0.0,0.0,0.0,0.0,0.0,0.0,0.0,0.0,0.0,0.0,0.0,0.0,0.0,0.0,0.0,0.0,0.0,0.0,0.0,0.0,0.0,0.0,0.0,0.0,0.0,0.0,0.0,0.0,0.0,0.0,0.0,0.0,0.0,0.0,0.0,0.0,0.0,0.0,0.0,0.0,0.0,0.0,0.0,0.0,0.0,0.0,0.0,0.0,0.0,0.0,0.0,0.0,0.0,0.0,0.0,0.0,0.0,0.0,0.0,0.0,0.0,0.0,0.0,0.0,0.0,0.0,0.0,0.0,0.0,0.0,0.0,0.0,0.0,0.0,0.0,0.0,0.0,0.0,0.0,0.0,0.0,0.0,0.0,0.0,0.0,0.0,0.0,0.0,0.0,0.0,0.0,0.0,0.0,0.0,0.0,0.0,0.0,0.0,0.0,0.0,0.0,0.0,0.0,0.0,0.0,0.0,0.0,0.0,0.0,0.0,0.0,0.0,0.0,0.0,0.0,0.0,0.0,0.0,0.0,0.0,0.0,0.0,0.0,0.0,0.0,0.0,0.0,0.0,0.0,0.0,0.0,0.0,0.0,0.0,0.0,0.0,0.0,0.0,0.0,0.0,0.0,0.0,0.0,0.0,0.0,0.0,0.0,0.0,0.0,0.0,0.0,0.0,0.0,0.0,0.0,0.0,0.0,0.0,0.0,0.0,0.0,0.0,0.0,0.0,0.0,0.0,0.0,0.0,0.0,0.0,0.0,0.0,0.0,0.0,0.0,0.0,0.0,0.0,0.0,0.0,0.0,0.0,0.0,0.0,0.0,0.0,0.0,0.0,0.0,0.0,0.0,0.0,0.0,0.0,0.0,0.0,0.0,0.0,0.0,0.0,0.0,0.0,0.0,0.0,0.0,0.0,0.0,0.0,0.0,0.0,0.0,0.0,0.0,0.0,0.0,0.0,0.0,0.0,0.0,0.0,0.0,0.0,0.0,0.0,0.0,0.0,0.0,0.0,0.0,0.0,0.0,0.0,0.0,0.0,0.0,0.0,0.0,0.0,0.0,0.0,0.0,0.0,0.0,0.0,0.0,0.0,0.0,0.0,0.0,0.0,0.0,0.0,0.0,0.0,0.0,0.0,0.0,0.0,0.0,0.0,0.0,0.0,0.0,0.0,0.0,0.0,0.0,0.0,0.0,0.0,0.0,0.0,0.0,0.0,0.0,0.0,0.0,0.0,0.0,0.0,0.0,0.0,0.0,0.0,0.0,0.0,0.0,0.0,0.0,0.0,0.0,0.0,0.0,0.0,0.0,0.0,0.0,0.0,0.0,0.0,0.0,0.0,0.0,0.0,0.0,0.0,0.0,0.0,0.0,0.0,0.0,0.0,0.0,0.0,0.0,0.0,0.0,0.0,0.0,0.0,0.0,0.0,0.0,0.0,0.0,0.0,0.0,0.0,0.0,0.0,0.0,0.0,0.0,0.0,0.0,0.0,0.0,0.0,0.0,0.0,0.0,0.0,0.0,0.0,0.0,0.0,0.0,0.0,0.0,0.0,0.0,0.0,0.0,0.0,0.0,0.0,0.0,0.0,0.0,0.0,0.0,0.0,0.0,0.0,0.0,0.0,0.0,0.0,0.0,0.0,0.0,0.0,0.0,0.0,0.0,0.0,0.0,0.0,0.0,0.0,0.0,0.0,0.0,0.0,0.0,0.0,0.0,0.0,0.0,0.0,0.0,0.0,0.0,0.0,0.0,0.0,0.0,0.0,0.0,0.0,0.0,0.0,0.0,0.0,0.0,0.0,0.0,0.0,0.0,0.0,0.0,0.0,0.0,0.0,0.0,0.0,0.0,0.0,0.0,0.0,0.0,0.0,0.0,0.0,0.0,0.0,0.0,0.0,0.0,0.0,0.0,0.0,0.0,0.0,0.0,0.0,0.0,0.0,0.0,0.0,0.0,0.0,0.0,0.0,0.0,0.0,0.0,0.0,0.0,0.0,0.0,0.0,0.0,0.0,0.0,0.0,0.0,0.0,0.0,0.0,0.0,0.0,0.0,0.0,0.0,0.0,0.0,0.0,0.0,0.0,0.0,0.0,0.0,0.0,0.0,0.0,0.0,0.0,0.0,0.0,0.0,0.0,0.0,0.0,0.0,0.0,0.0,0.0,0.0,0.0,0.0,0.0,0.0,0.0,0.0,0.0,0.0,0.0,0.0,0.0,0.0,0.0,0.0,0.0,0.0,0.0,0.0,0.0,0.0,0.0,0.0,0.0,0.0,0.0,0.0,0.0,0.0,0.0,0.0,0.0,0.0,0.0,0.0,0.0,0.0,0.0,0.0,0.0,0.0,0.0,0.0,0.0,0.0,0.0,0.0,0.0,0.0,0.0,0.0,0.0,0.0,0.0,0.0,0.0,0.0,0.0,0.0,0.0,0.0,0.0,0.0,0.0,0.0,0.0,0.0,0.0,0.0,0.0,0.0,0.0,0.0,0.0,0.0,0.0,0.0,0.0,0.0,0.0,0.0,0.0,0.0,0.0,0.0,0.0,0.0,0.0,0.0,0.0,0.0,0.0,0.0,0.0,0.0,0.0,0.0,0.0,0.0,0.0,0.0,0.0,0.0,0.0,0.0,0.0,0.0,0.0,0.0,0.0,0.0,0.0,0.0,0.0,0.0,0.0,0.0,0.0,0.0,0.0,0.0,0.0,0.0,0.0,0.0,0.0,0.0,0.0,0.0,0.0,0.0,0.0,0.0,0.0,0.0,0.0,0.0,0.0,0.0,0.0,0.0,0.0,0.0,0.0,0.0,0.0,0.0,0.0,0.0,0.0,0.0,0.0,0.0,0.0,0.0,0.0,0.0,0.0,0.0,0.0,0.0,0.0,0.0,0.0,0.0,0.0,0.0,0.0,0.0,0.0,0.0,0.0,0.0,0.0,0.0,0.0,0.0,0.0,0.0,0.0,0.0,0.0,0.0,0.0,0.0,0.0,0.0,0.0,0.0,0.0,0.0,0.0,0.0,0.0,0.0,0.0,0.0,0.0,0.0,0.0,0.0,0.0,0.0,0.0,0.0,0.0,0.0,0.0,0.0,0.0,0.0,0.0,0.0,0.0,0.0,0.0,0.0,0.0,0.0,0.0,0.0,0.0,0.0,0.0,0.0,0.0,0.0,0.0,0.0,0.0,0.0,0.0,0.0,0.0,0.0,0.0,0.0,0.0,0.0,0.0,0.0,0.0,0.0,0.0,0.0,0.0,0.0,0.0,0.0,0.0,0.0,0.0,0.0,0.0,0.0,0.0,0.0,0.0,0.0,0.0,0.0,0.0,0.0,0.0,0.0,0.0,0.0,0.0,0.0,0.0,0.0,0.0,0.0,0.0,0.0,0.0,0.0,0.0,0.0,0.0,0.0,0.0,0.0,0.0,0.0,0.0,0.0,0.0,0.0,0.0,0.0,0.0,0.0,0.0,0.0,0.0,0.0,0.0,0.0,0.0,0.0,0.0,0.0,0.0,0.0,0.0,0.0,0.0,0.0,0.0,0.0,0.0,0.0,0.0,0.0,0.0,0.0,0.0,0.0,0.0,0.0,0.0,0.0,0.0,0.0,0.0,0.0,0.0,0.0,0.0,0.0,0.0,0.0,0.0,0.0,0.0,0.0,0.0,0.0,0.0,0.0,0.0,0.0,0.0,0.0,0.0,0.0,0.0,0.0,0.0,0.0,0.0,0.0,0.0,0.0,0.0,0.0,0.0,0.0,0.0,0.0,0.0,0.0,0.0,0.0,0.0,0.0,0.0,0.0,0.0,0.0,0.0,0.0,0.0,0.0,0.0,0.0,0.0,0.0,0.0,0.0,0.0,0.0,0.0,0.0,0.0,0.0,0.0,0.0,0.0,0.0,0.0,0.0,0.0,0.0,0.0,0.0,0.0,0.0,0.0,0.0,0.0,0.0,0.0,0.0,0.0,0.0,0.0,0.0,0.0,0.0,0.0,0.0,0.0,0.0,0.0,0.0,0.0,0.0,0.0,0.0,0.0,0.0,0.0,0.0,0.0,0.0,0.0,0.0,0.0,0.0,0.0,0.0,0.0,0.0,0.0,0.0,0.0,0.0,0.0,0.0,0.0,0.0,0.0,0.0,0.0,0.0,0.0,0.0,0.0,0.0,0.0,0.0,0.0,0.0,0.0,0.0,0.0,0.0,0.0,0.0,0.0,0.0,0.0,0.0,0.0,0.0,0.0,0.0,0.0,0.0,0.0,0.0,0.0,0.0,0.0,0.0,0.0,0.0,0.0,0.0,0.0,0.0,0.0,0.0,0.0,0.0,0.0,0.0,0.0,0.0,0.0,0.0,0.0,0.0,0.0,0.0,0.0,0.0,0.0,0.0,0.0,0.0,0.0,0.0,0.0,0.0,0.0,0.0,0.0,0.0,0.0,0.0,0.0,0.0,0.0,0.0,0.0,0.0,0.0,0.0,0.0,0.0,0.0,0.0,0.0,0.0,0.0,0.0,0.0,0.0,0.0,0.0,0.0,0.0,0.0,0.0,0.0,0.0,0.0,0.0,0.0,0.0,0.0,0.0,0.0,0.0,0.0,0.0,0.0,0.0,0.0,0.0,0.0,0.0,0.0,0.0,0.0,0.0,0.0,0.0,0.0,0.0,0.0,0.0,0.0,0.0,0.0,0.0,0.0,0.0,0.0,0.0,0.0,0.0,0.0,0.0,0.0,0.0,0.0,0.0,0.0,0.0,0.0,0.0,0.0,0.0,0.0,0.0,0.0,0.0,0.0,0.0,0.0,0.0,0.0,0.0,0.0,0.0,0.0,0.0,0.0,0.0,0.0,0.0,0.0,0.0,0.0,0.0,0.0,0.0,0.0,0.0,0.0,0.0,0.0,0.0,0.0,0.0,0.0,0.0,0.0,0.0,0.0,0.0,0.0,0.0,0.0,0.0,0.0,0.0,0.0,0.0,0.0,0.0,0.0,0.0,0.0,0.0,0.0,0.0,0.0,0.0,0.0,0.0,0.0,0.0,0.0,0.0,0.0,0.0,0.0,0.0,0.0,0.0,0.0,0.0,0.0,0.0,0.0,0.0,0.0,0.0,0.0,0.0,0.0,0.0,0.0,0.0,0.0,0.0,0.0,0.0,0.0,0.0,0.0,0.0,0.0,0.0,0.0,0.0,0.0,0.0,0.0,0.0,0.0,0.0,0.0,0.0,0.0,0.0,0.0,0.0,0.0,0.0,2.4381,2.31,0.0,0.0,0.0,0.0,0.0,0.0,0.0,0.0,0.0,0.0,0.0,0.0,0.0,0.0,0.0,0.0,0.0,0.0,0.0,0.0,0.0,0.0,0.0,0.0,0.0,0.0,0.0,0.0,0.0,0.0,0.0,0.0,0.0,0.0,0.0,0.0,0.0,1.0919,1.1554,1.2297,1.313,1.2893,1.2582,1.2235,0.0,0.0,0.0,0.0,0.0,0.0,0.0,0.0,0.0,0.0,0.0,0.0,0.0,0.0,0.0,0.0,0.0,0.0,0.0,0.0,0.0,0.0,0.0,0.0,0.0,0.0,0.0,0.0,0.0,0.0,0.0,0.0,0.0,0.0,0.0,0.0,0.0,0.0,0.0,0.0,0.0,0.0,0.0,0.0,0.0,0.0,0.0,0.0,0.0,0.0,0.0,0.0,0.0,0.0,0.0,0.0,0.0,0.0,0.0,0.0,0.0,0.0,0.0,0.0,0.0,0.0,0.0,0.0,0.0,0.0,2.5737,2.4757,0.0,0.0,0.0,0.0,0.0,0.0,0.0,0.0,0.0,0.0,0.0,0.0,0.0,0.0,0.0,0.0,0.0,0.0,0.0,0.0,0.0,0.0,0.0,0.9866,1.0004,1.1038,1.0402,1.0137,0.0,0.0,0.0,0.0,0.0,0.0,0.0,1.1095,1.1178,1.1702,1.2795,1.3919,1.5038,1.5038,1.4261,1.2859,1.2365,0.0,0.0,0.0,0.0,0.0,0.0,0.0,0.0,0.0,0.0,0.0,0.0,0.0,0.0,0.0,0.0,0.0,0.0,0.0,0.0,0.0,0.0,0.0,0.0,0.0,0.0,0.0,0.0,0.0,0.0,0.0,0.0,0.0,0.0,0.0,0.0,0.0,0.0,0.0,0.0,0.0,0.0,0.0,0.0,0.0,0.0,0.0,0.0,0.0,0.0,0.0,0.0,0.0,0.0,0.0,0.0,0.0,0.0,0.0,0.0,0.0,0.0,0.0,2.7112,2.7928,2.8095,2.8095,2.8219,2.8323,2.6929,2.6507,2.6637,2.4741,0.0,0.0,0.0,0.0,0.0,0.0,0.0,0.0,0.0,0.0,0.0,0.0,0.0,0.0,0.0,0.0,0.0,0.0,0.0,0.0,0.0,0.9961,1.0083,1.1484,1.1179,1.1109,1.1576,0.0,0.0,0.0,0.0,0.0,1.0498,1.0807,1.1358,1.2116,1.4098,1.5361,1.5928,1.5928,1.5801,1.5557,1.4745,1.4369,1.4301,0.0,0.0,0.0,0.0,0.0,0.0,0.0,0.0,0.0,0.0,0.0,0.0,0.0,0.0,0.0,0.0,0.0,0.0,0.0,0.0,0.0,0.0,0.0,0.0,0.0,0.0,0.0,0.0,0.0,0.0,0.0,0.0,0.0,0.0,0.0,0.0,0.0,0.0,0.0,0.0,0.0,2.006,2.006,0.0,0.0,0.0,0.0,0.0,0.0,0.0,0.0,0.0,0.0,0.0,0.0,0.0,2.414,2.4479,2.522,2.5599,2.561,2.6358,2.7195,2.8091,2.8091,2.8638,2.9553,2.934,0.0,2.7871,2.757,0.0,0.0,0.0,0.0,0.0,0.0,0.0,0.0,0.0,0.0,0.0,0.0,0.0,0.0,0.0,0.0,0.0,0.0,0.0,0.0,0.0,1.1735,1.2473,1.3422,1.3643,1.344,1.2743,1.2896,0.0,0.0,0.0,1.1778,1.1816,1.2204,1.3167,1.4728,1.5664,1.6479,1.7174,1.7174,1.7174,1.7155,1.6768,1.6055,1.5098,1.4541,0.0,0.0,0.0,0.0,0.0,0.0,0.0,0.0,0.0,0.0,0.0,0.0,0.0,0.0,0.0,0.0,0.0,0.0,0.0,0.0,0.0,0.0,0.0,0.0,0.0,0.0,0.0,0.0,0.0,0.0,0.0,0.0,0.0,0.0,0.0,0.0,0.0,0.0,0.0,1.9769,1.987,1.987,2.0508,2.0955,0.0,0.0,0.0,0.0,0.0,0.0,0.0,0.0,0.0,2.4006,2.3998,2.3961,2.3846,2.4711,2.5139,2.517,2.6083,2.6739,2.7197,2.7197,2.7615,2.8283,2.8283,2.8004,2.7569,2.794,2.7821,2.7311,0.0,0.0,0.0,0.0,2.6122,2.6218,0.0,0.0,0.0,0.0,0.0,0.0,0.0,0.0,0.0,0.0,0.0,0.0,1.1952,1.3401,1.4555,1.508,1.5546,1.5128,1.3515,1.3624,1.3142,1.1763,1.1796,1.21,1.2631,1.3424,1.4713,1.6547,1.6863,1.7366,1.7991,1.7991,1.7991,1.7991,1.7991,1.7269,1.6049,1.5825,1.5191,1.4303,0.0,0.0,0.0,0.0,0.0,0.0,0.0,0.0,0.0,0.0,0.0,0.0,0.0,0.0,0.0,0.0,0.0,0.0,0.0,0.0,0.0,0.0,0.0,0.0,0.0,0.0,0.0,0.0,0.0,0.0,0.0,0.0,0.0,0.0,0.0,0.0,0.0,1.9811,1.9863,1.9555,2.063,2.1179,0.0,0.0,0.0,0.0,0.0,0.0,2.3614,2.3861,2.3934,2.3782,2.3894,2.3735,2.3279,2.4225,2.47,2.4722,2.5552,2.6116,2.6391,2.6391,2.6705,2.724,2.724,2.724,2.73,2.8005,2.8138,2.7841,2.7317,2.7022,2.6939,2.7047,2.7198,2.7492,0.0,0.0,0.0,0.0,0.0,0.0,0.0,0.0,0.0,0.0,0.0,1.2513,1.306,1.4218,1.5169,1.5712,1.5774,1.5128,1.3515,1.4228,1.3814,1.1784,1.2079,1.2074,1.1679,1.3691,1.519,1.6124,1.7334,1.7952,1.7991,1.7991,1.7991,1.7991,1.7991,1.7942,1.7822,1.6996,1.6599,1.6395,1.4767,0.0,0.0,0.0,0.0,0.0,0.0,0.0,0.0,0.0,0.0,0.0,0.0,0.0,0.0,0.0,0.0,0.0,0.0,0.0,0.0,0.0,0.0,0.0,0.0,0.0,0.0,0.0,0.0,0.0,0.0,0.0,0.0,0.0,0.0,0.0,0.0,0.0,0.0,1.9446,2.1158,0.0,0.0,0.0,0.0,2.254,2.3411,2.3559,2.2615,2.3483,2.374,2.3151,2.3572,2.3798,2.3782,2.4196,2.4415,2.4415,2.4484,2.5068,2.6108,2.6108,2.6699,2.7676,2.7676,2.7676,2.7719,2.847,2.8199,2.743,2.8405,2.8467,2.8084,2.8593,2.9132,2.9704,0.0,0.0,0.0,0.0,0.0,0.0,0.0,0.0,0.8712,0.9057,1.1023,1.2593,1.3135,1.5515,1.7137,1.7335,1.7979,1.7509,1.5461,1.536,1.4506,1.2564,1.2323,1.2805,1.4027,1.5337,1.6455,1.7314,1.7783,1.8127,1.8401,1.8401,1.8547,1.8838,1.8838,1.8838,1.8779,1.792,1.7204,1.6648,1.6024,1.5108,0.0,0.0,0.0,0.0,0.0,0.0,0.0,0.0,0.0,0.0,0.0,0.0,0.0,0.0,0.0,0.0,0.0,0.0,0.0,0.0,0.0,0.0,0.0,0.0,0.0,0.0,0.0,0.0,0.0,0.0,0.0,0.0,0.0,0.0,0.0,0.0,0.0,2.0452,2.1408,0.0,2.1251,2.1877,2.2382,2.2499,2.306,2.341,2.3345,2.3672,2.3892,2.3945,2.4088,2.4199,2.4199,2.4323,2.4391,2.4401,2.4697,2.5058,2.5465,2.5732,2.6225,2.686,2.686,2.686,2.6945,2.7886,2.8485,2.8903,3.0044,3.0394,3.0244,3.0444,3.0645,3.0846,0.0,0.0,0.0,0.0,0.0,0.0,0.0,0.0,0.8625,0.9522,1.1738,1.3588,1.4529,1.7075,1.8744,1.8744,1.9169,1.844,1.6115,1.5564,1.4464,1.2543,1.2703,1.3782,1.5796,1.6404,1.7184,1.8205,1.8205,1.842,1.884,1.884,1.8996,1.9305,1.9305,1.9305,1.9248,1.8682,1.8115,1.7552,1.7259,1.6459,1.5332,0.0,0.0,0.0,0.0,0.0,0.0,0.0,0.0,0.0,0.0,0.0,0.0,0.0,0.0,0.0,0.0,0.0,0.0,0.0,0.0,0.0,0.0,0.0,0.0,0.0,0.0,0.0,0.0,0.0,0.0,0.0,0.0,0.0,0.0,2.0781,2.1391,2.0926,2.1719,2.208,2.1493,2.2109,2.2646,2.293,2.3308,2.3679,2.3984,2.4004,2.4199,2.4619,2.4762,2.4908,2.5078,2.5225,2.5269,2.5269,2.5586,2.5747,2.5757,2.601,2.6303,2.6602,2.6602,2.6602,2.6692,2.7815,2.8698,2.9418,3.0264,3.0594,3.0594,3.0594,3.0882,3.1374,0.0,0.0,0.0,0.0,0.0,0.0,0.0,0.7535,0.8839,1.0481,1.3119,1.551,1.7211,1.8844,1.9798,1.9798,1.9136,1.7694,1.5291,1.48,1.372,1.1757,1.3278,1.4981,1.6668,1.6746,1.736,1.8598,1.8617,1.8859,1.9325,1.9325,1.9335,1.9344,1.9344,1.9344,1.9344,1.9344,1.9344,1.9248,1.8389,1.802,1.7766,0.0,0.0,0.0,0.0,0.0,0.0,0.0,0.0,0.0,0.0,0.0,0.0,0.0,0.0,0.0,0.0,0.0,0.0,0.0,0.0,0.0,0.0,0.0,0.0,0.0,0.0,0.0,0.0,0.0,0.0,0.0,0.0,0.0,2.0059,2.1316,2.1925,2.083,2.2139,2.282,2.2041,2.3086,2.3831,2.3831,2.4199,2.442,2.443,2.4449,2.4678,2.5141,2.5547,2.5952,2.6406,2.6816,2.6986,2.6986,2.6996,2.7006,2.7015,2.7025,2.7025,2.7025,2.7025,2.7025,2.7127,2.8297,2.8776,2.8806,2.8992,2.905,2.905,2.905,2.9875,3.1273,0.0,0.0,0.0,0.0,0.0,0.0,0.6599,0.6866,0.7944,1.0381,1.243,1.4616,1.7134,1.8844,1.9798,1.9798,1.9136,1.7949,1.617,1.5146,1.4109,1.3025,1.4917,1.621,1.6687,1.7603,1.8247,1.8598,1.8937,1.9326,1.9746,1.9746,1.9931,2.0234,2.0234,2.0234,2.0234,2.0234,2.0234,2.0165,1.9296,1.8564,1.7949,0.0,0.0,0.0,0.0,0.0,0.0,0.0,0.0,0.0,0.0,0.0,0.0,0.0,0.0,0.0,0.0,0.0,0.0,0.0,0.0,0.0,0.0,0.0,0.0,0.0,0.0,0.0,0.0,0.0,0.0,0.0,2.041,2.1132,2.0888,2.201,2.289,2.2924,2.332,2.3643,2.3711,2.4043,2.4248,2.4248,2.4639,2.5029,2.5337,2.5674,2.6035,2.6465,2.6576,2.6693,2.6846,2.6928,2.6986,2.6996,2.7334,2.7516,2.7526,2.7803,2.7939,2.7939,2.7939,2.7939,2.7966,2.8288,2.8436,2.8555,2.9761,3.0246,3.0246,3.0246,3.0484,3.1144,0.0,0.0,0.0,0.0,0.0,0.0,0.6599,0.6795,0.8096,1.132,1.2822,1.4811,1.8041,1.9233,1.9798,1.9798,1.8542,1.7203,1.5942,1.4628,1.4099,1.4568,1.5952,1.6872,1.7249,1.813,1.8713,1.8888,1.9346,1.9766,2.0185,2.0185,2.042,2.084,2.084,2.0967,2.1123,2.0918,2.084,2.0781,2.0117,1.954,1.9041,1.8477,1.7952,1.7399,1.6631,1.6236,1.6088,1.5928,0.0,0.0,0.0,0.0,0.0,0.0,0.0,0.0,0.0,0.0,0.0,0.0,0.0,0.0,0.0,0.0,0.0,0.0,0.0,0.0,0.0,0.0,0.0,0.0,2.1621,2.2284,2.2284,2.2927,2.3484,2.376,2.3945,2.415,2.4371,2.4723,2.4947,2.4947,2.5537,2.5996,2.6235,2.6489,2.6846,2.7275,2.7285,2.7373,2.7549,2.7549,2.7637,2.7786,2.8066,2.8318,2.8503,2.8748,2.8855,2.8855,2.8855,2.8855,2.8855,2.8855,2.8855,2.8893,0.0,0.0,0.0,0.0,3.0209,3.0493,0.0,0.0,0.0,0.0,0.0,0.0,0.6599,0.7003,0.8723,1.2685,1.3668,1.5485,1.9371,1.9798,1.9773,1.967,1.7627,1.5901,1.4926,1.3848,1.4109,1.6032,1.6582,1.7223,1.804,1.8479,1.8908,1.9374,1.9775,2.0185,2.0605,2.0654,2.0859,2.119,2.1269,2.1503,2.1865,2.1454,2.1239,2.1161,2.082,2.0644,2.0459,1.9269,1.884,1.8676,1.7552,1.6914,1.6652,1.6992,0.0,0.0,0.0,0.0,0.0,0.0,0.0,0.0,0.0,0.0,0.0,0.0,0.0,0.0,0.0,0.0,0.0,0.0,0.0,0.0,0.0,0.0,0.0,0.0,2.301,2.3831,2.3857,2.3945,2.3994,2.3935,2.4307,2.4557,2.4615,2.5367,2.5854,2.5854,2.6606,2.709,2.709,2.7129,0.0,0.0,0.0,2.8015,2.8359,2.8418,2.8623,2.8994,2.8994,2.9199,2.9598,2.9598,2.9598,2.9598,2.9598,2.9598,2.9598,2.9598,2.9598,2.952,2.8758,2.8437,2.854,2.9414,2.9636,2.9713,0.0,0.0,0.0,0.0,0.0,0.0,0.6599,0.6687,0.8314,1.2634,1.3294,1.5008,1.9334,1.9798,1.9553,1.8953,1.7036,1.5122,1.3447,1.4674,1.5679,1.6075,1.7158,1.7981,1.8471,1.8918,1.9365,1.9776,2.0244,2.0498,2.0615,2.0937,2.1132,2.121,2.1602,2.1807,2.1896,2.1797,2.1553,2.119,2.1123,2.0889,2.0576,2.0302,2.0214,2.0185,1.9931,1.9803,1.966,1.9215,1.9141,1.9146,1.882,1.8858,0.0,0.0,0.0,0.0,0.0,0.0,0.0,0.0,0.0,0.0,0.0,0.0,0.0,0.0,0.0,0.0,0.0,0.0,0.0,2.2295,2.3174,2.3906,2.4248,2.4889,2.5201,2.4887,2.5205,2.5601,2.5977,2.6465,2.6742,2.6742,2.7246,2.7565,2.7565,2.7861,2.8086,2.8164,2.8496,2.8711,2.8772,2.915,2.9393,2.9471,2.9471,0.0,2.9598,2.9598,2.9598,2.9598,2.9598,2.9598,2.9598,2.9598,2.9598,2.9579,2.9412,2.9354,2.95,3.0753,3.0506,2.9938,0.0,0.0,0.0,0.0,0.0,0.0,0.6599,0.6599,0.7794,1.1114,1.1548,1.2923,1.6556,1.6945,1.6902,1.6811,1.5753,1.456,1.3271,1.5028,1.6388,1.7028,1.7656,1.8196,1.8588,1.9062,1.9492,1.9893,2.0371,2.0605,2.0605,2.0811,2.1133,2.1552,2.1787,2.2119,2.2459,2.206,2.1758,2.1503,2.1084,2.0781,2.0605,2.0605,2.0605,2.0605,2.0605,2.0605,2.0575,2.0456,2.0744,2.122,2.1669,2.1705,2.1308,0.0,0.0,0.0,0.0,0.0,0.0,0.0,0.0,0.0,0.0,0.0,0.0,0.0,0.0,2.0117,2.0781,0.0,2.2471,2.3308,2.4004,2.458,2.4986,2.562,2.5898,2.5449,2.5952,2.644,2.668,2.709,2.7344,2.7344,2.7761,2.8093,2.8281,2.8496,2.8711,2.8953,2.9141,2.9248,2.9248,2.9491,2.9706,2.9911,2.9911,3.0028,3.0263,3.0263,3.0263,3.0263,3.0263,3.0263,3.0263,3.0263,3.0263,3.0263,3.0263,2.9989,2.9672,3.0336,3.018,2.9784,0.0,0.0,0.0,0.0,0.0,0.0,0.0,0.6646,0.7407,0.966,0.9931,1.0974,1.3792,1.4103,1.4145,1.4287,1.4525,1.4318,1.3533,1.536,1.693,1.7969,1.7991,1.8225,1.8732,1.9111,1.9531,2.0039,2.041,2.0605,2.0605,2.0674,2.1094,2.1768,2.1846,2.2266,2.283,2.2168,2.1857,2.1699,2.0996,2.0664,2.0615,2.0684,2.0713,2.0713,2.0713,2.0772,2.0899,2.122,2.187,2.2763,2.4002,2.4072,2.3391,2.17,2.1784,0.0,0.0,0.0,0.0,0.0,0.0,0.0,0.0,1.8745,1.8496,1.9775,2.0371,2.0996,2.2081,2.2598,2.322,2.4365,2.4912,2.5352,2.5776,2.6309,2.6504,2.6128,2.6719,2.7139,2.7139,2.7555,2.7809,2.7809,2.8174,2.8564,2.8869,2.9004,2.9209,2.9588,2.9676,2.9715,2.9715,2.9813,3.0028,3.0332,3.0332,3.0527,3.0889,3.0889,3.0889,3.0889,3.0889,3.0889,3.0889,3.0889,3.0889,3.0889,3.0889,3.0488,2.9852,2.9852,2.9852,2.9852,0.0,0.0,0.0,0.0,0.0,0.0,0.0,0.0,0.7465,0.9851,1.0008,1.0974,1.3792,1.4103,1.3574,1.2261,1.4026,1.4695,1.3488,1.6157,1.7852,1.7991,1.7991,1.8389,1.9199,1.9268,1.9696,2.0517,2.0576,2.0605,2.0615,2.0977,2.1171,2.1308,2.1709,2.1954,2.2021,2.1944,2.166,2.1279,2.1161,2.0918,2.0644,2.1006,2.1122,2.1122,2.1122,2.1386,2.1769,2.1817,2.1889,2.2012,2.2185,2.2436,2.2119,1.9279,1.9175,1.9285,1.5987,1.6534,1.8238,1.9034,1.9221,1.9798,0.0,2.1652,2.1152,2.2399,2.3035,2.3398,2.3567,2.3916,2.4375,2.4936,2.5371,2.5796,2.625,2.7037,2.7536,2.7477,2.7565,2.7624,2.7624,2.7995,2.8223,2.8223,2.8613,2.884,2.8889,2.9287,2.9549,2.9598,2.996,3.0127,3.0127,3.0537,3.0762,3.081,3.081,3.084,3.0889,3.0889,3.0889,3.0889,3.0889,3.0889,3.0889,3.0889,3.0889,3.0889,3.0889,3.083,3.0742,3.0742,3.0742,3.0742,0.0,0.0,0.0,0.0,0.0,0.0,0.0,0.0,0.0,0.7986,0.8031,0.8688,1.0522,1.1283,1.131,1.048,1.2945,1.4213,1.345,1.6296,1.7991,1.7991,1.7991,1.8408,1.9286,1.9305,1.9726,2.0605,2.0605,2.0605,2.0605,2.0772,2.0986,2.12,2.1405,2.165,2.1886,2.1611,2.1376,2.1171,2.0947,2.0889,2.0977,2.1142,2.1502,2.1825,2.081,2.0566,0.0,2.1055,2.1133,2.143,2.3081,2.3196,2.2398,2.0601,2.0843,2.1442,2.0289,1.9302,1.8877,2.0106,2.0401,2.0684,2.1746,2.1796,2.1973,2.323,2.3857,2.4228,2.4505,2.4701,2.5043,2.5747,2.5996,2.6357,2.7066,2.7467,2.778,2.8024,2.8054,2.8054,2.8054,2.8408,2.8662,2.8662,2.9053,2.9404,2.9648,2.9834,3.0059,3.0361,3.0508,3.0605,3.0605,3.0791,3.0889,3.0889,3.0889,3.0889,3.0889,3.0889,3.0889,3.0889,3.0889,3.0889,3.0889,3.0889,3.0889,3.0889,3.0889,3.0889,3.0889,3.0889,3.0889,3.0889,0.0,0.0,0.0,0.0,0.0,0.0,0.0,0.0,0.0,0.0,0.6638,0.7029,0.818,0.9127,0.9596,0.941,1.1782,1.3323,1.3391,1.5841,1.7493,1.7988,1.7991,1.8359,1.9092,1.9228,1.9518,1.9966,2.011,2.0157,2.0157,2.0157,2.0477,2.1025,2.1025,2.123,2.1524,2.1191,2.1025,2.1005,2.0713,2.083,2.121,2.1347,2.165,2.1816,2.0547,2.0157,2.0254,2.0253,2.0253,2.0593,2.2634,2.2647,2.1742,2.0866,2.0986,2.1477,2.1887,2.076,1.9746,2.0918,2.1463,2.1766,2.1893,2.2187,2.2726,2.375,2.4297,2.4697,2.5033,2.5297,2.5669,2.6314,2.6607,2.6988,2.7604,2.78,2.7976,2.8262,2.8291,2.834,2.8447,2.874,2.8937,2.9092,2.9502,2.9873,3.0176,3.0322,3.0547,3.0879,3.0889,3.0889,3.0889,3.0889,3.0889,3.0889,3.0889,3.0889,3.0889,3.0889,3.0889,3.0889,3.0889,3.0889,3.0889,3.0889,3.0889,3.0889,3.0889,3.0889,3.0889,3.0889,3.0889,3.0889,0.0,0.0,0.0,0.0,0.0,0.0,0.0,0.0,0.0,0.0,0.0,0.0,0.0,0.88,0.92,0.9387,1.0665,1.203,1.3321,1.4707,1.6225,1.7939,1.7991,1.8196,1.8617,1.9072,1.8983,1.838,1.8826,1.9045,1.9045,1.9045,1.9608,2.0625,2.0625,2.0635,2.0644,2.0615,2.0625,2.0625,2.0605,2.083,2.1239,2.1709,2.1368,2.0654,2.0605,2.083,2.0966,1.9746,1.9344,1.9354,1.944,1.9448,1.9234,1.8372,1.753,1.7076,1.7941,1.9012,2.0088,2.0976,2.2126,2.3171,2.3613,2.3721,2.3857,2.4284,2.4746,2.5072,2.5092,2.5796,2.6357,2.6412,2.7115,2.7663,2.7692,2.8044,2.8281,2.8291,2.8291,2.8447,2.883,2.8889,2.9092,2.954,2.9941,3.0185,3.0195,3.0625,3.0879,3.0889,3.0889,3.0889,3.0889,3.0889,3.0889,3.0889,3.0889,3.0889,3.0889,3.0889,3.0889,3.0889,3.0889,3.0889,3.0889,3.0889,3.0889,3.0889,3.0889,3.0889,3.0889,3.0889,3.0889,3.0889,0.0,0.0,0.0,0.0,0.0,0.0,0.0,0.0,0.0,0.0,0.0,0.0,0.0,0.0,0.0,0.0,1.0625,1.161,1.2118,1.4198,1.5801,1.6695,1.7549,1.8196,1.8588,1.8136,1.8046,1.8304,1.8555,1.8401,1.7908,1.9373,1.9883,1.9559,2.0284,2.0605,2.0605,2.0605,2.0605,2.0605,2.0605,2.1026,2.1582,2.0859,2.0762,2.0791,0.0,1.8562,1.8613,1.8174,1.8044,1.8191,1.9041,1.8896,1.833,1.7764,1.7766,1.8208,1.9394,2.0234,2.1113,2.2547,2.3252,2.3682,2.4111,2.4434,2.4701,2.4848,2.4736,2.4639,2.4639,2.5141,2.5605,2.5884,2.6924,2.779,2.8073,2.8203,2.8291,2.8291,2.8535,2.8877,2.9307,2.9346,2.9531,2.9979,3.04,3.0654,3.0654,3.0801,3.0889,3.0889,3.0889,3.0889,3.0889,3.0889,3.0889,3.0889,3.0889,3.0889,3.0889,3.0889,3.0889,3.0889,3.0889,3.0889,3.0889,3.0889,3.0889,3.0889,3.0889,3.0889,3.0889,3.0889,3.0889,3.0889,0.0,0.0,0.0,0.0,0.0,0.0,0.0,0.0,0.0,0.0,0.0,0.0,0.0,0.0,0.0,0.0,0.0,1.07,1.1257,1.2869,1.4268,1.5346,1.6172,1.6637,1.6705,1.6276,1.6,1.5876,1.6537,1.6803,1.6721,1.856,1.9471,1.9599,2.0284,2.0605,2.0605,2.0605,2.0312,1.9892,1.9892,2.0058,2.0214,1.9483,1.9376,0.0,1.792,1.7096,1.668,1.668,1.668,1.6832,1.7646,1.7744,1.7571,1.7773,1.8303,1.9171,2.0664,2.125,2.1825,2.3398,2.3789,2.3935,2.4512,2.4887,2.5141,2.5273,2.4951,2.4648,2.4648,2.516,2.5551,2.5484,2.6719,2.7731,2.7822,2.7969,2.8151,2.8271,2.8662,2.9092,2.9559,2.9735,2.9999,3.041,3.0723,3.0889,3.0889,3.0889,3.0889,3.0889,3.0889,3.0889,3.0889,3.0889,3.0889,3.0889,3.0889,3.0889,3.0889,3.0889,3.0889,3.0889,3.0889,3.0889,3.0889,3.0889,3.0889,3.0889,3.0889,3.0889,3.0889,3.0889,3.0889,3.0889,0.0,0.0,0.0,0.0,0.0,0.0,0.0,0.0,0.0,0.0,0.0,0.0,0.0,0.0,0.0,0.0,0.0,0.0,1.0685,1.083,1.1805,1.388,1.4009,1.3794,1.3304,1.3663,1.309,1.1501,1.3043,1.4332,1.5387,1.6627,1.8279,2.0236,2.0332,2.0361,2.0341,2.0361,1.9647,1.8471,1.849,1.8059,1.7438,1.7754,1.7386,1.6746,1.7129,1.6455,1.5396,1.5396,1.5444,1.5513,1.56,1.6205,1.7106,1.8334,1.9044,1.9785,2.1456,2.1954,2.2296,2.3516,2.386,2.4095,2.4936,2.5121,2.5239,2.5591,2.5332,2.5024,2.5004,2.5718,2.6016,2.5219,2.6548,2.7555,2.7139,2.7441,2.7878,2.8242,2.8682,2.9111,2.9559,2.9999,3.042,3.0859,3.0889,3.0889,3.0889,3.0889,3.0889,3.0889,3.0889,3.0889,3.0889,3.0889,3.0889,3.0889,3.0889,3.0889,3.0889,3.0889,3.0889,3.0889,3.0889,3.0889,3.0889,3.0889,3.0889,3.0889,3.0889,3.0889,3.0889,3.0918,3.0928,3.0928,0.0,0.0,0.0,0.0,0.0,0.0,0.0,0.0,0.0,0.0,0.0,0.0,0.0,0.0,0.0,0.0,0.0,0.0,0.8988,0.9921,1.0987,1.2191,1.2761,1.3129,1.3304,1.2338,1.1732,1.1501,1.2012,1.2233,1.2219,1.4664,1.5605,1.5278,1.6649,1.7047,1.6748,1.7103,1.7054,1.6764,1.7064,1.7269,1.7301,1.6406,1.6332,1.659,1.5762,1.543,1.5396,1.5396,1.6064,1.71,1.8369,1.8908,1.921,1.9883,2.0625,2.1338,2.1788,2.2599,2.3457,2.4092,2.4502,2.4906,2.5439,2.5542,2.5484,2.5283,2.4639,2.4046,2.3746,2.4369,2.4951,2.5072,2.6548,2.7761,2.7939,2.8066,2.82,2.8281,2.8955,2.9471,2.9588,3.0292,3.0762,3.0879,3.0889,3.0889,3.0889,3.0889,3.0889,3.0889,3.0889,3.0889,3.0889,3.0889,3.0889,3.0889,3.0889,3.0889,3.0889,3.0889,3.0889,3.0889,3.0889,3.0889,3.0889,3.0889,3.0889,3.0889,3.0889,3.0889,3.0928,3.124,3.1357,3.1406,0.0,0.0,0.0,0.0,0.0,0.0,0.0,0.0,0.0,0.0,0.0,0.0,0.0,0.0,0.0,0.0,0.0,0.0,0.0,0.9154,0.9764,1.043,1.0858,1.099,1.0799,0.9989,0.9497,0.9351,0.9955,1.0547,1.1137,1.3473,1.4453,1.4333,1.5733,1.6128,1.5737,1.6187,1.604,0.0,0.0,1.5684,1.5386,1.4976,1.5128,1.5517,1.5171,1.5586,1.6357,1.6924,1.7607,1.8435,1.9561,1.9893,2.0078,2.0918,2.1514,2.1984,2.2334,2.3096,2.3896,2.4293,2.4746,2.5112,2.5123,2.5132,2.5015,2.4613,2.3997,2.3518,2.3469,2.4297,2.4928,2.4805,2.6431,2.7712,2.7725,2.7927,2.8086,2.8271,2.908,2.9598,2.9598,3.04,3.0889,3.0889,3.0889,3.0889,3.0889,3.0889,3.0889,3.0889,3.0889,3.0889,3.0889,3.0889,3.0889,3.0889,3.0889,3.0889,3.0889,3.0889,3.0889,3.0889,3.0889,3.0889,3.0908,3.1094,3.1162,3.1182,3.1377,3.1485,3.1514,3.1719,3.1807,3.1836,0.0,0.0,0.0,0.0,0.0,0.0,0.0,0.0,0.0,0.0,0.0,0.0,0.0,0.0,0.0,0.0,0.0,0.0,0.0,0.0,0.857,0.8984,0.8936,0.8507,0.7695,0.7659,0.7338,0.6705,0.7804,0.9224,1.0954,1.243,1.3711,1.4804,1.5644,1.5791,1.5439,1.5903,1.5435,1.4392,1.4496,1.3893,1.2981,0.0,1.4055,1.4221,1.5093,1.626,1.7595,1.8875,1.9404,1.9639,2.0157,2.0323,2.0547,2.1719,2.2051,2.2207,2.2918,2.3435,2.3896,2.4293,2.4746,2.4975,2.4521,2.4391,2.4245,2.373,2.3401,2.3284,2.3564,2.4615,2.5259,2.4664,2.6221,2.7448,2.7217,2.751,2.7907,2.8252,2.908,2.9598,2.9598,3.04,3.0889,3.0889,3.0889,3.0889,3.0889,3.0889,3.0889,3.0889,3.0889,3.0889,3.0889,3.0889,3.0889,3.0889,3.0889,3.0889,3.0889,3.0889,3.0889,3.0898,3.0947,3.0976,3.1006,3.1426,3.1572,3.1641,3.2052,3.2198,3.2208,3.2257,3.2286,3.2286,0.0,0.0,0.0,0.0,0.0,0.0,0.0,0.0,0.0,0.0,0.6698,0.6599,0.0,0.0,0.0,0.0,0.0,0.0,0.0,0.0,0.0,0.8973,0.8575,0.8264,0.8097,0.7993,0.7714,0.726,0.7806,0.8547,0.9481,1.0319,1.0974,1.1459,1.2172,1.223,1.1844,1.2654,1.2666,1.2222,1.2944,1.3101,1.2942,1.3415,0.0,0.0,1.5093,1.626,1.7595,1.8875,2.0,2.1074,2.2185,2.2535,2.2584,2.283,2.2898,2.2927,2.3052,2.3435,2.3896,2.4293,2.4746,2.4975,2.4521,2.4391,2.4069,2.2969,2.2981,2.3098,2.2783,2.3496,2.4434,2.5337,2.6133,2.6953,2.793,2.8135,2.8213,2.8281,2.908,2.9598,2.9598,3.04,3.0889,3.0889,3.0889,3.0889,3.0889,3.0889,3.0889,3.0889,3.0889,3.0889,3.0889,3.0889,3.0889,3.0889,3.0889,3.0889,3.0889,3.0889,3.0889,3.0908,3.126,3.1406,3.1445,3.1875,3.2091,3.2091,3.2169,3.2198,3.2237,3.2559,3.2685,3.2734,0.0,0.0,0.0,0.0,0.0,0.0,0.0,0.0,0.7292,0.694,0.7092,0.7167,0.7029,0.6906,0.0,0.0,0.0,0.0,0.0,0.0,0.0,0.0,0.8311,0.809,0.7636,0.78,0.7767,0.7501,0.0,0.8308,0.9316,0.985,1.0224,1.0474,1.125,1.1478,1.131,1.1931,1.2225,1.2308,1.2729,1.2905,1.2974,0.0,0.0,0.0,1.6161,1.6962,1.7654,1.857,1.9922,2.1414,2.2691,2.3091,2.3091,2.3091,2.3091,2.3091,2.3091,2.3435,2.3896,2.4293,2.4746,2.4867,2.3932,2.3728,2.3367,2.2088,2.2197,2.2521,2.251,2.3389,2.4316,2.4928,2.5962,2.6924,2.7549,2.8008,2.8291,2.8291,2.908,2.9598,2.9598,3.04,3.0889,3.0889,3.0889,3.0889,3.0889,3.0889,3.0889,3.0889,3.0889,3.0889,3.0889,3.0889,3.0889,3.0889,3.0889,3.0889,3.0898,3.1123,3.1211,3.124,3.167,3.1855,3.1894,3.2314,3.2521,3.2519,3.2734,3.2822,3.2842,3.3047,3.3115,3.3144,0.0,0.0,0.0,0.0,0.0,0.0,0.0,0.7635,0.7446,0.7012,0.7451,0.7748,0.7608,0.7591,0.8007,0.0,0.0,0.0,0.0,0.0,0.0,0.0,0.0,0.0,0.7271,0.0,0.0,0.7771,0.7851,0.0,0.0,0.0,0.0,0.0,1.1292,1.1644,1.176,1.2166,1.2498,0.0,0.0,1.2844,1.2834,0.0,0.0,0.0,0.0,1.732,1.7347,1.8386,1.9574,2.0829,2.2122,2.2675,2.283,2.2711,2.275,2.2888,2.3042,2.3367,2.3769,2.4264,2.4678,2.4642,2.3396,2.3123,2.2701,2.1347,2.1514,2.2013,2.2314,2.3318,2.4176,2.4362,2.5542,2.6567,2.6937,2.7598,2.8086,2.8271,2.908,2.9598,2.9598,3.04,3.0889,3.0889,3.0889,3.0889,3.0889,3.0889,3.0889,3.0889,3.0889,3.0889,3.0889,3.0889,3.0889,3.0889,3.0889,3.0889,3.0908,3.1328,3.1484,3.1513,3.208,3.2335,3.2364,3.2754,3.293,3.2959,3.3291,3.3386,3.3386,3.3386,3.3386,3.3386,0.0,0.0,0.0,0.0,0.0,0.0,0.0,0.7717,0.7489,0.7209,0.7543,0.7909,0.8182,0.8218,0.8462,0.0,0.0,0.0,0.0,0.0,0.0,0.0,0.0,0.0,0.0,0.0,0.0,0.8332,0.8695,0.0,0.0,0.0,0.0,0.0,0.0,1.1798,1.2174,1.2637,0.0,0.0,0.0,0.0,0.0,0.0,0.0,0.0,0.0,1.644,1.6252,1.8681,1.9163,1.8965,2.0239,2.1277,2.1924,2.1503,2.1669,2.2168,2.2886,2.312,2.3354,2.4186,2.442,2.4248,2.3381,2.3144,2.2645,2.0996,2.1319,2.1915,2.1954,2.2645,2.3493,2.4264,2.4528,2.5181,2.6787,2.7054,2.7422,2.8203,2.908,2.9598,2.9598,3.04,3.0889,3.0889,3.0889,3.0889,3.0889,3.0889,3.0889,3.0889,3.0889,3.0889,3.0889,3.0889,3.0889,3.0889,3.0889,3.0889,3.0908,3.1328,3.1484,3.1562,3.2383,3.2734,3.2773,3.3193,3.3328,3.3338,3.3377,3.3386,3.3386,3.3386,3.3386,3.3386,0.0,0.0,0.0,0.0,0.0,0.0,0.0,0.7838,0.7705,0.7474,0.7749,0.81,0.8441,0.8656,0.9001,0.0,0.0,0.0,0.0,0.0,0.0,0.0,0.0,0.0,0.0,0.0,0.8519,0.8755,0.8919,0.0,0.0,0.0,0.0,0.0,0.0,1.1046,1.1434,1.1621,0.0,0.0,0.0,0.0,0.0,0.0,0.0,0.0,0.0,0.0,1.6801,1.8495,1.9101,1.9111,1.8808,1.9594,2.0701,2.1095,2.1523,2.207,2.2888,2.3308,2.3649,2.4245,2.4228,2.3887,2.3323,2.2775,2.2041,2.086,2.1075,2.1552,2.1857,2.2363,2.2937,2.3532,2.4059,2.4746,2.5727,2.6514,2.7236,2.7868,2.8924,2.9598,2.9598,3.04,3.0889,3.0889,3.0889,3.0889,3.0889,3.0889,3.0889,3.0889,3.0889,3.0889,3.0889,3.0889,3.0889,3.0889,3.0889,3.1025,3.1289,3.1719,3.2041,3.2324,3.291,3.3174,3.3184,3.3318,3.3386,3.3386,3.3386,3.3386,3.3386,3.3386,3.3386,3.3386,0.0,0.0,0.0,0.0,0.0,0.7899,0.7899,0.7899,0.7834,0.7631,0.7943,0.8296,0.857,0.8957,0.9387,0.9862,0.0,0.0,0.0,0.0,0.0,0.0,0.0,0.0,0.0,0.0,0.8651,0.9172,0.9172,0.957,0.0,0.0,1.0361,1.0479,0.0,0.0,0.0,0.0,0.0,0.0,0.0,0.0,0.0,0.0,0.0,0.0,0.0,0.0,0.0,0.0,0.0,1.9162,1.8223,1.8844,2.0012,2.0447,2.1027,2.171,2.2518,2.3271,2.3896,2.4293,2.4102,2.3682,2.3274,2.2521,2.1651,2.0791,2.1025,2.1503,2.1847,2.2334,2.2771,2.3052,2.362,2.4277,2.4994,2.5859,2.6699,2.7418,2.8523,2.9266,2.9393,3.0293,3.0889,3.0889,3.0889,3.0889,3.0889,3.0889,3.0889,3.0889,3.0889,3.0889,3.0889,3.0889,3.0889,3.0889,3.0889,3.1113,3.1503,3.2003,3.2423,3.2822,3.3242,3.3386,3.3386,3.3386,3.3386,3.3386,3.3386,3.3386,3.3386,3.3386,3.3386,3.3386,0.0,0.0,0.0,0.0,0.0,0.0,0.0,0.7899,0.7834,0.7631,0.8058,0.8451,0.8585,0.9072,0.9529,0.9874,0.0,0.0,0.0,0.0,0.0,0.0,0.0,0.0,0.0,0.0,0.8789,0.9602,0.9602,0.9835,1.0303,1.0303,1.0518,1.0888,0.0,0.0,0.0,0.0,0.0,0.0,0.0,0.0,0.0,0.0,0.0,0.0,0.0,0.0,0.0,0.0,0.0,0.0,0.0,1.9371,2.0055,1.9329,1.9833,2.0791,2.1681,2.2844,2.3896,2.4293,2.4102,2.3682,2.322,2.249,2.1651,2.0791,2.129,2.1896,2.1905,2.2547,2.3091,2.3091,2.3101,2.3581,2.4906,2.5102,2.56,2.6865,2.7783,2.8467,2.8859,3.0117,3.0889,3.0889,3.0889,3.0889,3.0889,3.0889,3.0889,3.0889,3.0889,3.0889,3.0889,3.0889,3.0889,3.0889,3.0889,3.1113,3.1503,3.2003,3.2423,3.2822,3.3242,3.3386,3.3386,3.3386,3.3386,3.3386,3.3386,3.3386,3.3386,3.3386,3.3386,3.3386,0.0,0.0,0.0,0.0,0.0,0.0,0.0,0.7899,0.7878,0.782,0.8229,0.861,0.8787,0.9238,0.9637,0.9881,0.0,0.0,0.0,0.0,0.0,0.0,0.0,0.0,0.0,0.0,0.9366,0.9669,0.9997,1.0551,1.132,1.0943,1.0855,1.0978,1.1354,1.1216,0.0,0.0,0.0,0.0,0.0,0.0,1.3958,0.0,0.0,0.0,0.0,0.0,0.0,0.0,0.0,0.0,0.0,0.0,0.0,1.9212,1.974,2.0673,2.0938,2.1504,2.2059,2.2186,2.2127,2.1981,2.1834,2.1396,2.0918,2.0664,2.1035,2.1513,2.1836,2.2334,2.2781,2.3052,2.3091,2.3464,2.4482,2.5123,2.6006,2.7305,2.8721,2.9766,3.0225,3.0644,3.0889,3.0889,3.0889,3.0889,3.0889,3.0889,3.0889,3.0889,3.0889,3.0889,3.0889,3.0889,3.0889,3.0889,3.0889,3.1269,3.1963,3.213,3.2559,3.3232,3.3328,3.3386,3.3386,3.3386,3.3386,3.3386,3.3386,3.3386,3.3386,3.3386,3.3386,3.3386,0.0,0.0,0.0,0.0,0.0,0.0,0.0,0.7899,0.7989,0.8252,0.8531,0.8852,0.9228,0.9541,0.9772,0.9894,0.0,0.0,0.0,0.0,0.0,0.0,0.0,0.0,0.0,0.9649,1.0066,1.0487,1.0792,1.1229,1.1792,1.1459,1.13,1.1319,1.1654,1.1451,0.0,0.0,0.0,0.0,0.0,0.0,1.4626,0.0,0.0,0.0,0.0,0.0,0.0,0.0,0.0,0.0,0.0,0.0,0.0,0.0,1.962,2.03,2.0149,2.0644,2.119,2.119,2.119,2.119,2.119,2.0889,2.0605,2.0605,2.1055,2.1542,2.1857,2.2353,2.281,2.3052,2.3249,2.3659,2.4541,2.5259,2.6245,2.7761,2.9149,3.0137,3.0586,3.0791,3.0889,3.0889,3.0889,3.0889,3.0889,3.0889,3.0889,3.0889,3.0889,3.0889,3.0889,3.0889,3.0889,3.0889,3.0889,3.1367,3.2198,3.2198,3.2627,3.3386,3.3386,3.3386,0.0,3.3386,3.3386,3.3386,3.3386,3.3386,3.3386,3.3386,3.3386,3.3386,0.0,0.0,0.0,0.0,0.0,0.0,0.0,0.0,0.0,0.8815,0.8935,0.9213,0.9871,0.9969,0.9987,0.9932,0.0,0.0,0.0,0.0,0.0,0.0,0.0,0.0,0.0,1.0562,1.0892,1.1802,1.1836,1.1866,1.1902,1.1866,1.1847,1.1847,1.1884,1.1902,1.1929,0.0,0.0,0.0,0.0,0.0,0.0,0.0,0.0,0.0,0.0,0.0,0.0,0.0,0.0,0.0,0.0,0.0,0.0,0.0,0.0,0.0,0.0,1.9991,2.0937,2.0937,2.1005,2.1054,2.1054,2.082,0.0,2.0566,2.127,2.1896,2.1866,2.2527,2.3091,2.3091,2.3484,2.4092,2.4975,2.5586,2.6528,2.8144,2.9149,2.9833,3.0166,3.0615,3.0889,3.0889,3.0889,3.0889,3.0889,3.0889,3.0889,3.0889,3.0889,3.0889,3.0889,3.0889,3.0889,3.0889,3.0889,3.1367,3.2198,3.2198,3.2627,3.3386,3.3386,3.3386,3.3386,3.3386,3.3386,3.3386,3.3386,3.3386,3.3386,3.3386,3.3386,3.3386,0.0,0.0,0.0,0.0,0.0,0.0,0.0,0.0,0.0,0.0,0.9342,0.9821,1.024,1.0698,1.079,0.0,0.0,0.0,0.0,0.0,0.0,0.0,0.0,0.0,0.0,1.1365,1.187,1.18,1.2166,1.2517,1.2864,1.2499,1.2347,1.2356,1.2703,1.2873,1.288,0.0,0.0,0.0,0.0,0.0,0.0,0.0,0.0,0.0,1.7186,1.7751,0.0,0.0,0.0,0.0,0.0,0.0,0.0,0.0,1.9489,1.953,1.777,0.0,1.8281,1.8281,1.9023,1.9746,0.0,2.0195,2.0507,2.0137,2.1035,2.1787,2.1425,2.2332,2.3091,2.3091,2.3484,2.4092,2.4975,2.6855,2.8293,2.8694,2.9844,3.0478,3.0225,3.0615,3.0889,3.0889,3.0889,3.0889,3.0889,3.0889,3.0889,3.0889,3.0889,3.0889,3.0889,3.0889,3.0889,3.0889,3.0889,3.1367,3.2198,3.2198,3.2627,3.3386,3.3386,3.3386,3.3386,3.3386,3.3386,3.3386,3.3386,3.3386,3.3386,3.3386,3.3386,3.3386,0.0,0.0,0.0,0.0,0.0,0.0,0.0,0.0,0.0,0.0,0.0,0.0,0.0,0.0,0.0,0.0,0.0,0.0,0.0,0.0,0.0,0.0,0.0,0.0,1.0834,1.1875,1.2415,1.2441,1.27,1.2952,1.3189,1.2934,1.2829,1.2826,1.3094,1.3353,1.3625,1.3656,1.4119,0.0,1.5465,0.0,0.0,0.0,0.0,0.0,1.7551,1.8116,0.0,1.951,2.0188,2.0779,0.0,0.0,0.0,0.0,1.9669,1.943,1.7285,1.7035,1.7448,1.7627,1.8486,1.9354,1.9531,2.0107,2.0537,2.0264,2.1123,2.1816,2.1582,2.2713,2.3571,2.3159,2.4147,2.5215,2.5869,2.7334,2.8486,2.885,2.9726,3.037,3.0498,3.0742,3.0889,3.0889,3.0889,3.0889,3.0889,3.0889,3.0889,3.0889,3.0889,3.0889,3.0889,3.0889,3.0889,3.0889,3.0889,3.1367,3.2198,3.2198,3.2627,3.3386,3.3386,3.3386,3.3386,3.3386,3.3386,3.3386,3.3386,3.3386,3.3386,3.3386,3.3386,3.3386,0.0,0.0,0.0,0.0,0.0,0.0,0.0,0.0,0.0,0.0,0.0,0.0,0.0,0.0,0.0,0.0,0.0,0.0,0.0,0.0,0.0,0.0,0.0,1.1116,1.1708,1.2245,1.2743,1.3198,1.3198,1.3198,1.3198,1.3198,1.3257,1.3341,1.342,1.3735,1.4233,1.4308,1.4868,1.5716,1.5781,0.0,0.0,0.0,0.0,0.0,0.0,0.0,0.0,2.0352,2.0805,2.1106,2.202,0.0,0.0,0.0,0.0,0.0,1.7412,1.7285,1.7741,1.7959,1.8701,1.9453,1.9737,2.0156,2.0488,2.0488,2.1192,2.1846,2.2041,2.323,2.4001,2.3406,2.4967,2.6484,2.7031,2.7633,2.823,2.8838,2.9424,3.0067,3.0723,3.085,3.0889,3.0889,3.0889,3.0889,3.0889,3.0889,3.0889,3.0889,3.0889,3.0889,3.0889,3.0889,3.0889,3.0889,3.0889,3.1367,3.2198,3.2198,3.2627,3.3386,3.3386,3.3386,3.3386,3.3386,3.3386,3.3386,3.3386,3.3386,3.3386,3.3386,3.3386,3.3386,0.0,0.0,0.0,0.0,0.0,0.0,0.0,0.0,0.0,0.0,0.0,0.0,0.0,0.0,0.0,0.0,0.0,0.0,0.0,0.0,0.0,0.0,1.0897,1.1713,1.2278,1.2793,1.3123,1.3198,1.3198,1.3198,1.3198,1.3198,1.3475,1.3984,1.4441,1.4683,1.4815,1.5261,1.5552,1.5731,1.6197,0.0,0.0,0.0,0.0,0.0,0.0,0.0,0.0,2.0465,2.1294,2.2069,2.2245,0.0,0.0,0.0,0.0,0.0,1.8052,1.8381,1.8856,1.8174,1.8908,1.9727,1.9453,1.9707,2.0019,2.0019,2.0703,2.1649,2.2732,2.3142,2.3503,2.4098,2.5103,2.624,2.7428,2.8582,2.9217,2.8918,2.9971,3.0586,3.0332,3.0664,3.0889,3.0889,3.0889,3.0889,3.0889,3.0889,3.0889,3.0889,3.0889,3.0889,3.0889,3.0889,3.0889,3.0889,3.0889,3.1367,3.2198,3.2198,3.2627,3.3386,3.3386,3.3386,3.3386,3.3386,3.3386,3.3386,3.3386,3.3386,3.3386,3.3386,3.3386,3.3386,0.0,0.0,0.0,0.0,0.0,0.0,0.0,0.0,0.0,0.0,0.0,0.0,0.0,0.0,0.0,0.0,0.0,0.0,0.0,0.0,0.0,1.1224,1.1482,1.1716,1.1964,1.2789,1.3198,1.3198,1.3198,1.3366,1.3681,1.3986,1.4268,1.4538,1.478,1.506,1.5349,1.5603,1.5869,1.6147,0.0,0.0,0.0,0.0,0.0,0.0,0.0,0.0,0.0,0.0,2.1218,2.187,2.187,0.0,0.0,0.0,0.0,0.0,1.8834,1.8816,1.8996,1.9316,2.0361,2.1308,2.1347,2.1493,2.1571,2.1347,2.1805,2.2477,2.3318,2.404,2.4933,2.6299,2.6269,2.6543,2.7848,2.8347,2.8748,2.9209,2.9805,3.0312,3.0547,3.0762,3.0889,3.0889,3.0889,3.0889,3.0889,3.0889,3.0889,3.0889,3.0889,3.0889,3.0889,3.0889,3.0889,3.0889,3.0889,3.1211,3.1826,3.2091,3.2531,3.3096,3.333,3.3386,3.3386,3.3386,3.3386,3.3386,3.3386,3.3386,3.3386,3.3386,3.3386,3.3386,0.0,0.0,0.0,0.0,0.0,0.0,0.0,0.0,0.0,0.0,0.0,0.0,0.0,0.0,0.0,0.0,0.0,0.0,0.0,0.0,1.1005,1.2063,1.1847,1.1784,1.1964,1.2789,1.3198,1.3198,1.3341,1.3709,1.4296,1.483,1.5095,1.5085,1.5223,1.5502,1.5881,1.5881,1.6122,1.65,0.0,0.0,0.0,0.0,0.0,0.0,0.0,0.0,0.0,0.0,0.0,0.0,0.0,0.0,0.0,2.1304,2.0452,1.9532,1.9587,1.9257,1.9152,2.0185,2.1104,2.1952,2.2781,2.2732,2.2537,2.2625,2.2976,2.3435,2.3994,2.4967,2.6108,2.7344,2.6973,2.6982,2.8262,2.8279,2.8542,2.9618,2.9843,3.0175,3.083,3.0889,3.0889,3.0889,3.0889,3.0889,3.0889,3.0889,3.0889,3.0889,3.0889,3.0889,3.0889,3.0889,3.0889,3.0889,3.0889,3.1113,3.1503,3.2003,3.2423,3.2822,3.3242,3.3386,3.3386,3.3386,3.3386,3.3386,3.3386,3.3386,3.3386,3.3386,3.3386,3.3386,0.0,0.0,0.0,0.0,0.0,0.0,0.0,0.0,0.0,0.0,0.0,0.0,0.0,0.0,0.0,0.0,0.0,0.0,0.0,0.0,1.0983,1.1267,1.1736,1.2316,1.3069,1.316,1.3198,1.3198,1.3765,1.4311,1.4856,1.5399,1.563,1.5655,1.616,1.641,1.6437,1.6437,1.6463,1.65,1.65,0.0,0.0,0.0,0.0,0.0,0.0,0.0,0.0,0.0,0.0,0.0,0.0,0.0,2.0942,2.1924,2.0665,1.9192,2.0211,2.0167,1.9825,1.9941,1.9736,2.0049,2.2069,2.1641,2.1211,2.2742,2.3415,2.4017,2.4848,2.54,2.562,2.5375,2.624,2.7386,2.8664,2.9227,2.9647,3.0098,3.0537,3.082,3.0889,3.0889,3.0889,3.0889,3.0889,3.0889,3.0889,3.0889,3.0889,3.0889,3.0889,3.0889,3.0889,3.0889,3.0889,3.0889,3.0889,3.1113,3.1503,3.2003,3.2423,3.2822,3.3242,3.3386,3.3386,3.3386,3.3386,3.3386,3.3386,3.3386,3.3386,3.3386,3.3386,3.3386,0.0,0.0,0.0,0.0,0.0,0.0,0.0,0.0,0.0,0.0,0.0,0.0,0.0,0.0,0.0,0.0,0.0,0.0,0.0,0.0,1.1767,1.2588,1.2383,1.2685,1.3627,1.3348,1.3378,1.3765,1.4667,1.5198,1.5402,1.5957,1.6197,1.621,1.64,1.65,1.65,1.65,1.65,1.6525,1.6911,1.7198,0.0,0.0,0.0,0.0,0.0,0.0,0.0,0.0,2.0515,2.0943,2.0552,1.9984,1.9779,2.1342,2.0103,1.8565,2.0163,2.0254,1.9893,1.9893,1.9795,2.0312,2.2754,2.2951,2.2775,2.3408,2.4316,2.5074,2.5396,2.6494,2.71,2.6387,2.7139,2.8164,2.918,2.9491,2.9862,3.0547,3.0781,3.0889,3.0889,3.0889,3.0889,3.0889,3.0889,3.0889,3.0889,3.0889,3.0889,3.0889,3.0889,3.0889,3.0889,3.0889,3.0889,3.0889,3.0889,3.0976,3.1152,3.1876,3.2286,3.2472,3.3125,3.3386,3.3386,3.3386,3.3386,3.3386,3.3386,3.3386,3.3386,3.3386,3.3386,3.3386,0.0,0.0,0.0,0.0,0.0,0.0,0.0,0.0,0.0,0.0,0.0,0.0,0.0,0.0,0.0,0.0,0.0,0.0,1.2358,1.2166,1.2546,1.3645,1.326,1.3357,1.414,1.3885,1.3857,1.4103,1.5173,1.5781,1.5969,1.6335,1.65,1.65,1.6699,1.6774,1.681,1.6963,1.7038,1.7075,1.75,1.7751,0.0,0.0,0.0,0.0,0.0,0.0,0.0,0.0,2.0075,2.0352,1.9924,1.9281,1.9009,2.0631,1.9729,1.8601,2.033,2.0273,1.9844,2.0381,2.0205,2.0576,2.3203,2.3499,2.3418,2.4238,2.5093,2.5757,2.5893,2.7012,2.7656,2.6934,2.7646,2.8594,2.9481,2.9598,2.9921,3.0791,3.0889,3.0889,3.0889,3.0889,3.0889,3.0889,3.0889,3.0889,3.0889,3.0889,3.0889,3.0889,3.0889,3.0889,3.0889,3.0889,3.0889,3.0889,3.0889,3.0889,3.0918,3.1641,3.2071,3.2237,3.292,3.3269,3.3386,3.3386,3.3386,3.3386,3.3386,3.3386,3.3386,3.3386,3.3386,3.3386,0.0,0.0,0.0,0.0,0.0,0.0,0.0,0.0,0.0,0.0,0.0,0.0,0.0,0.0,0.0,0.0,0.0,0.0,1.2756,1.281,1.3194,1.4062,1.4247,1.4432,1.4682,1.483,1.4629,1.4116,1.5185,1.5982,1.65,1.65,1.65,1.6525,1.7135,1.741,1.7437,1.7978,1.8204,1.8204,1.8216,1.8531,1.9008,0.0,0.0,0.0,0.0,0.0,0.0,0.0,1.9798,1.9798,1.9798,1.9281,1.889,1.9904,1.9672,1.9397,2.0795,2.026,1.9745,2.1435,2.0898,2.0625,2.3203,2.2834,2.2637,2.5201,2.5718,2.5845,2.6309,2.6738,2.6894,2.6465,2.7461,2.8594,2.9481,2.9598,2.9921,3.0791,3.0889,3.0889,3.0889,3.0889,3.0889,3.0889,3.0889,3.0889,3.0889,3.0889,3.0889,3.0889,3.0889,3.0889,3.0889,3.0889,3.0889,3.0889,3.0889,3.0889,3.0908,3.1328,3.1758,3.2218,3.2648,3.3037,3.3386,3.3386,3.3386,3.3386,3.3386,3.3386,3.3386,3.3386,3.3386,3.3386,0.0,0.0,0.0,0.0,0.0,0.0,0.0,0.0,0.0,0.0,0.0,0.0,0.0,0.0,0.0,0.0,0.0,0.0,1.2756,1.2979,1.3532,1.4553,1.4953,1.4969,1.4575,1.4778,1.5007,1.5236,1.5919,1.6337,1.65,1.65,1.6724,1.7148,1.7311,1.7613,1.7978,1.8129,1.8204,1.823,1.8619,1.8857,1.9008,0.0,0.0,0.0,0.0,0.0,0.0,0.0,0.0,0.0,1.9798,1.8939,1.8224,1.9747,1.8875,1.7777,1.9422,2.0483,2.1035,2.0605,2.1582,2.2842,2.3613,2.3518,2.3877,2.6137,2.6128,2.5932,2.6689,2.7422,2.7676,2.6943,2.7646,2.8594,2.9481,2.9598,2.9921,3.0791,3.0889,3.0889,3.0889,3.0889,3.0889,3.0889,3.0889,3.0889,3.0889,3.0889,3.0889,3.0889,3.0889,3.0889,3.0889,3.0889,3.0889,3.0889,3.0889,3.0889,3.0908,3.1328,3.1758,3.2218,3.2648,3.3037,3.3386,3.3386,3.3386,3.3386,3.3386,3.3386,3.3386,3.3386,3.3386,3.3386,0.0,0.0,0.0,0.0,0.0,0.0,0.0,0.0,0.0,0.0,0.0,0.0,0.0,0.0,0.0,0.0,0.0,0.0,0.0,1.3745,1.424,1.5163,1.5522,1.5547,1.5226,1.5369,1.5635,1.6019,1.6348,1.65,1.65,1.676,1.7049,1.7423,1.7851,1.8229,1.8531,1.8756,1.8844,1.8857,1.897,1.9121,1.9284,0.0,0.0,0.0,0.0,0.0,0.0,0.0,0.0,0.0,1.9798,1.915,1.8623,1.9844,1.9143,1.8395,2.0331,2.1241,2.1728,2.2108,2.3018,2.3926,2.4443,2.4697,2.5244,2.6709,2.6723,2.6709,2.7402,2.7949,2.8125,2.7607,2.7959,2.8594,2.9481,2.9598,2.9921,3.0791,3.0889,3.0889,3.0889,3.0889,3.0889,3.0889,3.0889,3.0889,3.0889,3.0889,3.0889,3.0889,3.0889,3.0889,3.0889,3.0889,3.0889,3.0889,3.0889,3.0889,3.0898,3.1152,3.1504,3.1943,3.2539,3.3037,3.3386,3.3386,3.3386,3.3386,3.3386,3.3386,3.3386,3.3386,3.3386,3.3386,0.0,0.0,0.0,0.0,0.0,0.0,0.0,0.0,0.0,0.0,0.0,0.0,0.0,0.0,0.0,0.0,0.0,0.0,0.0,0.0,1.5095,1.5769,1.588,1.6078,1.6389,1.6297,1.6309,1.6436,1.6486,1.6536,1.6599,1.7148,1.7449,1.7588,1.8556,1.9033,1.9108,1.9585,1.9798,1.9761,1.9271,1.9371,1.9748,1.9271,0.0,0.0,0.0,0.0,0.0,0.0,0.0,0.0,1.9798,1.9712,1.9653,1.9988,1.9995,2.0341,2.2361,2.2148,2.2038,2.4816,2.4732,2.4277,2.5445,2.6079,2.6553,2.6908,2.7363,2.7819,2.8239,2.8291,2.8291,2.8291,2.8291,2.8594,2.9481,2.9598,2.9921,3.0791,3.0889,3.0889,3.0889,3.0889,3.0889,3.0889,3.0889,3.0889,3.0889,3.0889,3.0889,3.0889,3.0889,3.0889,3.0889,3.0889,3.0889,3.0889,3.0889,3.0889,3.0889,3.0889,3.1143,3.1621,3.2441,3.3037,3.3386,3.3386,3.3386,3.3386,3.3386,3.3386,3.3386,3.3386,3.3386,3.3386,0.0,0.0,0.0,0.0,0.0,0.0,0.0,0.0,0.0,0.0,0.0,0.0,0.0,0.0,0.0,0.0,0.0,0.0,0.0,0.0,1.5095,1.5769,1.5589,1.5956,1.7068,1.6257,1.5835,1.5869,1.6298,1.6737,1.7211,1.7348,1.7851,1.8669,1.8895,1.9221,1.9648,1.9748,1.9798,1.9798,1.966,1.9698,1.9798,1.966,1.971,0.0,0.0,0.0,0.0,0.0,0.0,0.0,1.9798,1.9712,1.954,1.9261,1.9512,1.9989,2.0492,2.163,2.2947,2.3942,2.4742,2.5367,2.565,2.6303,2.6904,2.6967,2.7363,2.7819,2.8239,2.8291,2.8291,2.8291,2.8291,2.8594,2.9481,2.9598,2.9921,3.0791,3.0889,3.0889,3.0889,3.0889,3.0889,3.0889,3.0889,3.0889,3.0889,3.0889,3.0889,3.0889,3.0889,3.0889,3.0889,3.0889,3.0889,3.0889,3.0889,3.0889,3.0889,3.0889,3.1309,3.2091,3.2568,3.3037,3.3386,3.3386,3.3386,3.3386,3.3386,3.3386,3.3386,3.3386,3.3386,3.3386,0.0,0.0,0.0,0.0,0.0,0.0,0.0,0.0,0.0,0.0,0.0,0.0,0.0,0.0,0.0,0.0,0.0,0.0,0.0,0.0,1.5552,1.6196,1.6377,1.6689,1.719,1.6655,1.6281,1.6072,1.635,1.6661,1.6986,1.7526,1.794,1.8279,1.9045,1.9397,1.9434,1.9685,1.9798,1.9773,1.9522,1.956,1.9798,1.9798,1.9974,2.0263,2.0527,0.0,0.0,0.0,0.0,0.0,0.0,0.0,2.0782,2.0299,2.0185,2.0499,2.171,2.2283,2.2869,2.4332,2.521,2.5693,2.5693,2.6371,2.6986,2.6986,2.7519,2.8054,2.8252,2.8291,2.8291,2.8291,2.8291,2.8594,2.9481,2.9598,2.9921,3.0791,3.0889,3.0889,3.0889,3.0889,3.0889,3.0889,3.0889,3.0889,3.0889,3.0889,3.0889,3.0889,3.0889,3.0889,3.0889,3.0889,3.0889,3.0889,3.0889,3.0889,3.0889,3.0889,3.1387,3.2208,3.2433,3.2842,3.3386,3.3386,3.3386,3.3386,3.3386,3.3386,3.3386,3.3386,3.3386,3.3386,0.0,0.0,0.0,0.0,0.0,0.0,0.0,0.0,0.0,0.0,0.0,0.0,0.0,0.0,0.0,0.0,0.0,0.0,0.0,0.0,0.0,1.6674,1.7148,1.727,1.6973,1.6965,1.6768,1.635,1.645,1.655,1.6674,1.7626,1.7915,1.7727,1.907,1.9472,1.9171,1.961,1.9798,1.9761,1.9321,1.9459,1.9962,1.9962,2.0263,2.0767,2.1306,2.1444,2.1356,2.1356,0.0,0.0,0.0,0.0,2.2056,2.1556,2.1119,2.1273,2.3289,2.3046,2.2783,2.5123,2.5693,2.5693,2.5693,2.6371,2.6986,2.6986,2.7695,2.8291,2.8291,2.8291,2.8291,2.8291,2.8291,2.8591,2.9373,2.9549,2.9891,3.0674,3.084,3.0889,3.0889,3.0889,3.0889,3.0889,3.0889,3.0889,3.0889,3.0889,3.0889,3.0889,3.0889,3.0889,3.0889,3.0889,3.0889,3.0889,3.0889,3.0889,3.0889,3.0889,3.1318,3.2091,3.2159,3.2638,3.3289,3.3357,3.3386,3.3386,3.3386,3.3386,3.3386,3.3386,3.3386,3.3386,0.0,0.0,0.0,0.0,0.0,0.0,0.0,0.0,0.0,0.0,0.0,0.0,0.0,0.0,0.0,0.0,0.0,0.0,1.5784,0.0,0.0,1.6674,1.6403,1.6289,1.6398,1.6411,1.622,1.5816,1.6272,1.6762,1.7274,1.7437,1.7965,1.8807,1.9008,1.9334,1.971,1.9773,1.9798,1.9798,1.9723,2.005,2.0578,2.0578,2.0629,2.0767,2.1306,2.1193,2.0818,2.0818,2.0818,0.0,0.0,0.0,2.1539,2.117,2.1381,2.1713,2.1658,2.2574,2.3887,2.5347,2.5693,2.5693,2.5693,2.6371,2.6986,2.6986,2.7695,2.8291,2.8291,2.8291,2.8291,2.8291,2.8291,2.8457,2.8935,2.9336,2.9774,3.0234,3.0644,3.0889,3.0889,3.0889,3.0889,3.0889,3.0889,3.0889,3.0889,3.0889,3.0889,3.0889,3.0889,3.0889,3.0889,3.0889,3.0889,3.0889,3.0889,3.0889,3.0889,3.0889,3.1152,3.1621,3.2032,3.2472,3.291,3.3271,3.3386,3.3386,3.3386,3.3386,3.3386,3.3386,3.3386,3.3386,0.0,0.0,0.0,0.0,0.0,0.0,0.0,0.0,0.0,0.0,0.0,0.0,0.0,0.0,0.0,1.5177,1.5237,1.5402,1.5784,1.6114,1.642,1.6689,1.7221,1.7268,1.6757,1.7124,1.6929,1.6147,1.6722,1.7148,1.741,1.7713,1.8103,1.8581,1.9183,1.9409,1.9371,1.966,1.9798,1.9798,1.9798,2.0514,2.1556,0.0,0.0,0.0,2.242,2.2232,2.2046,2.2046,2.1845,2.1511,2.1019,0.0,0.0,0.0,2.074,2.0603,2.1385,2.2679,2.4102,2.5386,2.5693,2.5693,2.5693,2.6371,2.6986,2.6986,2.7695,2.8291,2.8291,2.8291,2.8291,2.8291,2.8291,2.8437,2.883,2.9082,2.9453,3.0117,3.0371,3.0605,3.0869,3.0889,3.0889,3.0889,3.0889,3.0889,3.0889,3.0889,3.0889,3.0889,3.0889,3.0889,3.0889,3.0889,3.0889,3.0889,3.0889,3.0889,3.0889,3.0889,3.1123,3.1543,3.2013,3.2443,3.2832,3.322,3.3386,3.3386,3.3386,3.3386,3.3386,3.3386,3.3386,3.3386,0.0,0.0,0.0,0.0,0.0,0.0,0.0,0.0,0.0,0.0,0.0,0.0,0.0,0.0,0.0,0.0,1.505,1.5267,1.5769,1.6211,1.6547,1.6689,1.7661,1.7794,1.6927,1.7515,1.7397,1.65,1.7099,1.7537,1.7826,1.8229,1.8481,1.8643,1.9296,1.9447,1.9221,1.9622,1.9798,1.9836,2.025,2.128,2.2508,2.2535,2.3314,0.0,0.0,2.3446,2.3283,2.2995,2.2633,2.2193,2.154,2.1335,0.0,0.0,0.0,1.9906,2.1233,2.2189,2.3223,2.4947,2.5298,2.5308,2.564,2.6371,2.6986,2.6986,2.7695,2.8291,2.8291,2.8291,2.8291,2.8291,2.8291,2.8398,2.8711,2.8848,2.9133,2.9795,3.0068,3.0332,3.0684,3.082,3.0889,3.0889,3.0889,3.0889,3.0889,3.0889,3.0889,3.0889,3.0889,3.0889,3.0889,3.0889,3.0889,3.0889,3.0889,3.0889,3.0889,3.0889,3.1064,3.1387,3.1964,3.2374,3.2676,3.3203,3.3386,3.3386,3.3386,3.3386,3.3386,3.3386,3.3386,3.3386,0.0,0.0,0.0,0.0,0.0,0.0,0.0,0.0,0.0,0.0,0.0,0.0,1.4744,1.5312,1.5709,1.5731,1.5754,1.5769,1.5799,1.5829,1.6106,1.6689,1.6764,0.0,1.6356,1.6867,1.6936,1.65,1.7099,1.7915,1.892,1.8945,1.9233,1.9698,1.9233,1.9321,1.9761,1.9798,1.9798,1.9949,2.1529,2.2533,2.3233,2.4779,2.5435,2.5448,2.4904,2.4377,2.3791,2.2709,2.232,2.228,2.2251,2.2237,2.2337,0.0,0.0,0.0,2.0648,2.04,2.0801,2.3728,2.418,2.4219,2.5435,2.6371,2.6986,2.6986,2.7695,2.8291,2.8291,2.8291,2.8291,2.8291,2.8291,2.8301,2.832,2.8672,2.8908,2.8957,2.9707,3.0205,3.0234,3.0635,3.0889,3.0889,3.0889,3.0889,3.0889,3.0889,3.0889,3.0889,3.0889,3.0889,3.0889,3.0889,3.0889,3.0889,3.0889,3.0889,3.0889,3.0889,3.0898,3.0976,3.1837,3.2208,3.2296,3.3086,3.3386,3.3386,3.3386,3.3386,3.3386,3.3386,3.3386,3.3386,0.0,0.0,0.0,0.0,0.0,0.0,0.0,0.0,0.0,0.0,0.0,0.0,0.0,1.5664,1.5799,1.5799,1.5799,1.5964,1.6353,1.6383,1.6674,1.7309,1.7416,1.7267,1.6831,1.7467,1.7568,1.7085,1.7979,1.8619,1.9008,1.9346,1.9623,1.9798,1.961,1.961,1.9823,2.0213,2.0377,2.0515,2.2157,2.3574,2.4691,2.4607,2.5674,2.6904,2.454,2.4063,2.4295,2.2802,2.2307,2.2208,2.1643,2.1468,2.1356,2.0814,2.0627,2.0539,2.0238,2.0263,2.0811,2.2715,2.3701,2.4293,2.4762,2.5962,2.6986,2.6986,2.7695,2.8291,2.8291,2.8291,2.8291,2.8291,2.8291,2.8291,2.8291,2.8418,2.8613,2.8859,2.9434,2.9931,3.0166,3.0615,3.0889,3.0889,3.0889,3.0889,3.0889,3.0889,3.0889,3.0889,3.0889,3.0889,3.0889,3.0889,3.0889,3.0889,3.0889,3.0889,3.0889,3.0889,3.0889,3.0928,3.1504,3.1904,3.2247,3.2783,3.3174,3.3386,3.3386,3.3386,3.3386,3.3386,3.3386,3.3386,0.0,0.0,0.0,0.0,0.0,0.0,0.0,0.0,0.0,0.0,0.0,0.0,0.0,0.0,1.6346,1.6114,1.6316,1.6518,1.6689,1.6741,1.706,1.7741,1.787,1.7795,1.7486,1.8126,1.8295,1.794,1.8656,1.9096,1.9284,1.9622,1.9798,1.9798,1.9798,1.9798,1.9836,2.0439,2.0705,2.0865,2.267,2.4075,2.5051,2.4905,2.5968,2.7219,2.4619,2.4162,2.4576,2.3081,2.2575,2.2476,2.1898,2.1512,2.1096,2.004,1.9928,2.0062,1.9597,1.9697,2.0264,2.1698,2.2703,2.3513,2.4235,2.5513,2.6645,2.6928,2.7695,2.8291,2.8291,2.8291,2.8291,2.8291,2.8291,2.8291,2.8291,2.8291,2.8398,2.8672,2.9219,2.9706,2.9961,3.0566,3.0889,3.0889,3.0889,3.0889,3.0889,3.0889,3.0889,3.0889,3.0889,3.0889,3.0889,3.0889,3.0889,3.0889,3.0889,3.0889,3.0889,3.0889,3.0889,3.0908,3.1182,3.1631,3.2237,3.2627,3.3037,3.3386,3.3386,3.3386,3.3386,3.3386,3.3386,3.3386,0.0,0.0,0.0,0.0,0.0,0.0,0.0,0.0,0.0,1.5799,0.0,0.0,0.0,0.0,0.0,1.6793,1.7324,1.7428,1.6808,1.6876,1.7236,1.7917,1.7993,1.8078,1.8225,1.8738,1.9001,1.9008,1.902,1.9284,1.9798,1.9798,1.9811,1.9823,1.9823,1.9836,1.9886,2.0478,2.0729,2.0936,2.3179,2.405,2.4197,2.5865,2.6493,2.635,2.5176,2.4755,2.4588,2.3459,2.3055,2.3024,2.3068,2.2529,2.1737,2.0862,1.9977,1.9187,0.0,0.0,0.0,2.0713,2.1181,2.1776,2.3845,2.5045,2.5952,2.6781,2.7676,2.8291,2.8291,2.8291,2.8291,2.8291,2.8291,2.8291,2.8291,2.8291,2.8291,2.8291,2.9061,2.9588,2.9598,3.039,3.0879,3.0889,3.0889,3.0889,3.0889,3.0889,3.0889,3.0889,3.0889,3.0889,3.0889,3.0889,3.0889,3.0889,3.0889,3.0889,3.0889,3.0889,3.0889,3.0889,3.0889,3.1397,3.2208,3.2638,3.3027,3.3386,3.3386,3.3386,3.3386,3.3386,3.3386,3.3386,0.0,0.0,0.0,0.0,0.0,0.0,0.0,0.0,0.0,0.0,0.0,0.0,0.0,0.0,1.7631,1.7436,1.7586,1.7833,1.8132,1.7821,1.81,1.9161,1.8525,1.8346,1.8762,1.8909,1.9004,1.9008,1.9397,1.9647,1.9798,1.9798,2.0024,2.0453,2.0453,2.0679,2.1042,2.1206,2.1507,2.208,2.4739,2.5301,2.4725,2.6015,2.6502,2.6249,2.4283,2.3685,2.3717,2.2817,2.1966,2.1391,2.2025,2.2072,2.1737,2.0862,1.9977,1.9131,1.8374,0.0,0.0,0.0,0.0,0.0,2.2451,2.4196,2.5762,2.602,2.724,2.8291,2.8291,2.8291,2.8291,2.8291,2.8291,2.8291,2.8291,2.8291,2.8291,2.8291,2.8769,2.9219,2.9569,3.0068,3.0527,3.0869,3.0889,3.0889,3.0889,3.0889,3.0889,3.0889,3.0889,3.0889,3.0889,3.0889,3.0889,3.0889,3.0889,3.0889,3.0889,3.0889,3.0889,3.0889,3.0889,3.1191,3.1728,3.2198,3.2764,3.3386,3.3386,3.3386,3.3386,3.3386,3.3386,3.3386,0.0,0.0,0.0,0.0,0.0,0.0,0.0,0.0,0.0,0.0,0.0,0.0,0.0,0.0,1.7926,1.8099,1.8421,1.8643,1.8737,1.8741,1.8835,1.9066,1.851,1.8345,1.8657,1.8889,1.9108,1.9321,1.966,1.9798,1.9811,2.0062,2.0351,2.0717,2.093,2.1331,2.1832,2.1832,2.202,2.246,2.4324,2.4672,2.4167,2.4827,2.5086,2.4911,2.3576,2.3322,2.3552,2.3074,2.2489,2.1953,2.2091,2.1796,2.1191,2.0317,1.9447,0.0,0.0,0.0,1.9344,1.9502,0.0,0.0,2.2246,2.3825,2.5367,2.6098,2.7344,2.8291,2.8291,2.8291,2.8291,2.8291,2.8291,2.8291,2.8291,2.8291,2.8291,2.8291,2.8662,2.9092,2.9559,2.9951,3.0391,3.0859,3.0889,3.0889,3.0889,3.0889,3.0889,3.0889,3.0889,3.0889,3.0889,3.0889,3.0889,3.0889,3.0889,3.0889,3.0889,3.0889,3.0889,3.0889,3.0889,3.1133,3.1553,3.2022,3.2589,3.3174,3.3318,3.3386,3.3386,3.3386,3.3386,3.3386,0.0,0.0,0.0,0.0,0.0,0.0,0.0,0.0,0.0,0.0,1.751,1.8785,0.0,0.0,0.0,0.0,1.9294,1.9447,1.8854,1.9381,1.9304,1.8423,1.8318,1.8329,1.838,1.8832,1.9321,1.9798,1.9798,1.9836,1.9911,2.0453,2.0754,2.0893,2.1382,2.1882,2.2383,2.2383,2.2399,2.2431,2.2937,2.3131,2.3104,2.3129,2.315,2.3188,2.318,2.3412,2.3708,2.3626,2.3699,2.369,2.2688,2.1681,2.0671,1.9598,1.8772,0.0,0.0,0.0,0.0,1.9796,2.0263,0.0,2.2479,2.3532,2.4615,2.6167,2.7236,2.7871,2.7956,2.793,2.7949,2.7998,2.8086,2.8184,2.8281,2.8291,2.8291,2.8291,2.8623,2.9043,2.9549,2.9931,3.0342,3.085,3.0889,3.0889,3.0889,3.0889,3.0889,3.0889,3.0889,3.0889,3.0889,3.0889,3.0889,3.0889,3.0889,3.0889,3.0889,3.0889,3.0889,3.0889,3.0889,3.1103,3.1484,3.2003,3.2443,3.2832,3.322,3.3386,3.3386,3.3386,3.3386,3.3386,0.0,0.0,0.0,0.0,0.0,0.0,0.0,0.0,0.0,1.6059,1.6867,1.7665,0.0,0.0,0.0,0.0,1.8364,1.8567,1.8861,1.8665,1.8815,1.9452,1.9061,1.9045,1.9484,1.9585,1.9698,1.9798,1.9798,2.005,2.0528,2.0641,2.1155,2.1995,2.2108,2.2445,2.2945,2.2945,2.2945,2.2967,2.3288,2.3282,2.3124,2.3335,2.3525,2.3655,2.367,2.3473,2.3146,2.2495,2.3168,2.395,2.2053,2.1985,2.2185,1.996,1.9413,1.9396,1.8763,1.8937,1.9413,1.9796,2.0263,0.0,2.1006,2.2012,2.2978,2.3298,2.4323,2.5283,2.5649,2.5718,2.5835,2.6147,2.6791,2.75,2.8193,2.8291,2.8291,2.8291,2.8369,2.8721,2.952,2.9676,3.0058,3.083,3.0889,3.0889,3.0889,3.0889,3.0889,3.0889,3.0889,3.0889,3.0889,3.0889,3.0889,3.0889,3.0889,3.0889,3.0889,3.0889,3.0889,3.0889,3.0889,3.0937,3.1074,3.1876,3.2443,3.2832,3.322,3.3386,3.3386,3.3386,3.3386,3.3386,0.0,0.0,0.0,0.0,0.0,0.0,0.0,0.0,0.0,1.6268,1.6857,1.7685,1.8827,1.8473,0.0,0.0,0.0,0.0,1.9342,1.9434,1.9471,1.9398,1.9143,1.9121,1.9397,1.9397,1.9685,2.0251,2.0251,2.054,2.1093,2.1369,2.1785,2.2301,2.2152,2.2466,2.3066,2.2665,2.2504,2.2543,2.3075,2.3356,2.3457,2.3597,2.3835,2.4102,2.4102,2.4102,2.4072,2.3854,2.3792,2.3608,2.2757,2.2348,2.1818,2.0103,2.0058,2.0303,1.9239,1.9435,1.9998,2.0211,2.0429,0.0,0.0,2.1894,2.2615,2.3066,2.3828,2.4459,2.4697,2.4746,2.4883,2.5332,2.6133,2.6777,2.6957,2.7754,2.8291,2.8291,2.8291,2.8633,2.952,2.9598,2.997,3.082,3.0889,3.0889,3.0889,3.0889,3.0889,3.0889,3.0889,3.0889,3.0889,3.0889,3.0889,3.0889,3.0889,3.0889,3.0889,3.0889,3.0889,3.0889,3.0889,3.0889,3.0947,3.1582,3.21,3.2579,3.3174,3.3386,3.3386,3.3386,3.3386,3.3386,1.3391,0.0,0.0,0.0,0.0,0.0,0.0,0.0,0.0,1.6804,1.7526,1.853,1.9827,1.948,1.9491,0.0,0.0,0.0,2.0147,2.0638,2.054,1.9673,1.9321,1.9321,1.9622,1.9421,1.9773,2.0705,2.0792,2.1035,2.1418,2.2024,2.217,2.1966,2.2083,2.2299,2.2593,2.2088,2.1942,2.2072,2.2712,2.318,2.3428,2.3513,2.3888,2.4427,2.4597,2.4902,2.5239,2.5298,2.4396,2.3205,2.3077,2.2419,2.1419,1.9961,2.0587,2.1377,1.9739,2.0006,2.0721,2.063,2.0605,2.0772,0.0,0.0,0.0,2.3049,2.3437,2.3679,2.3767,2.3776,2.3945,2.4408,2.5209,2.5644,2.5269,2.6572,2.7607,2.7783,2.8096,2.8591,2.9285,2.95,2.997,3.082,3.0732,3.0713,3.0879,3.0889,3.0889,3.0889,3.0889,3.0889,3.0889,3.0889,3.0889,3.0889,3.0889,3.0889,3.0889,3.0889,3.0889,3.0889,3.0889,3.0889,3.0928,3.1318,3.1777,3.2276,3.3008,3.3318,3.3386,3.3386,3.3386,3.3386,1.4085,1.4437,0.0,0.0,0.0,0.0,0.0,0.0,1.7465,1.794,1.9359,2.0392,2.0574,2.1764,2.2588,2.2707,2.274,2.2347,2.1364,2.1391,2.1577,2.1906,2.0501,2.04,2.1893,2.0992,2.0566,2.0705,2.1168,2.1302,2.109,2.191,2.1765,2.0863,2.2306,2.2182,2.0933,2.1615,2.2119,2.2441,2.2536,2.2392,2.2151,2.2524,2.3371,2.4492,2.5279,2.5591,2.5474,2.4385,2.3876,2.3315,2.1055,2.179,2.2816,1.9256,2.0815,2.3029,2.0095,2.0283,2.1188,2.0728,2.0605,2.0635,2.0732,0.0,2.083,2.0948,0.0,2.1143,2.1503,0.0,0.0,2.2199,2.2937,2.3474,2.3479,2.4268,2.5123,2.5913,2.7373,2.833,2.8428,2.9149,2.997,3.082,3.0194,3.0087,3.085,3.0889,3.0889,3.0889,3.0889,3.0889,3.0889,3.0889,3.0889,3.0889,3.0889,3.0889,3.0889,3.0889,3.0889,3.0889,3.0889,3.0889,3.0928,3.1318,3.1777,3.2247,3.2685,3.3096,3.3386,3.3386,3.3386,3.3386,1.4676,1.5007,0.0,0.0,0.0,0.0,0.0,0.0,1.8053,1.8594,1.9271,1.9823,2.0138,2.0778,2.158,2.2543,2.2646,2.2445,2.1995,2.197,0.0,2.0877,2.0175,2.0137,2.0827,2.0741,2.0842,2.1155,2.1188,2.1331,2.1533,2.1907,2.1548,2.0654,2.1856,2.2004,2.1389,2.1991,2.1922,2.1538,2.3019,2.2756,2.1684,2.3378,2.4489,2.5205,2.5565,2.5693,2.563,2.5084,2.3926,2.2754,2.3142,2.2469,2.1377,2.0508,2.1474,2.2274,1.9936,2.0634,2.1802,2.0848,2.0781,2.0889,2.0644,2.039,2.0273,2.0527,0.0,0.0,0.0,0.0,0.0,0.0,2.2196,2.2674,2.2472,2.3574,2.4648,2.5273,2.6011,2.6939,2.8174,2.9559,3.0517,3.0859,3.0547,3.0498,3.0869,3.0889,3.0889,3.0889,3.0889,3.0889,3.0889,3.0889,3.0889,3.0889,3.0889,3.0889,3.0889,3.0889,3.0889,3.0889,3.0889,3.0889,3.0928,3.1318,3.1777,3.2237,3.2627,3.3057,3.3386,3.3386,3.3386,3.3386,1.5625,0.0,0.0,0.0,1.6972,0.0,1.7826,1.8292,1.8782,1.9171,1.9622,2.0048,2.0451,2.1305,2.2347,2.3565,2.4092,2.4152,2.3703,2.3236,2.2515,2.1443,2.0366,2.0081,2.0688,2.0706,2.0968,2.1507,2.1389,2.143,2.1553,2.1784,2.1183,1.9932,2.1048,2.1464,2.1403,2.1919,2.1879,2.1637,2.3494,2.3521,2.2625,2.4416,2.534,2.5693,2.5693,2.5693,2.5659,2.5298,2.3955,2.2676,2.4176,2.2957,2.1094,2.1729,2.2433,2.2535,2.0402,2.1152,2.2207,2.0769,2.0547,2.0625,2.0459,2.0137,2.0039,2.0498,2.0605,0.0,0.0,0.0,2.0693,2.0976,0.0,2.1875,2.1583,2.2578,2.3564,2.4154,2.4633,2.5669,2.7578,2.9158,3.0098,3.0332,3.0459,3.0664,3.0879,3.0889,3.0889,3.0889,3.0889,3.0889,3.0889,3.0889,3.0889,3.0889,3.0889,3.0889,3.0889,3.0889,3.0889,3.0889,3.0889,3.0889,3.0928,3.1318,3.1777,3.2237,3.2627,3.3057,3.3386,3.3386,3.3386,3.3386,1.7211,1.7324,0.0,1.736,1.7814,1.8343,1.887,1.9397,1.9761,1.9773,2.1191,2.2194,2.2219,2.5125,2.7085,2.7135,2.8612,2.8863,2.7248,2.5607,2.4932,2.5377,2.1802,2.0792,2.2942,2.1493,2.0968,2.1507,2.2004,2.1702,2.0655,2.1506,2.0521,1.8154,1.9884,2.0387,2.0028,2.0889,2.2189,2.3697,2.3791,2.4532,2.5516,2.5228,2.5352,2.5693,2.5693,2.5693,2.5523,2.4277,2.3821,2.3525,2.2373,2.2773,2.3428,2.2257,2.3743,2.5091,2.1974,2.1897,2.225,2.0383,1.9639,1.9453,1.9844,1.9903,2.0039,2.0498,2.0605,2.0605,2.0605,2.0605,2.0605,0.0,2.0644,0.0,0.0,2.0693,2.1035,2.1905,2.3437,2.4971,2.6318,2.7272,2.8132,2.8926,2.9375,3.0018,3.084,3.0889,3.0889,3.0889,3.0889,3.0889,3.0889,3.0889,3.0889,3.0889,3.0889,3.0889,3.0889,3.0889,3.0889,3.0889,3.0889,3.0889,3.0928,3.1318,3.1777,3.2237,3.2627,3.3057,3.3386,3.3386,3.3386,3.3386,0.0,0.0,1.8355,1.799,1.8368,1.892,1.9447,1.9673,1.9937,2.0337,2.0889,2.1378,2.1732,2.2788,2.3918,2.5015,2.5628,2.5721,2.515,2.421,2.3447,2.291,2.0908,2.0336,2.1487,2.0986,2.0779,2.0968,2.0714,2.0408,2.0062,2.0146,1.9398,1.8081,1.9821,2.0669,2.084,2.2021,2.2863,2.342,2.3694,2.4219,2.4896,2.534,2.5581,2.5693,2.5693,2.5693,2.5615,2.5201,2.4502,2.3867,2.4274,2.3555,2.2607,2.3049,2.3385,2.3421,2.2359,2.2911,2.3401,2.1654,2.1318,2.123,2.0508,2.0117,2.0039,2.0498,2.0605,2.0605,2.0605,2.0605,2.0605,0.0,0.0,2.0605,0.0,2.082,2.123,2.1837,2.3655,2.5043,2.5493,2.7324,2.8613,2.8869,2.9863,3.0605,3.0869,3.0889,3.0889,3.0889,3.0889,3.0889,3.0889,3.0889,3.0889,3.0889,3.0889,3.0889,3.0889,3.0889,3.0889,3.0889,3.0889,3.0889,3.0947,3.165,3.2061,3.2267,3.2939,3.3269,3.3386,3.3386,3.3386,3.3386,1.8296,1.8757,1.8895,1.8543,1.8932,1.9397,1.9748,1.9579,1.972,2.0592,2.0473,2.0613,2.1404,2.2035,2.2823,2.39,2.4562,2.4795,2.4589,2.3846,2.3103,2.2413,2.1107,2.0678,2.1264,2.0641,2.0394,2.0586,1.9716,1.9232,1.9159,1.894,1.8465,1.7846,1.896,2.0203,2.1503,2.2375,2.3264,2.4102,2.4375,2.4615,2.4928,2.5493,2.5523,2.5279,2.5601,2.5693,2.5693,2.5693,2.5152,2.4606,2.5445,2.4567,2.3418,2.4238,2.4069,2.3571,2.3249,2.3682,2.3857,2.2461,2.2314,2.2196,2.1064,2.0703,2.0742,2.1192,2.0928,2.0889,2.1788,2.1202,2.0762,0.0,0.0,2.0644,0.0,2.1191,2.1601,2.206,2.332,2.4427,2.5033,2.6597,2.793,2.882,2.9707,3.0391,3.0869,3.0889,3.0889,3.0889,3.0889,3.0889,3.0889,3.0889,3.0889,3.0889,3.0889,3.0889,3.0889,3.0889,3.0889,3.0889,3.0889,3.0889,3.0957,3.1846,3.2198,3.2286,3.3096,3.3386,3.3386,3.3386,3.3386,3.3386,1.8871,1.9008,1.9045,1.9045,1.9459,1.9798,1.9798,1.9236,1.9266,2.0574,2.0144,2.0204,2.1437,2.2991,2.3955,2.3955,2.5414,2.6099,2.5504,2.4506,2.3935,2.3955,2.2385,2.176,2.2321,2.0534,1.9856,2.0391,1.9082,1.8265,1.7954,1.7939,1.7753,1.7429,1.7429,1.911,2.1935,2.1935,2.3398,2.5693,2.5693,2.5664,2.565,2.5674,2.5162,2.4508,2.5396,2.5693,2.5693,2.5693,2.5693,2.5693,2.5693,2.5693,2.5693,2.5693,2.5693,2.5532,2.4684,2.4189,2.3682,2.2852,2.2637,2.2401,2.1541,2.1688,2.2129,2.2529,2.1641,2.1505,2.3877,2.2335,2.1065,0.0,0.0,2.0742,2.1132,2.1611,2.2041,2.244,2.2588,2.3252,2.4848,2.5112,2.6206,2.8615,2.8906,2.9521,3.082,3.085,3.085,3.0889,3.0889,3.0889,3.0889,3.0889,3.0889,3.0889,3.0889,3.0889,3.0889,3.0889,3.0889,3.0889,3.0889,3.0889,3.0957,3.1846,3.2198,3.2286,3.3096,3.3386,3.3386,3.3386,3.3386,3.3386,1.8586,1.9226,1.9585,1.9585,1.971,1.9798,1.9798,2.0018,2.0457,2.1208,2.1478,2.1873,2.2602,2.3065,2.333,2.333,2.3706,2.3907,2.374,2.3108,2.2904,2.331,2.2152,2.1903,2.2795,2.0696,1.9808,2.0252,1.8436,1.7497,1.7401,1.7153,1.7313,1.7852,1.7852,1.9521,2.2353,2.2353,2.364,2.5693,2.5693,2.5318,2.4801,2.5464,2.5162,2.4508,2.5396,2.5693,2.5693,2.5693,2.5693,2.5693,2.5693,2.5693,2.5693,2.5693,2.5693,2.5659,2.5435,2.5298,2.5084,2.4574,2.4437,2.4268,2.3698,2.3659,2.3799,2.3884,2.364,2.334,2.3035,2.2461,2.1807,2.1192,2.0801,2.0742,2.1132,2.1611,2.2041,2.244,2.3633,2.4232,2.3659,2.5357,2.6787,2.7425,2.8682,2.9834,3.084,3.0292,3.0243,3.0869,3.0889,3.0889,3.0889,3.0889,3.0889,3.0889,3.0889,3.0889,3.0889,3.0889,3.0889,3.0889,3.0889,3.0889,3.0957,3.1846,3.2198,3.2286,3.3096,3.3386,3.3386,3.3386,3.3386,3.3386,1.8093,1.873,1.9199,1.9384,1.9719,2.0013,2.016,2.0201,2.0603,2.1716,2.1834,2.2223,2.3294,2.3412,2.3474,2.3659,2.3679,2.3558,2.3323,2.3262,2.3263,2.3326,2.2961,2.3033,2.3598,2.1809,2.0605,2.0076,1.8373,1.7266,1.6717,1.6534,1.7002,1.7991,1.7991,1.9464,2.1991,2.2927,2.402,2.5171,2.5562,2.5415,0.0,2.5499,2.5406,2.5035,2.5508,2.5693,2.5693,2.5693,2.5693,2.5693,2.5693,2.5693,2.5693,2.5693,2.5693,2.5693,2.5693,2.5854,2.5957,2.5727,2.5952,2.6021,2.5152,2.5137,2.5283,2.5283,2.4814,2.4518,2.4961,2.3662,2.208,2.082,2.0752,2.1016,2.1455,2.1894,2.2314,2.2713,2.3643,2.3935,2.3169,2.5464,2.709,2.7285,2.822,2.9061,2.9717,2.9667,2.9823,3.0331,3.0693,3.0889,3.0889,3.0889,3.0889,3.0889,3.0889,3.0889,3.0889,3.0889,3.0889,3.0889,3.0889,3.0996,3.1221,3.1915,3.2306,3.251,3.3164,3.3386,3.3386,3.3386,3.3386,3.3386,1.7754,1.81,1.8491,1.8844,1.9667,2.0414,2.0784,2.0383,2.0614,2.2182,2.194,2.2196,2.371,2.3893,2.4014,2.4362,2.4391,2.4196,2.3745,2.4138,2.4189,2.3735,2.4145,2.442,2.4502,2.3171,2.1698,2.0069,1.8791,1.748,1.6183,1.6242,1.692,1.8069,1.8069,1.9337,2.1591,2.3503,2.441,2.4635,2.5406,2.5693,2.5693,2.5693,2.5693,2.5693,2.5693,2.5693,2.5693,2.5693,2.5693,2.5693,2.5693,2.5693,2.5693,2.5693,2.5732,2.5796,2.5796,2.6143,2.6484,2.6543,2.7145,2.7409,2.6293,2.6367,2.6666,2.6666,2.5723,2.5557,2.7656,2.5146,2.2334,2.1055,2.1289,2.1786,2.2246,2.2617,2.2937,2.3249,2.3435,0.0,2.312,2.5367,2.7002,2.7409,2.7545,2.7858,2.8428,2.909,2.953,2.9764,3.0517,3.0889,3.0889,3.0889,3.0889,3.0889,3.0889,3.0889,3.0889,3.0889,3.0889,3.0889,3.0889,3.1133,3.1553,3.2022,3.2482,3.291,3.325,3.3386,3.3386,3.3386,3.3386,3.3386,1.8552,1.8748,1.8822,1.8884,1.9933,2.0955,2.1449,2.2031,2.2531,2.2846,2.3429,2.3954,2.427,2.4278,2.4313,2.4391,2.4391,2.4362,2.4264,2.4356,2.4362,2.4264,2.4356,2.458,2.4965,2.335,2.2001,2.0966,1.9707,1.8223,1.6605,1.6982,1.7646,1.849,1.849,2.0127,2.2893,2.3594,2.4498,2.5493,2.565,2.5693,2.5693,2.5693,2.5693,2.5693,2.5693,2.5693,2.5693,2.5693,2.5693,2.5693,2.5693,2.5693,2.5693,2.5693,2.5962,2.6279,2.6279,2.6582,2.6992,2.7379,2.7585,2.7721,2.7822,2.79,2.7959,2.7959,2.7773,2.7432,2.6836,2.5273,2.364,2.2383,2.3115,2.4014,2.4466,2.4593,2.4535,2.4206,2.5156,2.5117,2.3266,2.4797,2.5971,2.604,2.6703,2.7773,2.9295,2.8846,2.918,3.0615,3.081,3.0889,3.0889,3.0889,3.0889,3.0889,3.0889,3.0889,3.0889,3.0889,3.0889,3.0889,3.0889,3.1133,3.1553,3.2022,3.2617,3.3289,3.3357,3.3386,3.3386,3.3386,3.3386,3.3386,1.8004,1.8124,1.841,1.9261,2.0326,2.1375,2.2281,2.336,2.3995,2.3752,2.4118,2.448,2.4733,2.475,2.4853,2.5064,2.5074,2.5074,2.5074,2.5074,2.5074,2.5074,2.5074,2.5181,2.541,2.4586,2.3191,2.119,2.0586,1.9189,1.708,1.7285,1.7832,1.8637,1.9543,2.0771,2.2246,2.3564,2.4473,2.5074,2.5532,2.5693,2.5693,2.5693,2.5693,2.5693,2.5693,2.5693,2.5693,2.5693,2.5693,2.5693,2.5693,2.5864,2.605,2.605,2.6377,2.6709,2.6709,2.7031,2.7428,2.7643,2.7858,2.8073,2.8252,2.8291,2.8291,2.8291,2.8291,2.79,2.6621,2.5488,2.4482,2.361,2.3828,2.4316,2.4994,2.5493,2.5698,2.5469,2.5596,2.5381,2.4524,2.4801,2.522,2.5679,2.6508,2.7568,2.8865,2.8516,2.8877,3.0194,3.0644,3.0889,3.0889,3.0889,3.0889,3.0889,3.0889,3.0889,3.0889,3.0889,3.0889,3.0889,3.0889,3.126,3.1904,3.2549,3.3057,3.3386,3.3386,3.3386,3.3386,3.3386,3.3386,3.3386,1.7803,1.792,1.8428,2.0049,2.1113,2.2098,2.3103,2.4375,2.5052,2.4606,2.4623,2.4827,2.5184,2.5229,2.5352,2.5679,2.5693,2.5693,2.5693,2.5693,2.5693,2.5693,2.5693,2.5693,2.5693,2.5693,2.4387,2.1757,2.1571,2.0254,1.7937,1.7734,1.8154,1.9093,2.0459,2.1376,2.2001,2.3581,2.442,2.4732,2.5435,2.5693,2.5693,2.5693,2.5693,2.5693,2.5693,2.5767,2.5854,2.5854,2.5854,2.5854,2.5854,2.6147,2.6523,2.6523,2.6826,2.7148,2.7148,2.7471,2.7829,2.7829,2.8073,2.8291,2.8291,2.8291,2.8291,2.8291,2.8291,2.79,2.6621,2.606,2.5581,2.4932,2.4785,2.5043,2.5806,2.6509,2.6894,2.6807,2.6206,2.582,2.5971,2.5435,2.54,2.6069,2.6664,2.7383,2.8242,2.8291,2.8691,2.9569,3.0273,3.0605,3.0605,3.0801,3.0889,3.0889,3.0889,3.0889,3.0889,3.0889,3.0889,3.0889,3.0889,3.1377,3.2257,3.3076,3.3386,3.3386,3.3386,3.3386,3.3386,3.3386,3.3386,3.3386,1.9425,1.9678,2.0107,2.1465,2.2746,2.3594,2.3711,2.481,2.5512,2.5092,2.5353,2.5604,2.5643,2.5649,2.5669,2.5708,2.5693,2.5693,2.5693,2.5693,2.5693,2.5693,2.5693,2.5693,2.5693,2.5693,2.4996,2.3555,2.2773,2.1445,1.964,1.8869,1.9189,2.0429,2.0576,2.1944,2.4079,2.3926,2.4508,2.5601,2.5679,2.5693,2.5693,2.5693,2.5693,2.5693,2.5693,2.5962,2.6328,2.6328,2.6328,2.6328,2.6328,2.6611,2.6928,2.6928,2.7266,2.7633,2.7633,2.7936,2.8232,2.8232,2.8262,2.8291,2.8291,2.8291,2.8291,2.8291,2.8291,2.79,2.6621,2.7291,2.7598,2.6396,2.7139,2.8027,2.8469,2.8606,2.8545,2.8164,2.8037,2.7705,2.6947,2.7178,2.7418,2.7506,2.7197,2.7383,2.8242,2.8291,2.8691,2.9569,2.9676,2.9725,2.9725,3.0517,3.0889,3.0889,3.0889,3.0889,3.0889,3.0889,3.0889,3.0889,3.0889,3.1377,3.2257,3.3076,3.3386,3.3386,3.3386,3.3386,3.3386,3.3386,3.3386,3.3386,1.8544,1.8631,1.9317,2.1461,2.2258,2.3142,2.4693,2.5601,2.6064,2.5903,2.5791,2.5693,2.5693,2.5693,2.5693,2.5693,2.5693,2.5693,2.5693,2.5693,2.5693,2.5693,2.5693,2.5693,2.5693,2.5693,2.5074,2.3789,2.2685,2.1377,1.9883,1.9542,2.0098,2.1407,2.2179,2.3098,2.4082,2.4674,2.524,2.5693,2.5693,2.5693,2.5693,2.5693,2.5874,2.6133,2.6133,2.6406,2.6768,2.6768,2.6768,2.6768,2.6768,2.706,2.7428,2.7428,2.7731,2.8073,2.8073,2.8164,2.8291,2.8291,2.8291,2.8291,2.8291,2.8291,2.8291,2.8291,2.8291,2.8135,2.7627,2.7529,2.7529,2.7529,2.777,2.8144,2.8818,2.9365,2.9619,2.9453,2.8984,2.8633,2.8555,2.8044,2.78,2.8054,2.7881,2.793,2.8271,2.8806,2.9246,2.9588,3.0116,3.039,3.039,3.0742,3.0889,3.0889,3.0889,3.0889,3.0889,3.0889,3.0889,3.0918,3.1435,3.1885,3.2257,3.3076,3.3386,3.3386,3.3386,3.3386,3.3386,3.3386,3.3386,3.3386,1.8284,1.8362,1.9093,2.1488,2.1881,2.2533,2.4467,2.504,2.5252,2.5252,2.495,2.5108,2.599,2.6089,2.6089,2.6089,2.6089,2.603,2.5913,2.5903,2.5845,2.5718,2.5693,2.5693,2.5693,2.5693,2.5259,2.4365,2.3076,2.1973,2.1045,2.0664,2.1191,2.2511,2.3411,2.4004,2.4424,2.5328,2.5693,2.5693,2.5693,2.5693,2.5728,2.5854,2.6123,2.6431,2.6533,2.6846,2.7207,2.7207,2.7285,2.7373,2.7246,2.75,2.7878,2.7878,2.8083,2.8291,2.8291,2.8291,2.8291,2.8291,2.8291,2.8291,2.8291,2.8291,2.8291,2.8291,2.8291,2.8291,2.8291,2.7803,2.7627,2.8359,2.8232,2.833,2.918,2.9814,3.0156,3.0029,2.9482,2.9238,2.9569,2.8787,2.8376,2.8643,2.8906,2.8945,2.8709,2.9266,2.9598,2.9598,3.0204,3.0527,3.0527,3.0762,3.0889,3.0889,3.0889,3.0889,3.0889,3.0889,3.0889,3.0928,3.169,3.2081,3.2257,3.2939,3.3279,3.3386,3.3386,3.3386,3.3386,3.3386,3.3386,3.3386,1.9431,1.968,2.0183,2.1811,2.211,2.2215,2.2489,2.2527,2.2554,2.2554,2.2554,2.3667,2.665,2.6967,2.6967,2.6967,2.6967,2.6826,2.6431,2.6387,2.6182,2.5728,2.5693,2.5693,2.5693,2.5693,2.5684,2.5689,2.4404,2.376,2.3743,2.2451,2.257,2.3792,2.3779,2.4502,2.5689,2.5684,2.5693,2.5693,2.5693,2.5693,2.5757,2.6211,2.6412,2.6445,2.6865,2.7285,2.7682,2.7682,2.7966,2.8203,2.7819,2.7976,2.8281,2.8281,2.8291,2.8291,2.8291,2.8291,2.8291,2.8291,2.8291,2.8291,2.8291,2.8291,2.8291,2.8291,2.8291,2.8291,2.8291,2.8281,2.8418,2.882,2.8879,2.9199,3.0059,3.0185,3.0039,2.9657,2.9598,2.9588,2.9598,2.9588,2.9579,2.9579,3.039,3.0478,2.9627,2.9588,2.9598,2.9598,2.9608,2.9618,2.9618,3.0488,3.0889,3.0889,3.0889,3.0889,3.0889,3.0889,3.0889,3.0918,3.1338,3.1768,3.2237,3.2627,3.3047,3.3386,3.3386,3.3386,3.3386,3.3386,3.3386,3.3386,1.8762,1.8895,1.9326,2.0757,2.1014,2.1339,2.2359,2.2775,2.2985,2.2985,2.3226,2.3758,2.4712,2.4278,2.4368,2.5402,2.5506,2.5856,2.675,2.6816,2.6621,2.6201,2.6182,2.6045,2.5718,2.5693,2.5693,2.5693,2.4434,2.3789,2.3779,2.3401,2.3877,2.5093,2.5093,2.5328,2.5693,2.5693,2.5884,2.6182,2.6182,2.6348,2.6596,2.6758,2.7002,2.7301,2.7438,2.7761,2.8122,2.8122,2.8184,2.8271,2.8161,2.821,2.8291,2.8291,2.8291,2.8291,2.8291,2.8291,2.8291,2.8291,2.8291,2.8291,2.8291,2.8291,2.8291,2.8291,2.8291,2.8291,2.8291,2.8525,2.8733,2.8869,2.9404,2.9883,3.0156,3.0469,3.0625,3.0488,3.0497,3.0497,3.0497,3.0497,3.0243,2.9647,2.9862,2.9637,2.8777,2.9852,3.0224,2.9618,3.0185,3.0497,3.0497,3.0752,3.0889,3.0889,3.0889,3.0889,3.0889,3.0889,3.0889,3.0918,3.1338,3.1768,3.2237,3.2627,3.3037,3.3386,3.3386,3.3386,3.3386,3.3386,3.3386,3.3386,1.8457,1.849,1.8788,1.9728,1.9908,2.022,2.1186,2.1577,2.177,2.177,2.2002,2.2161,2.2161,2.1645,2.2182,2.4231,2.4418,2.4978,2.6312,2.6406,2.6467,2.6615,2.6621,2.6494,2.6196,2.604,2.5952,2.5952,2.5,2.4498,2.4498,2.4498,2.4937,2.5718,2.5884,2.5952,2.5962,2.6128,2.6352,2.6621,2.6621,2.6787,2.7006,2.7197,2.7432,2.7712,2.7868,2.8093,2.8291,2.8291,2.8291,2.8291,2.8291,2.8291,2.8291,2.8291,2.8291,2.8291,2.8291,2.8291,2.8291,2.8291,2.8291,2.8291,2.8291,2.8291,2.8291,2.8291,2.8291,2.834,2.8496,2.874,2.8996,2.9346,2.9844,3.0264,3.043,3.0703,3.0771,3.0439,3.04,3.04,3.04,3.04,3.0331,3.0106,3.0097,2.9862,2.9297,2.999,3.0322,3.0106,3.0634,3.0889,3.0889,3.0889,3.0889,3.0889,3.0889,3.0889,3.0889,3.0889,3.0889,3.0908,3.1172,3.1621,3.2218,3.2482,3.29,3.3386,3.3386,3.3386,3.3386,3.3386,3.3386,3.3386,1.8551,1.8551,1.8637,1.8876,1.8923,1.9052,1.9354,1.9395,1.9395,1.9395,1.9395,1.9395,1.9395,1.9395,2.0515,2.3243,2.3599,2.4115,2.521,2.5299,2.573,2.6702,2.6734,2.6724,2.6695,2.6309,2.6166,2.6301,2.5952,2.5796,2.5796,2.5796,2.5796,2.5815,2.625,2.6435,2.6455,2.6846,2.7006,2.706,2.706,2.708,2.7148,2.7585,2.7741,2.779,2.8181,2.8291,2.8291,2.8291,2.8291,2.8291,2.8291,2.8291,2.8291,2.8291,2.8291,2.8291,2.8291,2.8291,2.8291,2.8291,2.8291,2.8291,2.8291,2.8291,2.8291,2.8291,2.8291,2.8418,2.8838,2.8918,2.9228,3.0059,3.0225,3.0391,3.083,3.0889,3.0586,2.9784,2.9686,2.9686,2.9686,2.9686,3.0009,3.0742,3.0801,3.0801,3.0801,3.0048,3.0009,3.0859,3.0889,3.0889,3.0889,3.0889,3.0889,3.0889,3.0889,3.0889,3.0889,3.0889,3.0889,3.0889,3.0889,3.1377,3.2198,3.2198,3.2666,3.3386,3.3386,3.3386,3.3386,3.3386,3.3386,3.3386,1.9147,1.9187,1.9207,1.9281,1.9294,1.9314,1.9388,1.9395,1.9395,1.9395,1.9395,1.9395,1.9395,1.9395,1.9678,2.0371,2.1479,2.2698,2.4085,2.4187,2.4164,2.4104,2.4114,2.3923,2.3579,2.3458,2.4,2.5186,2.6206,2.6684,2.6684,2.6684,2.6684,2.6693,2.6816,2.6865,2.6875,2.6947,2.7207,2.7536,2.7536,2.7731,2.7998,2.8132,2.8171,2.8181,2.8262,2.8291,2.8291,2.8291,2.8291,2.8291,2.8291,2.8291,2.8291,2.8291,2.8291,2.8291,2.8291,2.8291,2.8291,2.8291,2.8291,2.8291,2.8291,2.8291,2.8291,2.8291,2.8291,2.8418,2.8838,2.9189,2.959,3.0107,3.0498,3.0762,3.0869,3.0889,3.081,3.0634,3.0576,3.0576,3.0576,3.0576,3.0409,2.995,2.9911,2.9911,2.9911,2.9715,3.0009,3.0859,3.0889,3.0889,3.0889,3.0889,3.0889,3.0889,3.0889,3.0889,3.0889,3.0889,3.0889,3.0889,3.0889,3.1377,3.2198,3.2198,3.2666,3.3386,3.3386,3.3386,3.3386,3.3386,3.3386,3.3386,1.9361,1.9395,1.9395,1.9395,1.9395,1.9395,1.9395,1.9395,1.9395,1.9395,1.9395,1.9395,1.9395,1.9395,1.9395,1.9395,2.0119,2.123,2.2702,2.2786,2.3015,2.3458,2.3478,2.336,2.3108,2.2917,2.3475,2.4786,2.6291,2.6986,2.6986,2.6986,2.6986,2.7021,2.7217,2.7314,2.7324,2.7519,2.7734,2.7976,2.7976,2.8112,2.8291,2.8291,2.8291,2.8291,2.8291,2.8291,2.8291,2.8291,2.8291,2.8291,2.8291,2.8291,2.8291,2.8291,2.8291,2.8291,2.8291,2.8291,2.8291,2.8291,2.8291,2.8291,2.8291,2.8291,2.8291,2.8291,2.8447,2.8711,2.9141,2.957,3.0028,3.0439,3.0409,3.0458,3.083,3.0576,3.0439,3.084,3.0889,3.0889,3.0889,3.0889,3.0693,3.0234,3.0204,3.0204,3.0204,3.0204,3.04,3.0879,3.0889,3.0889,3.0889,3.0889,3.0889,3.0889,3.0889,3.0889,3.0889,3.0889,3.0889,3.0889,3.0889,3.1377,3.2198,3.2198,3.2666,3.3386,3.3386,3.3386,3.3386,3.3386,3.3386,3.3386,1.9395,1.9395,1.9395,1.9395,1.9395,1.9395,1.9395,1.9395,1.9395,1.9395,1.9395,1.9395,1.9395,1.9395,1.9395,1.9395,1.9395,1.9924,2.1202,2.128,2.1841,2.3075,2.3131,2.3131,2.3131,2.323,2.3734,2.4641,2.6368,2.7207,2.7207,2.7207,2.7207,2.7201,2.7624,2.779,2.7809,2.8171,2.8291,2.8291,2.8291,2.8291,2.8291,2.8291,2.8291,2.8291,2.8291,2.8291,2.8291,2.8291,2.8291,2.8291,2.8291,2.8291,2.8291,2.8291,2.8291,2.8291,2.8291,2.8291,2.8291,2.8291,2.8291,2.8291,2.8291,2.8291,2.831,2.8369,2.8672,2.9072,2.9598,2.9961,3.0303,3.0635,3.0204,3.0009,3.0634,3.0194,3.0077,3.0801,3.0889,3.0889,3.0889,3.0889,3.0889,3.0889,3.0889,3.0889,3.0889,3.0889,3.0889,3.0889,3.0889,3.0889,3.0889,3.0889,3.0889,3.0889,3.0889,3.0889,3.0889,3.0889,3.0889,3.0889,3.0889,3.1338,3.2101,3.2169,3.2627,3.3308,3.3367,3.3386,3.3386,3.3386,3.3386,3.3386,1.9395,1.9395,1.9395,1.9395,1.9395,1.9395,1.9395,1.9395,1.9395,1.9395,1.9395,1.9395,1.9395,1.9395,1.9395,1.9395,1.9395,1.9511,1.9729,1.9729,1.9844,2.0068,2.0068,2.0068,2.0068,2.2466,2.3798,2.3961,2.6729,2.8096,2.8096,2.8096,2.8096,2.8096,2.8164,2.822,2.8203,2.8262,2.8291,2.8291,2.8291,2.8291,2.8291,2.8291,2.8291,2.8291,2.8291,2.8291,2.8291,2.8291,2.8291,2.8291,2.8291,2.8291,2.8291,2.8291,2.8291,2.8291,2.8291,2.8291,2.8291,2.8291,2.8291,2.8291,2.8291,2.8291,2.8398,2.875,2.885,2.916,2.9951,3.0156,3.0107,2.9852,3.0322,3.0497,2.9891,3.0331,3.0732,3.0869,3.0889,3.0889,3.0889,3.0889,3.0889,3.0889,3.0889,3.0889,3.0889,3.0889,3.0889,3.0889,3.0889,3.0889,3.0889,3.0889,3.0889,3.0889,3.0889,3.0889,3.0889,3.0889,3.0889,3.0889,3.0889,3.1162,3.165,3.2042,3.2482,3.293,3.3281,3.3386,3.3386,3.3386,3.3386,3.3386,1.9395,1.9395,1.9395,1.9395,1.9395,1.9395,1.9395,1.9395,1.9395,1.9395,1.9395,1.9395,1.9395,1.9395,1.9395,1.9395,1.9395,1.9395,1.9395,1.9395,1.9395,1.9395,1.9395,1.9395,1.9395,2.2294,2.3794,2.3794,2.6807,2.8291,2.8291,2.8291,2.8291,2.8291,2.8291,2.8291,2.8291,2.8291,2.8291,2.8291,2.8291,2.8291,2.8291,2.8291,2.8291,2.8291,2.8291,2.8291,2.8291,2.8291,2.8291,2.8291,2.8291,2.8291,2.8291,2.8291,2.8291,2.8291,2.8291,2.8291,2.8291,2.8291,2.8291,2.8291,2.8291,2.8467,2.8682,2.885,2.9259,2.9726,3.0127,3.04,3.0508,3.0341,3.0253,3.0234,3.0302,3.0253,3.0351,3.083,3.0889,3.0889,3.0889,3.0889,3.0889,3.0889,3.0889,3.0889,3.0889,3.0889,3.0889,3.0889,3.0889,3.0889,3.0889,3.0889,3.0889,3.0889,3.0889,3.0889,3.0889,3.0889,3.0889,3.0889,3.0889,3.1133,3.1553,3.2022,3.2443,3.2832,3.322,3.3386,3.3386,3.3386,3.3386,3.3386,1.9395,1.9395,1.9395,1.9395,1.9395,1.9395,1.9395,1.9395,1.9395,1.9395,1.9395,1.9395,1.9395,1.9395,1.9395,1.9395,1.9395,1.9395,1.9395,1.9395,1.9395,1.9395,1.9395,1.9395,1.9395,2.1955,2.3291,2.3291,2.63,2.778,2.7816,2.8147,2.8291,2.8291,2.8291,2.8291,2.8291,2.8291,2.8291,2.8291,2.8291,2.8291,2.8291,2.8291,2.8291,2.8291,2.8291,2.8291,2.8291,2.8291,2.8291,2.8291,2.8291,2.8291,2.8291,2.8291,2.8291,2.8291,2.8291,2.8291,2.8291,2.8291,2.8291,2.831,2.8418,2.8682,2.8947,2.9142,2.9736,3.0234,3.0332,3.0644,3.082,3.0615,3.0214,3.0067,3.0518,3.0204,3.0155,3.081,3.0889,3.0889,3.0889,3.0889,3.0889,3.0889,3.0889,3.0889,3.0889,3.0889,3.0889,3.0889,3.0889,3.0889,3.0889,3.0889,3.0889,3.0889,3.0889,3.0889,3.0889,3.0889,3.0889,3.0889,3.0889,3.1074,3.1406,3.1836,3.2266,3.2695,3.3115,3.3308,3.3386,3.3386,3.3386,3.3386,1.9395,1.9395,1.9395,1.9395,1.9395,1.9395,1.9395,1.9395,1.9395,1.9395,1.9395,1.9395,1.9395,1.9395,1.9395,1.9395,1.9395,1.9395,1.9395,1.9395,1.9395,1.9395,1.9395,1.9395,1.9395,2.0952,2.1756,2.1756,2.4793,2.6264,2.6291,2.7672,2.8291,2.8291,2.8291,2.8291,2.8291,2.8291,2.8291,2.8291,2.8291,2.8291,2.8291,2.8291,2.8291,2.8291,2.8291,2.8291,2.8291,2.8291,2.8291,2.8291,2.8291,2.8291,2.8291,2.8291,2.8291,2.8291,2.8291,2.8291,2.8291,2.8291,2.8291,2.8398,2.8779,2.8869,2.9113,2.9941,3.0156,3.0332,3.0762,3.0869,3.0654,2.9833,3.0331,3.0527,2.9803,3.0351,3.082,3.0889,3.0889,3.0889,3.0889,3.0889,3.0889,3.0889,3.0889,3.0889,3.0889,3.0889,3.0889,3.0889,3.0889,3.0889,3.0889,3.0889,3.0889,3.0889,3.0889,3.0889,3.0889,3.0889,3.0889,3.0889,3.0889,3.0908,3.0976,3.1396,3.1826,3.2286,3.2676,3.3076,3.3386,3.3386,3.3386,3.3386,1.9395,1.9395,1.9395,1.9395,1.9395,1.9395,1.9395,1.9395,1.9395,1.9395,1.9395,1.9395,1.9395,1.9395,1.9395,1.9395,1.9395,1.9395,1.9395,1.9395,1.9395,1.9395,1.9395,1.9395,1.9395,2.0838,2.1614,2.1614,2.3646,2.5151,2.6127,2.6662,2.7421,2.8291,2.8291,2.8291,2.8291,2.8291,2.8291,2.8291,2.8291,2.8291,2.8291,2.8291,2.8291,2.8291,2.8291,2.8291,2.8291,2.8291,2.8291,2.8291,2.8291,2.8291,2.8291,2.8291,2.8291,2.8291,2.8291,2.8291,2.8359,2.8613,2.8682,2.8799,2.9219,2.9531,2.9805,3.0127,3.043,3.0684,3.0859,3.0889,3.0781,3.0468,3.0674,3.0771,3.0439,3.0674,3.0889,3.0889,3.0889,3.0889,3.0889,3.0889,3.0889,3.0889,3.0889,3.0889,3.0889,3.0889,3.0889,3.0889,3.0889,3.0889,3.0889,3.0889,3.0889,3.0889,3.0889,3.0889,3.0889,3.0889,3.0889,3.0889,3.0889,3.0889,3.0928,3.1318,3.1777,3.2237,3.2627,3.3057,3.3386,3.3386,3.3386,3.3386,1.9307,1.9395,1.9395,1.9395,1.9395,1.9395,1.9395,1.9395,1.9395,1.9395,1.9395,1.9395,1.9395,1.9395,1.9395,1.9395,1.9395,1.9395,1.9395,1.9395,1.9395,1.9395,1.9395,1.9395,1.9395,2.0393,2.0923,2.0923,2.2399,2.3905,2.538,2.538,2.6191,2.7582,2.7087,2.6888,2.6916,2.7394,2.7609,2.7645,2.8121,2.8291,2.8291,2.8291,2.8291,2.8291,2.8291,2.8291,2.8291,2.8291,2.8291,2.8291,2.8291,2.8291,2.8291,2.8291,2.8291,2.832,2.8447,2.8496,2.8555,2.882,2.9023,2.9238,2.9696,2.999,3.0234,3.0381,3.0674,3.0889,3.0889,3.0889,3.0889,3.0889,3.0889,3.0889,3.0889,3.0889,3.0889,3.0889,3.0889,3.0889,3.0889,3.0889,3.0889,3.0889,3.0889,3.0889,3.0889,3.0889,3.0889,3.0889,3.0889,3.0889,3.0889,3.0889,3.0889,3.0889,3.0889,3.0889,3.0889,3.0889,3.0889,3.0889,3.0889,3.0889,3.0918,3.1201,3.1572,3.2012,3.2432,3.2861,3.3242,3.3338,3.3386,3.3386,1.9062,1.9395,1.9395,1.9395,1.9395,1.9395,1.9395,1.9395,1.9395,1.9395,1.9395,1.9395,1.9395,1.9395,1.9395,1.9395,1.9395,1.9395,1.9395,1.9395,1.9395,1.9395,1.9395,1.9395,1.9395,1.9395,1.9395,1.9395,2.0866,2.2343,2.3766,2.3766,2.4599,2.6018,2.4488,2.3794,2.3933,2.5462,2.61,2.6236,2.7699,2.8291,2.8291,2.8291,2.8291,2.8291,2.8291,2.8291,2.8291,2.8291,2.8291,2.8291,2.8291,2.8291,2.8291,2.8291,2.8291,2.8389,2.8781,2.8898,2.8898,2.8898,2.9258,2.9715,3.0107,3.0205,3.0332,3.0801,3.0889,3.0889,3.0889,3.0889,3.0889,3.0889,3.0889,3.0889,3.0889,3.0889,3.0889,3.0889,3.0889,3.0889,3.0889,3.0889,3.0889,3.0889,3.0889,3.0889,3.0889,3.0889,3.0889,3.0889,3.0889,3.0889,3.0889,3.0889,3.0889,3.0889,3.0889,3.0889,3.0889,3.0889,3.0889,3.0889,3.0889,3.0889,3.0889,3.0889,3.1133,3.1562,3.2032,3.2452,3.2842,3.324,3.3386,3.3386,1.7624,1.8642,1.9395,1.9395,1.9395,1.9395,1.9395,1.9395,1.9395,1.9395,1.9395,1.9395,1.9395,1.9395,1.9395,1.9395,1.9395,1.9395,1.9395,1.9395,1.9395,1.9395,1.9395,1.9395,1.9395,1.9395,1.9395,1.9395,1.9844,2.0809,2.2258,2.2258,2.3067,2.4461,2.4017,2.4405,2.5426,2.59,2.6689,2.7672,2.8121,2.8291,2.8291,2.8291,2.8291,2.8291,2.8291,2.8291,2.8291,2.8291,2.8291,2.8291,2.8291,2.8291,2.8291,2.8291,2.8506,2.876,2.8859,2.9365,2.9814,2.9814,2.9912,3.0127,3.0576,3.0684,3.0723,3.0859,3.0889,3.0889,3.0889,3.0889,3.0889,3.0889,3.0889,3.0889,3.0889,3.0889,3.0889,3.0889,3.0889,3.0889,3.0889,3.0889,3.0889,3.0889,3.0889,3.0889,3.0889,3.0889,3.0889,3.0889,3.0889,3.0889,3.0889,3.0889,3.0889,3.0889,3.0889,3.0889,3.0889,3.0889,3.0889,3.0889,3.0889,3.0889,3.0889,3.0889,3.1133,3.1562,3.2032,3.2452,3.2842,3.324,3.3386,3.3386,1.6879,1.8286,1.9395,1.9395,1.9395,1.9395,1.9395,1.9395,1.9395,1.9395,1.9395,1.9395,1.9395,1.9395,1.9395,1.9395,1.9395,1.9395,1.9395,1.9395,1.9395,1.9395,1.9395,1.9395,1.9395,1.9395,1.9395,1.9395,1.9395,2.0141,2.1586,2.1002,2.1508,2.2898,2.2322,2.2576,2.3515,2.471,2.5709,2.6608,2.7816,2.8291,2.8291,2.8291,2.8291,2.8291,2.8291,2.8291,2.8291,2.8291,2.8291,2.8291,2.8291,2.8408,2.8545,2.8545,2.8848,2.9209,2.9375,2.9805,3.0244,3.043,3.0469,3.0547,3.083,3.0889,3.0889,3.0889,3.0889,3.0889,3.0889,3.0889,3.0889,3.0889,3.0889,3.0889,3.0889,3.0889,3.0889,3.0889,3.0889,3.0889,3.0889,3.0889,3.0889,3.0889,3.0889,3.0889,3.0889,3.0889,3.0889,3.0889,3.0889,3.0889,3.0889,3.0889,3.0889,3.0889,3.0889,3.0889,3.0889,3.0889,3.0889,3.0889,3.0889,3.0889,3.0889,3.0889,3.1035,3.1318,3.1748,3.2178,3.2598,3.3018,3.325,3.3386,1.6491,1.8112,1.926,1.9439,1.9475,1.9475,1.9475,1.9475,1.9475,1.9475,1.9448,1.9435,1.9435,1.9408,1.9395,1.9395,1.9395,1.9395,1.9395,1.9395,1.9395,1.9395,1.9395,1.9395,1.9395,1.9395,1.9395,1.9395,1.9395,2.009,2.1358,2.004,2.0119,2.1337,2.0011,1.9482,1.9758,2.2456,2.3682,2.4044,2.678,2.7897,2.7897,2.804,2.8094,2.8121,2.8264,2.8291,2.8291,2.8291,2.831,2.835,2.835,2.8633,2.8947,2.8947,2.9287,2.9735,3.0098,3.0225,3.0361,3.0781,3.0889,3.0889,3.0889,3.0889,3.0889,3.0889,3.0889,3.0889,3.0889,3.0889,3.0889,3.0889,3.0889,3.0889,3.0889,3.0889,3.0889,3.0889,3.0889,3.0889,3.0889,3.0889,3.0889,3.0889,3.0889,3.0889,3.0889,3.0889,3.0889,3.0889,3.0889,3.0889,3.0889,3.0889,3.0889,3.0889,3.0889,3.0889,3.0889,3.0889,3.0889,3.0889,3.0889,3.0889,3.0889,3.0889,3.0889,3.0928,3.1348,3.1787,3.2247,3.2637,3.3057,3.3386,1.5093,1.6723,1.8307,1.9754,2.0017,2.0017,2.0017,2.0017,2.0017,2.0017,1.9846,1.9706,1.9706,1.9535,1.9395,1.9395,1.9395,1.9395,1.9395,1.9395,1.9395,1.9395,1.9395,1.9395,1.9395,1.9395,1.9395,1.9395,1.9395,1.9562,1.9873,1.954,1.9562,1.9866,1.9533,2.0033,2.1173,2.1813,2.273,2.385,2.4516,2.4774,2.4912,2.6127,2.6572,2.6744,2.7897,2.8291,2.8291,2.8291,2.8506,2.8779,2.8779,2.9082,2.9461,2.9461,2.9726,3.0078,3.0176,3.0459,3.0762,3.0869,3.0889,3.0889,3.0889,3.0889,3.0889,3.0889,3.0889,3.0889,3.0889,3.0889,3.0889,3.0889,3.0889,3.0889,3.0889,3.0889,3.0889,3.0889,3.0889,3.0889,3.0889,3.0889,3.0889,3.0889,3.0889,3.0889,3.0889,3.0889,3.0889,3.0889,3.0889,3.0889,3.0889,3.0889,3.0889,3.0889,3.0889,3.0889,3.0889,3.0889,3.0889,3.0889,3.0889,3.0889,3.0889,3.0889,3.0889,3.0928,3.1348,3.1787,3.2247,3.2637,3.3057,3.3386,1.4783,1.64,1.807,1.9891,2.0204,2.0204,2.0204,2.0204,2.0204,2.0204,2.007,1.9977,1.9977,1.9873,1.978,1.978,1.978,1.972,1.9615,1.9602,1.9542,1.9401,1.9395,1.9395,1.9395,1.9395,1.9395,1.9395,1.9395,1.9395,1.9395,1.9395,1.9395,1.9395,1.9395,1.9844,2.0587,2.1309,2.206,2.2814,2.3515,2.3794,2.3877,2.471,2.5462,2.6236,2.7203,2.8139,2.8933,2.8933,2.9053,2.9228,2.9228,2.9521,2.9891,2.9891,3.0185,3.0527,3.0527,3.0703,3.0889,3.0889,3.0889,3.0889,3.0889,3.0889,3.0889,3.0889,3.0889,3.0889,3.0889,3.0889,3.0889,3.0889,3.0889,3.0889,3.0889,3.0889,3.0889,3.0889,3.0889,3.0889,3.0889,3.0889,3.0889,3.0889,3.0889,3.0889,3.0889,3.0889,3.0889,3.0889,3.0889,3.0889,3.0889,3.0889,3.0889,3.0889,3.0889,3.0889,3.0889,3.0889,3.0889,3.0889,3.0889,3.0889,3.0889,3.0889,3.0889,3.0918,3.1133,3.1484,3.1904,3.2334,3.2891,3.3386,1.4959,1.64,1.7942,1.9994,2.035,2.035,2.035,2.035,2.035,2.035,2.031,2.0277,2.0277,2.023,2.0204,2.0204,2.0204,2.0104,1.9887,1.9873,1.9766,1.9555,1.9542,1.9542,1.9542,1.9542,1.9495,1.9395,1.9395,1.9395,1.9395,1.9395,1.9395,1.9395,1.9395,1.9395,1.9482,2.0702,2.126,2.139,2.2626,2.3138,2.3222,2.3477,2.4376,2.5561,2.6156,2.7566,2.9215,2.9514,2.9647,2.9706,2.9706,2.9999,3.0322,3.0322,3.0596,3.0889,3.0889,3.0889,3.0889,3.0889,3.0889,3.0889,3.0889,3.0889,3.0889,3.0889,3.0889,3.0889,3.0889,3.0889,3.0889,3.0889,3.0889,3.0889,3.0889,3.0889,3.0889,3.0889,3.0889,3.0889,3.0889,3.0889,3.0889,3.0889,3.0889,3.0889,3.0889,3.0889,3.0889,3.0889,3.0889,3.0889,3.0889,3.0889,3.0889,3.0889,3.0889,3.0889,3.0889,3.0889,3.0889,3.0889,3.0889,3.0889,3.0889,3.0889,3.0889,3.0889,3.0889,3.1191,3.1689,3.2197,3.2822,3.3386,1.4993,1.5819,1.7024,2.0395,2.0995,2.0995,2.0995,2.0995,2.0995,2.0995,2.0775,2.0615,2.0615,2.0357,2.0204,2.0204,2.0204,2.0184,2.0144,2.0144,2.0124,2.0084,2.0084,2.0084,2.0084,2.0084,1.9867,1.9395,1.9395,1.9395,1.9395,1.9395,1.9395,1.9395,1.9395,1.9395,1.9424,1.962,1.982,2.0051,2.0257,2.0468,2.0845,2.2164,2.2807,2.316,2.4501,2.6028,2.7644,2.9103,2.9843,3.0107,3.0107,3.043,3.0801,3.0801,3.084,3.0889,3.0889,3.0889,3.0889,3.0889,3.0889,3.0889,3.0889,3.0889,3.0889,3.0889,3.0889,3.0889,3.0889,3.0889,3.0889,3.0889,3.0889,3.0889,3.0889,3.0889,3.0889,3.0889,3.0889,3.0889,3.0889,3.0889,3.0889,3.0889,3.0889,3.0889,3.0889,3.0889,3.0889,3.0889,3.0889,3.0889,3.0889,3.0889,3.0889,3.0889,3.0889,3.0889,3.0889,3.0889,3.0889,3.0889,3.0889,3.0889,3.0889,3.0889,3.0889,3.0889,3.0889,3.1377,3.2208,3.2969,3.333,3.3386,1.3856,1.4355,1.5158,1.774,1.8998,1.9642,1.9642,2.0456,2.1109,2.1109,2.0995,2.0915,2.0915,2.0802,2.0691,2.0691,2.0691,2.0655,2.0494,2.0481,2.0408,2.021,2.0204,2.0204,2.0204,2.0204,2.0077,1.9853,1.9853,1.9853,1.9853,1.9853,1.9853,1.9853,1.9853,1.9853,1.9853,1.9853,1.9927,2.001,2.001,2.0084,2.0264,2.0969,2.1744,2.2706,2.4426,2.6256,2.7923,2.867,2.967,3.0586,3.0586,3.0723,3.0889,3.0889,3.0889,3.0889,3.0889,3.0889,3.0889,3.0889,3.0889,3.0889,3.0889,3.0889,3.0889,3.0889,3.0889,3.0889,3.0889,3.0889,3.0889,3.0889,3.0889,3.0889,3.0889,3.0889,3.0889,3.0889,3.0889,3.0889,3.0889,3.0889,3.0889,3.0889,3.0889,3.0889,3.0889,3.0889,3.0889,3.0889,3.0889,3.0889,3.0889,3.0889,3.0889,3.0889,3.0889,3.0889,3.0889,3.0889,3.0889,3.0889,3.0889,3.0889,3.0889,3.0889,3.0889,3.0889,3.0889,3.1446,3.2276,3.2842,3.3223,3.3386]},{"header":{"parameterUnit":"m.s-1","parameterCategory":1,"la1":30.6,"la2":28.766,"lo1":-90.7593,"lo2":-88.6598,"dy":0.0162,"dx":0.0183,"nx":116,"ny":114,"refTime":"2023-09-17T18:00:00:Z","depth":0,"parameterNumber":3,"parameterNumberName":"V-component_of_WINDS"},"data":[0.0,0.0,0.0,0.0,0.0,0.0,0.0,0.0,0.0,0.0,0.0,0.0,0.0,0.0,0.0,0.0,0.0,0.0,0.0,0.0,0.0,0.0,0.0,0.0,0.0,0.0,0.0,0.0,0.0,0.0,0.0,0.0,0.0,0.0,0.0,0.0,0.0,0.0,0.0,0.0,0.0,0.0,0.0,0.0,0.0,0.0,0.0,0.0,0.0,0.0,0.0,0.0,0.0,0.0,0.0,0.0,0.0,0.0,0.0,0.0,0.0,0.0,0.0,0.0,0.0,0.0,0.0,0.0,0.0,0.0,0.0,0.0,0.0,0.0,0.0,0.0,0.0,0.0,0.0,0.0,0.0,0.0,0.0,0.0,0.0,0.0,0.0,0.0,0.0,0.0,0.0,0.0,0.0,0.0,0.0,0.0,0.0,0.0,0.0,0.0,0.0,0.0,0.0,0.0,0.0,0.0,0.0,0.0,0.0,0.0,0.0,0.0,0.0,0.0,0.0,0.0,0.0,0.0,0.0,0.0,0.0,0.0,0.0,0.0,0.0,0.0,0.0,0.0,0.0,0.0,0.0,0.0,0.0,0.0,0.0,0.0,0.0,0.0,0.0,0.0,0.0,0.0,0.0,0.0,0.0,0.0,0.0,0.0,0.0,0.0,0.0,0.0,0.0,0.0,0.0,0.0,0.0,0.0,0.0,0.0,0.0,0.0,0.0,0.0,0.0,0.0,0.0,0.0,0.0,0.0,0.0,0.0,0.0,0.0,0.0,0.0,0.0,0.0,0.0,0.0,0.0,0.0,0.0,0.0,0.0,0.0,0.0,0.0,0.0,0.0,0.0,0.0,0.0,0.0,0.0,0.0,0.0,0.0,0.0,0.0,0.0,0.0,0.0,0.0,0.0,0.0,0.0,0.0,0.0,0.0,0.0,0.0,0.0,0.0,0.0,0.0,0.0,0.0,0.0,0.0,0.0,0.0,0.0,0.0,0.0,0.0,0.0,0.0,0.0,0.0,0.0,0.0,0.0,0.0,0.0,0.0,0.0,0.0,0.0,0.0,0.0,0.0,0.0,0.0,0.0,0.0,0.0,0.0,0.0,0.0,0.0,0.0,0.0,0.0,0.0,0.0,0.0,0.0,0.0,0.0,0.0,0.0,0.0,0.0,0.0,0.0,0.0,0.0,0.0,0.0,0.0,0.0,0.0,0.0,0.0,0.0,0.0,0.0,0.0,0.0,0.0,0.0,0.0,0.0,0.0,0.0,0.0,0.0,0.0,0.0,0.0,0.0,0.0,0.0,0.0,0.0,0.0,0.0,0.0,0.0,0.0,0.0,0.0,0.0,0.0,0.0,0.0,0.0,0.0,0.0,0.0,0.0,0.0,0.0,0.0,0.0,0.0,0.0,0.0,0.0,0.0,0.0,0.0,0.0,0.0,0.0,0.0,0.0,0.0,0.0,0.0,0.0,0.0,0.0,0.0,0.0,0.0,0.0,0.0,0.0,0.0,0.0,0.0,0.0,0.0,0.0,0.0,0.0,0.0,0.0,0.0,0.0,0.0,0.0,0.0,0.0,0.0,0.0,0.0,0.0,0.0,0.0,0.0,0.0,0.0,0.0,0.0,0.0,0.0,0.0,0.0,0.0,0.0,0.0,0.0,0.0,0.0,0.0,0.0,0.0,0.0,0.0,0.0,0.0,0.0,0.0,0.0,0.0,0.0,0.0,0.0,0.0,0.0,0.0,0.0,0.0,0.0,0.0,0.0,0.0,0.0,0.0,0.0,0.0,0.0,0.0,0.0,0.0,0.0,0.0,0.0,0.0,0.0,0.0,0.0,0.0,0.0,0.0,0.0,0.0,0.0,0.0,0.0,0.0,0.0,0.0,0.0,0.0,0.0,0.0,0.0,0.0,0.0,0.0,0.0,0.0,0.0,0.0,0.0,0.0,0.0,0.0,0.0,0.0,0.0,0.0,0.0,0.0,0.0,0.0,0.0,0.0,0.0,0.0,0.0,0.0,0.0,0.0,0.0,0.0,0.0,0.0,0.0,0.0,0.0,0.0,0.0,0.0,0.0,0.0,0.0,0.0,0.0,0.0,0.0,0.0,0.0,0.0,0.0,0.0,0.0,0.0,0.0,0.0,0.0,0.0,0.0,0.0,0.0,0.0,0.0,0.0,0.0,0.0,0.0,0.0,0.0,0.0,0.0,0.0,0.0,0.0,0.0,0.0,0.0,0.0,0.0,0.0,0.0,0.0,0.0,0.0,0.0,0.0,0.0,0.0,0.0,0.0,0.0,0.0,0.0,0.0,0.0,0.0,0.0,0.0,0.0,0.0,0.0,0.0,0.0,0.0,0.0,0.0,0.0,0.0,0.0,0.0,0.0,0.0,0.0,0.0,0.0,0.0,0.0,0.0,0.0,0.0,0.0,0.0,0.0,0.0,0.0,0.0,0.0,0.0,0.0,0.0,0.0,0.0,0.0,0.0,0.0,0.0,0.0,0.0,0.0,0.0,0.0,0.0,0.0,0.0,0.0,0.0,0.0,0.0,0.0,0.0,0.0,0.0,0.0,0.0,0.0,0.0,0.0,0.0,0.0,0.0,0.0,0.0,0.0,0.0,0.0,0.0,0.0,0.0,0.0,0.0,0.0,0.0,0.0,0.0,0.0,0.0,0.0,0.0,0.0,0.0,0.0,0.0,0.0,0.0,0.0,0.0,0.0,0.0,0.0,0.0,0.0,0.0,0.0,0.0,0.0,0.0,0.0,0.0,0.0,0.0,0.0,0.0,0.0,0.0,0.0,0.0,0.0,0.0,0.0,0.0,0.0,0.0,0.0,0.0,0.0,0.0,0.0,0.0,0.0,0.0,0.0,0.0,0.0,0.0,0.0,0.0,0.0,0.0,0.0,0.0,0.0,0.0,0.0,0.0,0.0,0.0,0.0,0.0,0.0,0.0,0.0,0.0,0.0,0.0,0.0,0.0,0.0,0.0,0.0,0.0,0.0,0.0,0.0,0.0,0.0,0.0,0.0,0.0,0.0,0.0,0.0,0.0,0.0,0.0,0.0,0.0,0.0,0.0,0.0,0.0,0.0,0.0,0.0,0.0,0.0,0.0,0.0,0.0,0.0,0.0,0.0,0.0,0.0,0.0,0.0,0.0,0.0,0.0,0.0,0.0,0.0,0.0,0.0,0.0,0.0,0.0,0.0,0.0,0.0,0.0,0.0,0.0,0.0,0.0,0.0,0.0,0.0,0.0,0.0,0.0,0.0,0.0,0.0,0.0,0.0,0.0,0.0,0.0,0.0,0.0,0.0,0.0,0.0,0.0,0.0,0.0,0.0,0.0,0.0,0.0,0.0,0.0,0.0,0.0,0.0,0.0,0.0,0.0,0.0,0.0,0.0,0.0,0.0,0.0,0.0,0.0,0.0,0.0,0.0,0.0,0.0,0.0,0.0,0.0,0.0,0.0,0.0,0.0,0.0,0.0,0.0,0.0,0.0,0.0,0.0,0.0,0.0,0.0,0.0,0.0,0.0,0.0,0.0,0.0,0.0,0.0,0.0,0.0,0.0,0.0,0.0,0.0,0.0,0.0,0.0,0.0,0.0,0.0,0.0,0.0,0.0,0.0,0.0,0.0,0.0,0.0,0.0,0.0,0.0,0.0,0.0,0.0,0.0,0.0,0.0,0.0,0.0,0.0,0.0,0.0,0.0,0.0,0.0,0.0,0.0,0.0,0.0,0.0,0.0,0.0,0.0,0.0,0.0,0.0,0.0,0.0,0.0,0.0,0.0,0.0,0.0,0.0,0.0,0.0,0.0,0.0,0.0,0.0,0.0,0.0,0.0,0.0,0.0,0.0,0.0,0.0,0.0,0.0,0.0,0.0,0.0,0.0,0.0,0.0,0.0,0.0,0.0,0.0,0.0,0.0,0.0,0.0,0.0,0.0,0.0,0.0,0.0,0.0,0.0,0.0,0.0,0.0,0.0,0.0,0.0,0.0,0.0,0.0,0.0,0.0,0.0,0.0,0.0,0.0,0.0,0.0,0.0,0.0,0.0,0.0,0.0,0.0,0.0,0.0,0.0,0.0,0.0,0.0,0.0,0.0,0.0,0.0,0.0,0.0,0.0,0.0,0.0,0.0,0.0,0.0,0.0,0.0,0.0,0.0,0.0,0.0,0.0,0.0,0.0,0.0,0.0,0.0,0.0,0.0,0.0,0.0,0.0,0.0,0.0,0.0,0.0,0.0,0.0,0.0,0.0,0.0,0.0,0.0,0.0,0.0,0.0,0.0,0.0,0.0,0.0,0.0,0.0,0.0,0.0,0.0,0.0,0.0,0.0,0.0,0.0,0.0,0.0,0.0,0.0,0.0,0.0,0.0,0.0,0.0,0.0,0.0,0.0,0.0,0.0,0.0,0.0,0.0,0.0,0.0,0.0,0.0,0.0,0.0,0.0,0.0,0.0,0.0,0.0,0.0,0.0,0.0,0.0,0.0,0.0,0.0,0.0,0.0,0.0,0.0,0.0,0.0,0.0,0.0,0.0,0.0,0.0,0.0,0.0,0.0,0.0,0.0,0.0,0.0,0.0,0.0,0.0,0.0,0.0,0.0,0.0,0.0,0.0,0.0,0.0,0.0,0.0,0.0,0.0,0.0,0.0,0.0,0.0,0.0,0.0,0.0,0.0,0.0,0.0,0.0,0.0,0.0,0.0,0.0,0.0,0.0,0.0,0.0,0.0,0.0,0.0,0.0,0.0,0.0,0.0,0.0,0.0,0.0,0.0,0.0,0.0,0.0,0.0,0.0,0.0,0.0,0.0,0.0,0.0,0.0,0.0,0.0,0.0,0.0,0.0,0.0,0.0,0.0,0.0,0.0,0.0,0.0,0.0,0.0,0.0,0.0,0.0,0.0,0.0,0.0,0.0,0.0,0.0,0.0,0.0,0.0,0.0,0.0,0.0,0.0,0.0,0.0,0.0,0.0,0.0,0.0,0.0,0.0,0.0,0.0,0.0,0.0,0.0,0.0,0.0,0.0,0.0,0.0,0.0,0.0,0.0,0.0,0.0,0.0,0.0,0.0,0.0,0.0,0.0,0.0,0.0,0.0,0.0,0.0,0.0,0.0,0.0,0.0,0.0,0.0,0.0,0.0,0.0,0.0,0.0,0.0,0.0,0.0,0.0,0.0,0.0,0.0,0.0,0.0,0.0,0.0,0.0,0.0,0.0,0.0,0.0,0.0,0.0,0.0,0.0,0.0,0.0,0.0,0.0,0.0,0.0,0.0,0.0,0.0,0.0,0.0,0.0,0.0,0.0,0.0,0.0,0.0,0.0,0.0,0.0,0.0,0.0,0.0,0.0,0.0,0.0,0.0,0.0,0.0,0.0,0.0,0.0,0.0,0.0,0.0,0.0,0.0,0.0,0.0,0.0,0.0,0.0,0.0,0.0,0.0,0.0,0.0,0.0,0.0,0.0,0.0,0.0,0.0,0.0,0.0,0.0,0.0,0.0,0.0,0.0,0.0,0.0,0.0,0.0,0.0,0.0,0.0,0.0,0.0,0.0,0.0,0.0,0.0,0.0,0.0,0.0,0.0,0.0,0.0,0.0,0.0,0.0,0.0,0.0,0.0,0.0,0.0,0.0,0.0,0.0,0.0,0.0,0.0,0.0,0.0,0.0,0.0,0.0,0.0,0.0,0.0,0.0,0.0,0.0,0.0,0.0,0.0,0.0,0.0,0.0,0.0,0.0,0.0,0.0,0.0,0.0,0.0,0.0,0.0,0.0,0.0,0.0,0.0,0.0,0.0,0.0,0.0,0.0,0.0,0.0,0.0,0.0,0.0,0.0,0.0,0.0,0.0,0.0,0.0,0.0,0.0,0.0,0.0,0.0,0.0,0.0,0.0,0.0,0.0,0.0,0.0,0.0,0.0,0.0,0.0,0.0,0.0,0.0,0.0,0.0,0.0,0.0,0.0,0.0,0.0,0.0,0.0,0.0,0.0,0.0,0.0,0.0,0.0,0.0,0.0,0.0,0.0,0.0,0.0,0.0,0.0,0.0,0.0,0.0,0.0,0.0,0.0,0.0,0.0,0.0,0.0,0.0,0.0,2.9056,2.753,0.0,0.0,0.0,0.0,0.0,0.0,0.0,0.0,0.0,0.0,0.0,0.0,0.0,0.0,0.0,0.0,0.0,0.0,0.0,0.0,0.0,0.0,0.0,0.0,0.0,0.0,0.0,0.0,0.0,0.0,0.0,0.0,0.0,0.0,0.0,0.0,0.0,1.8865,1.9987,2.1272,2.2685,2.2303,2.1467,2.0287,0.0,0.0,0.0,0.0,0.0,0.0,0.0,0.0,0.0,0.0,0.0,0.0,0.0,0.0,0.0,0.0,0.0,0.0,0.0,0.0,0.0,0.0,0.0,0.0,0.0,0.0,0.0,0.0,0.0,0.0,0.0,0.0,0.0,0.0,0.0,0.0,0.0,0.0,0.0,0.0,0.0,0.0,0.0,0.0,0.0,0.0,0.0,0.0,0.0,0.0,0.0,0.0,0.0,0.0,0.0,0.0,0.0,0.0,0.0,0.0,0.0,0.0,0.0,0.0,0.0,0.0,0.0,0.0,0.0,0.0,3.0672,2.9505,0.0,0.0,0.0,0.0,0.0,0.0,0.0,0.0,0.0,0.0,0.0,0.0,0.0,0.0,0.0,0.0,0.0,0.0,0.0,0.0,0.0,0.0,0.0,1.3425,1.3832,1.4352,1.489,1.5517,0.0,0.0,0.0,0.0,0.0,0.0,0.0,1.8511,1.9143,2.0217,2.2134,2.4079,2.5981,2.5981,2.4671,2.23,2.139,0.0,0.0,0.0,0.0,0.0,0.0,0.0,0.0,0.0,0.0,0.0,0.0,0.0,0.0,0.0,0.0,0.0,0.0,0.0,0.0,0.0,0.0,0.0,0.0,0.0,0.0,0.0,0.0,0.0,0.0,0.0,0.0,0.0,0.0,0.0,0.0,0.0,0.0,0.0,0.0,0.0,0.0,0.0,0.0,0.0,0.0,0.0,0.0,0.0,0.0,0.0,0.0,0.0,0.0,0.0,0.0,0.0,0.0,0.0,0.0,0.0,0.0,0.0,3.4237,3.4182,3.4045,3.4045,3.3967,3.3754,3.2093,3.1555,3.1675,2.9518,0.0,0.0,0.0,0.0,0.0,0.0,0.0,0.0,0.0,0.0,0.0,0.0,0.0,0.0,0.0,0.0,0.0,0.0,0.0,0.0,0.0,1.3354,1.4087,1.5068,1.544,1.5921,1.6667,0.0,0.0,0.0,0.0,0.0,1.7867,1.7636,1.8672,2.1038,2.4449,2.6607,2.7519,2.7519,2.73,2.6877,2.5474,2.4857,2.4738,0.0,0.0,0.0,0.0,0.0,0.0,0.0,0.0,0.0,0.0,0.0,0.0,0.0,0.0,0.0,0.0,0.0,0.0,0.0,0.0,0.0,0.0,0.0,0.0,0.0,0.0,0.0,0.0,0.0,0.0,0.0,0.0,0.0,0.0,0.0,0.0,0.0,0.0,0.0,0.0,0.0,2.9085,2.9085,0.0,0.0,0.0,0.0,0.0,0.0,0.0,0.0,0.0,0.0,0.0,0.0,0.0,3.4717,3.5409,3.606,3.639,3.6406,3.6953,3.6877,3.6199,3.6199,3.5843,3.522,3.4966,0.0,3.3215,3.2856,0.0,0.0,0.0,0.0,0.0,0.0,0.0,0.0,0.0,0.0,0.0,0.0,0.0,0.0,0.0,0.0,0.0,0.0,0.0,0.0,0.0,1.4573,1.5734,1.6575,1.7621,1.8142,1.7948,1.779,0.0,0.0,0.0,1.8224,1.9354,2.0261,2.2324,2.5574,2.7199,2.8578,2.9709,2.9709,2.9709,2.9676,2.9042,2.7807,2.615,2.5186,0.0,0.0,0.0,0.0,0.0,0.0,0.0,0.0,0.0,0.0,0.0,0.0,0.0,0.0,0.0,0.0,0.0,0.0,0.0,0.0,0.0,0.0,0.0,0.0,0.0,0.0,0.0,0.0,0.0,0.0,0.0,0.0,0.0,0.0,0.0,0.0,0.0,0.0,0.0,2.7811,2.8979,2.8979,2.9154,2.9243,0.0,0.0,0.0,0.0,0.0,0.0,0.0,0.0,0.0,3.6529,3.6604,3.7118,3.8208,3.8051,3.7981,3.7983,3.7862,3.7617,3.7263,3.7263,3.732,3.7405,3.7405,3.7078,3.6378,3.4349,3.3155,3.2512,0.0,0.0,0.0,0.0,3.1062,3.1211,0.0,0.0,0.0,0.0,0.0,0.0,0.0,0.0,0.0,0.0,0.0,0.0,1.4244,1.6113,1.7617,1.8273,1.9479,1.9805,1.8861,1.8903,1.879,1.842,1.8584,1.9247,2.0412,2.2762,2.5515,2.8696,2.9281,3.0117,3.12,3.12,3.12,3.12,3.12,2.9948,2.7833,2.7444,2.6344,2.4804,0.0,0.0,0.0,0.0,0.0,0.0,0.0,0.0,0.0,0.0,0.0,0.0,0.0,0.0,0.0,0.0,0.0,0.0,0.0,0.0,0.0,0.0,0.0,0.0,0.0,0.0,0.0,0.0,0.0,0.0,0.0,0.0,0.0,0.0,0.0,0.0,0.0,2.8758,2.9832,2.9755,3.1058,3.1584,0.0,0.0,0.0,0.0,0.0,0.0,3.5804,3.5711,3.6506,3.8478,3.8707,3.9308,4.0371,3.997,3.977,3.9757,3.9205,3.8855,3.8669,3.8669,3.8856,3.9175,3.9175,3.9175,3.8943,3.5845,3.4363,3.3925,3.2736,3.2168,3.2034,3.2198,3.2377,3.2691,0.0,0.0,0.0,0.0,0.0,0.0,0.0,0.0,0.0,0.0,0.0,1.4946,1.5634,1.7715,1.9329,2.002,2.0145,1.9805,1.8861,1.9163,1.9079,1.843,1.9075,1.9631,2.0027,2.3624,2.6277,2.7858,3.0023,3.1133,3.12,3.12,3.12,3.12,3.12,3.1116,3.0869,2.9474,2.8824,2.8468,2.5642,0.0,0.0,0.0,0.0,0.0,0.0,0.0,0.0,0.0,0.0,0.0,0.0,0.0,0.0,0.0,0.0,0.0,0.0,0.0,0.0,0.0,0.0,0.0,0.0,0.0,0.0,0.0,0.0,0.0,0.0,0.0,0.0,0.0,0.0,0.0,0.0,0.0,0.0,3.3178,3.4612,0.0,0.0,0.0,0.0,3.5638,3.5119,3.5934,3.8633,3.818,3.8504,3.9948,4.0675,4.1063,4.114,4.1803,4.2128,4.2128,4.2088,4.172,4.1031,4.1031,4.0625,3.9942,3.9942,3.9942,3.9817,3.8169,3.6708,3.5427,3.465,3.3964,3.3469,3.4113,3.4757,3.54,0.0,0.0,0.0,0.0,0.0,0.0,0.0,0.0,1.0359,1.0758,1.3136,1.5057,1.5724,1.88,2.0905,2.1146,2.1907,2.2135,2.1551,2.1142,2.0934,2.091,2.0713,2.1766,2.4265,2.6598,2.8501,2.9989,3.0801,3.1437,3.1911,3.1911,3.2165,3.2628,3.2628,3.2628,3.2527,3.1038,2.9873,2.8908,2.7825,2.6234,0.0,0.0,0.0,0.0,0.0,0.0,0.0,0.0,0.0,0.0,0.0,0.0,0.0,0.0,0.0,0.0,0.0,0.0,0.0,0.0,0.0,0.0,0.0,0.0,0.0,0.0,0.0,0.0,0.0,0.0,0.0,0.0,0.0,0.0,0.0,0.0,0.0,3.3829,3.5761,0.0,3.5764,3.614,3.6839,3.7817,3.8095,3.8865,4.0333,4.0187,4.051,4.1474,4.1775,4.1914,4.1914,4.2181,4.23,4.2317,4.2777,4.2861,4.2643,4.3144,4.3485,4.367,4.367,4.367,4.3595,4.2533,4.0306,3.7497,3.669,3.6222,3.6043,3.6282,3.6522,3.6761,0.0,0.0,0.0,0.0,0.0,0.0,0.0,0.0,1.0279,1.1336,1.3989,1.6211,1.7334,2.0372,2.2338,2.2338,2.328,2.3391,2.2308,2.2125,2.1905,2.1535,2.203,2.3932,2.7393,2.8485,2.9839,3.1572,3.1572,3.1945,3.2672,3.2672,3.2943,3.3396,3.3396,3.3396,3.3339,3.2357,3.1376,3.0439,2.9931,2.8544,2.6623,0.0,0.0,0.0,0.0,0.0,0.0,0.0,0.0,0.0,0.0,0.0,0.0,0.0,0.0,0.0,0.0,0.0,0.0,0.0,0.0,0.0,0.0,0.0,0.0,0.0,0.0,0.0,0.0,0.0,0.0,0.0,0.0,0.0,0.0,3.3995,3.5999,3.457,3.6917,3.8244,3.7274,3.8294,3.9225,3.9715,4.0422,4.1064,4.1542,4.1576,4.1914,4.2642,4.2943,4.3196,4.3436,4.369,4.3822,4.3822,4.4316,4.4539,4.4556,4.5108,4.5616,4.6075,4.6075,4.6075,4.6,4.5169,4.3307,4.0864,3.953,3.9027,3.9027,3.9027,3.8825,3.8529,0.0,0.0,0.0,0.0,0.0,0.0,0.0,0.9,1.0558,1.2546,1.5635,1.8423,2.0488,2.2432,2.3595,2.3595,2.4085,2.3375,2.0926,2.1916,2.185,2.0185,2.3028,2.6014,2.8942,2.9077,3.0144,3.2293,3.2327,3.2706,3.3429,3.3429,3.3446,3.3463,3.3463,3.3463,3.3463,3.3463,3.3463,3.3339,3.185,3.1251,3.0811,0.0,0.0,0.0,0.0,0.0,0.0,0.0,0.0,0.0,0.0,0.0,0.0,0.0,0.0,0.0,0.0,0.0,0.0,0.0,0.0,0.0,0.0,0.0,0.0,0.0,0.0,0.0,0.0,0.0,0.0,0.0,0.0,0.0,3.4787,3.5475,3.6043,3.5808,3.8345,3.9576,3.8176,3.9986,4.1225,4.1225,4.1914,4.235,4.2367,4.2401,4.2743,4.349,4.4248,4.5007,4.5737,4.6447,4.68,4.68,4.6817,4.6834,4.6851,4.6868,4.6868,4.6868,4.6868,4.6868,4.6809,4.5951,4.5606,4.5379,4.3135,4.2269,4.2269,4.2269,4.169,4.0848,0.0,0.0,0.0,0.0,0.0,0.0,0.7899,0.821,0.9499,1.2426,1.4862,1.7438,2.0374,2.2432,2.3595,2.3595,2.4085,2.3819,2.2461,2.2507,2.2552,2.2475,2.587,2.8147,2.8976,3.0567,3.1684,3.2293,3.2841,3.3474,3.4201,3.4201,3.4478,3.5002,3.5002,3.5002,3.5002,3.5002,3.5002,3.4884,3.3379,3.2154,3.1089,0.0,0.0,0.0,0.0,0.0,0.0,0.0,0.0,0.0,0.0,0.0,0.0,0.0,0.0,0.0,0.0,0.0,0.0,0.0,0.0,0.0,0.0,0.0,0.0,0.0,0.0,0.0,0.0,0.0,0.0,0.0,3.5396,3.6648,3.6225,3.7788,3.9151,3.9606,4.0392,4.095,4.1068,4.1644,4.1999,4.1999,4.2675,4.3352,4.3941,4.4468,4.5094,4.5838,4.609,4.6293,4.6498,4.6699,4.68,4.6817,4.7344,4.7599,4.7616,4.8156,4.8392,4.8392,4.8392,4.8392,4.8377,4.8144,4.8034,4.7759,4.4805,4.365,4.365,4.365,4.3485,4.3063,0.0,0.0,0.0,0.0,0.0,0.0,0.7899,0.8143,0.9702,1.355,1.5298,1.7632,2.15,2.2921,2.3595,2.3595,2.3733,2.3302,2.2119,2.2312,2.3292,2.517,2.7664,2.9297,2.9914,3.1481,3.2452,3.2757,3.3508,3.4235,3.4962,3.4962,3.5368,3.6096,3.6096,3.627,3.6541,3.6231,3.6096,3.5994,3.4799,3.3801,3.2939,3.2002,3.1133,3.0211,2.8805,2.8086,2.7449,2.5122,0.0,0.0,0.0,0.0,0.0,0.0,0.0,0.0,0.0,0.0,0.0,0.0,0.0,0.0,0.0,0.0,0.0,0.0,0.0,0.0,0.0,0.0,0.0,0.0,3.7449,3.8645,3.8645,3.9762,4.0726,4.1153,4.1474,4.183,4.2266,4.2875,4.3264,4.3264,4.4231,4.5026,4.5497,4.5937,4.6498,4.7242,4.7259,4.7411,4.7716,4.7716,4.7868,4.8188,4.8612,4.8986,4.9307,4.973,4.9916,4.9916,4.9916,4.9916,4.9916,4.9916,4.9916,4.9668,0.0,0.0,0.0,0.0,4.5211,4.4996,0.0,0.0,0.0,0.0,0.0,0.0,0.7899,0.8402,1.0477,1.5184,1.6271,1.8393,2.3086,2.3595,2.3616,2.3677,2.318,2.2293,2.0973,2.2162,2.4375,2.7663,2.8721,2.9907,3.1285,3.2046,3.2791,3.3514,3.4252,3.4962,3.56,3.5684,3.6129,3.6795,3.6885,3.7291,3.7872,3.7207,3.688,3.6745,3.6017,3.5667,3.5391,3.3417,3.2672,3.2429,3.0439,2.9296,2.859,2.8002,0.0,0.0,0.0,0.0,0.0,0.0,0.0,0.0,0.0,0.0,0.0,0.0,0.0,0.0,0.0,0.0,0.0,0.0,0.0,0.0,0.0,0.0,0.0,0.0,3.9804,4.1225,4.1322,4.1474,4.1559,4.1457,4.21,4.2587,4.2689,4.3992,4.4838,4.4838,4.614,4.6921,4.6921,4.6989,0.0,0.0,0.0,4.8462,4.912,4.9221,4.9576,5.0219,5.0219,5.0574,5.1201,5.1201,5.1201,5.1201,5.1201,5.1201,5.1201,5.1201,5.1201,5.1066,4.9747,4.9255,4.906,4.7533,4.7027,4.6978,0.0,0.0,0.0,0.0,0.0,0.0,0.7899,0.8004,0.9953,1.5124,1.5896,1.7926,2.3041,2.3595,2.3773,2.4204,2.2892,2.2028,2.1997,2.4973,2.7055,2.7773,2.9719,3.1183,3.2073,3.2808,3.3541,3.4297,3.5019,3.5459,3.5616,3.6265,3.6648,3.6829,3.7415,3.777,3.7877,3.7753,3.733,3.6795,3.6631,3.618,3.5549,3.512,3.4968,3.4917,3.4478,3.4213,3.3754,3.1587,3.0669,3.0089,2.7968,2.7375,0.0,0.0,0.0,0.0,0.0,0.0,0.0,0.0,0.0,0.0,0.0,0.0,0.0,0.0,0.0,0.0,0.0,0.0,0.0,3.8616,4.0138,4.1407,4.1999,4.3163,4.3704,4.3051,4.3656,4.4398,4.4993,4.5838,4.6377,4.6377,4.7192,4.7684,4.7684,4.8257,4.8646,4.8781,4.9357,4.9729,4.9897,5.049,5.0846,5.0981,5.0981,0.0,5.1201,5.1201,5.1201,5.1201,5.1201,5.1201,5.1201,5.1201,5.1201,5.1167,5.088,5.0778,5.0648,4.9576,4.966,5.0072,0.0,0.0,0.0,0.0,0.0,0.0,0.7899,0.7899,0.9319,1.3289,1.3792,1.5418,1.9687,2.015,2.039,2.0993,2.129,2.1842,2.2784,2.5964,2.8314,2.9456,3.0581,3.1556,3.2276,3.3017,3.3761,3.45,3.5239,3.56,3.56,3.6,3.6603,3.7376,3.7736,3.8311,3.8949,3.821,3.7686,3.7291,3.6518,3.5949,3.56,3.56,3.56,3.56,3.56,3.56,3.5459,3.4555,3.4018,3.3469,3.2125,3.1034,2.9736,0.0,0.0,0.0,0.0,0.0,0.0,0.0,0.0,0.0,0.0,0.0,0.0,0.0,0.0,3.4844,3.5994,0.0,3.892,4.0422,4.1576,4.2574,4.3332,4.4432,4.4857,4.4079,4.5007,4.5853,4.621,4.6921,4.7361,4.7361,4.8022,4.8597,4.8984,4.9357,4.9729,5.0085,5.0473,5.0659,5.0659,5.1015,5.1387,5.1742,5.1742,5.1945,5.2351,5.2351,5.2351,5.2351,5.2351,5.2351,5.2351,5.2351,5.2351,5.2351,5.2351,5.1877,5.1136,5.0676,5.0792,5.1071,0.0,0.0,0.0,0.0,0.0,0.0,0.0,0.7834,0.8827,1.1398,1.1783,1.305,1.6346,1.6696,1.6839,1.7179,2.0083,2.2234,2.3061,2.6472,2.9287,3.1123,3.12,3.1606,3.2486,3.3102,3.3829,3.4709,3.5306,3.56,3.56,3.5763,3.649,3.7702,3.7838,3.8565,3.9592,3.8396,3.7809,3.7584,3.6321,3.5746,3.5616,3.578,3.5831,3.5831,3.5831,3.5932,3.6152,3.6801,3.6623,3.6121,3.6134,3.474,3.2568,2.9765,2.868,0.0,0.0,0.0,0.0,0.0,0.0,0.0,0.0,3.1391,3.2036,3.4252,3.5284,3.6366,3.8198,3.914,4.0269,4.2202,4.3149,4.391,4.4702,4.5568,4.5906,4.5311,4.6278,4.7005,4.7005,4.7667,4.8107,4.8107,4.8798,4.9475,5.0066,5.0236,5.0591,5.1184,5.1336,5.1404,5.1404,5.1573,5.1945,5.2536,5.2536,5.2875,5.3501,5.3501,5.3501,5.3501,5.3501,5.3501,5.3501,5.3501,5.3501,5.3501,5.3501,5.274,5.1641,5.1641,5.1641,5.1641,0.0,0.0,0.0,0.0,0.0,0.0,0.0,0.0,0.8779,1.1208,1.1692,1.305,1.6346,1.6696,1.6375,1.5553,2.1165,2.398,2.22,2.7567,3.092,3.12,3.12,3.185,3.3254,3.3372,3.4072,3.5492,3.5549,3.56,3.5616,3.6332,3.6761,3.6953,3.7601,3.7978,3.8142,3.7961,3.7516,3.6902,3.6745,3.6231,3.5667,3.6383,3.6677,3.6677,3.6677,3.7088,3.7657,3.7741,3.7722,3.7651,3.7663,3.79,3.7225,3.2324,3.1062,3.0162,2.5247,2.6079,2.9046,3.1993,3.2835,3.3991,0.0,3.7408,3.6682,3.8894,3.9948,4.0527,4.0768,4.1424,4.2219,4.3135,4.3944,4.4736,4.5466,4.6771,4.7633,4.7532,4.7684,4.7785,4.7785,4.8428,4.8883,4.8883,4.956,5.0015,5.01,5.0727,5.1116,5.1201,5.1827,5.2181,5.2181,5.2892,5.3281,5.3365,5.3365,5.3416,5.3501,5.3501,5.3501,5.3501,5.3501,5.3501,5.3501,5.3501,5.3501,5.3501,5.3501,5.3399,5.3247,5.3247,5.3247,5.3247,0.0,0.0,0.0,0.0,0.0,0.0,0.0,0.0,0.0,0.9258,0.9476,1.0354,1.2512,1.3402,1.3736,1.3474,1.9327,2.2717,2.1949,2.7735,3.12,3.12,3.12,3.1884,3.3362,3.3396,3.4123,3.56,3.56,3.56,3.56,3.5932,3.6349,3.6812,3.7122,3.7499,3.786,3.7432,3.7071,3.6761,3.6282,3.618,3.6332,3.6665,3.7337,3.785,3.609,3.5667,0.0,3.6422,3.6558,3.6792,3.8083,3.7807,3.6417,3.3372,3.2249,3.1901,3.1467,3.1305,3.1927,3.4693,3.5379,3.587,3.776,3.7799,3.8058,4.0286,4.1322,4.1965,4.2391,4.273,4.3321,4.4539,4.5026,4.5652,4.6822,4.7515,4.8056,4.8479,4.8529,4.8529,4.8529,4.9204,4.9644,4.9644,5.0321,5.093,5.1352,5.1674,5.2063,5.252,5.2841,5.301,5.301,5.3331,5.3501,5.3501,5.3501,5.3501,5.3501,5.3501,5.3501,5.3501,5.3501,5.3501,5.3501,5.3501,5.3501,5.3501,5.3501,5.3501,5.3501,5.3501,5.3501,5.3501,0.0,0.0,0.0,0.0,0.0,0.0,0.0,0.0,0.0,0.0,0.7867,0.8405,0.976,1.0877,1.1706,1.2154,1.7142,2.0738,2.1825,2.696,3.0337,3.1157,3.12,3.1799,3.3068,3.3305,3.4107,3.5515,3.5725,3.581,3.581,3.581,3.6056,3.6462,3.6462,3.6772,3.7234,3.6705,3.6462,3.6428,3.5831,3.6079,3.6829,3.7021,3.7499,3.7787,3.5588,3.4956,3.5126,3.5036,3.4991,3.5268,3.6891,3.6286,3.471,3.323,3.2086,3.1878,3.448,3.4465,3.4201,3.6276,3.7269,3.7748,3.7968,3.843,3.9314,4.1136,4.2083,4.2777,4.3304,4.3761,4.4404,4.552,4.6027,4.6686,4.7752,4.809,4.8394,4.8951,4.9001,4.9086,4.9272,4.9779,5.0184,5.0388,5.1099,5.1742,5.2266,5.252,5.2909,5.3484,5.3501,5.3501,5.3501,5.3501,5.3501,5.3501,5.3501,5.3501,5.3501,5.3501,5.3501,5.3501,5.3501,5.3501,5.3501,5.3501,5.3501,5.3501,5.3501,5.3501,5.3501,5.3501,5.3501,5.3501,0.0,0.0,0.0,0.0,0.0,0.0,0.0,0.0,0.0,0.0,0.0,0.0,0.0,1.0464,1.1198,1.2123,1.5231,1.848,2.1684,2.4999,2.8138,3.1072,3.12,3.1556,3.2327,3.3034,3.4028,3.5307,3.6021,3.6392,3.6392,3.6392,3.6114,3.5633,3.5633,3.565,3.5667,3.5661,3.5633,3.5633,3.56,3.6079,3.688,3.7601,3.6963,3.5684,3.56,3.6079,3.6406,3.4201,3.3463,3.348,3.3544,3.3516,3.3189,3.1702,3.0248,2.9428,3.0958,3.2888,3.4838,3.6423,3.842,4.0185,4.0899,4.1085,4.1322,4.2113,4.2861,4.3372,4.3406,4.4623,4.5652,4.5689,4.6906,4.7853,4.7904,4.8512,4.8984,4.9001,4.9001,4.9272,4.9998,5.01,5.0388,5.11,5.186,5.2283,5.23,5.3044,5.3484,5.3501,5.3501,5.3501,5.3501,5.3501,5.3501,5.3501,5.3501,5.3501,5.3501,5.3501,5.3501,5.3501,5.3501,5.3501,5.3501,5.3501,5.3501,5.3501,5.3501,5.3501,5.3501,5.3501,5.3501,5.3501,0.0,0.0,0.0,0.0,0.0,0.0,0.0,0.0,0.0,0.0,0.0,0.0,0.0,0.0,0.0,0.0,1.5139,1.7751,1.9535,2.4074,2.7368,2.8881,3.0395,3.1556,3.2276,3.2845,3.385,3.5302,3.5502,3.6065,3.6921,3.6196,3.5963,3.6118,3.5761,3.56,3.56,3.56,3.56,3.56,3.56,3.6372,3.7381,3.6129,3.596,3.6011,0.0,3.2111,3.2239,3.1478,3.1214,3.1468,3.2939,3.273,3.1749,3.0768,3.0811,3.1616,3.3592,3.5047,3.6615,3.9102,4.0273,4.1018,4.1762,4.232,4.273,4.2983,4.2844,4.2675,4.2675,4.349,4.435,4.4888,4.6633,4.8073,4.8563,4.8849,4.9001,4.9001,4.9424,5.0016,5.076,5.0828,5.115,5.186,5.2655,5.3095,5.3095,5.3348,5.3501,5.3501,5.3501,5.3501,5.3501,5.3501,5.3501,5.3501,5.3501,5.3501,5.3501,5.3501,5.3501,5.3501,5.3501,5.3501,5.3501,5.3501,5.3501,5.3501,5.3501,5.3501,5.3501,5.3501,5.3501,5.3501,0.0,0.0,0.0,0.0,0.0,0.0,0.0,0.0,0.0,0.0,0.0,0.0,0.0,0.0,0.0,0.0,0.0,1.634,1.8505,2.1956,2.4712,2.6547,2.801,2.9072,2.964,3.0211,3.1107,3.2371,3.3765,3.4787,3.5454,3.594,3.6143,3.6097,3.5761,3.56,3.56,3.56,3.5137,3.441,3.441,3.4698,3.4968,3.3789,3.3603,0.0,3.1038,2.9574,2.889,2.889,2.889,2.9118,3.0565,3.0734,3.0473,3.0784,3.1742,3.3247,3.5746,3.6806,3.785,4.0527,4.1204,4.1457,4.2455,4.3051,4.349,4.3775,4.3217,4.2692,4.2692,4.3524,4.4201,4.4195,4.6278,4.7971,4.8189,4.8443,4.8698,4.8968,4.9644,5.0388,5.1133,5.1438,5.1894,5.2672,5.3213,5.3501,5.3501,5.3501,5.3501,5.3501,5.3501,5.3501,5.3501,5.3501,5.3501,5.3501,5.3501,5.3501,5.3501,5.3501,5.3501,5.3501,5.3501,5.3501,5.3501,5.3501,5.3501,5.3501,5.3501,5.3501,5.3501,5.3501,5.3501,5.3501,0.0,0.0,0.0,0.0,0.0,0.0,0.0,0.0,0.0,0.0,0.0,0.0,0.0,0.0,0.0,0.0,0.0,0.0,1.8414,1.8781,2.0473,2.4101,2.4388,2.46,2.489,2.5628,2.6363,2.7094,3.0916,3.2572,3.226,3.5304,3.6215,3.5271,3.5216,3.5177,3.5143,3.5177,3.3987,3.2073,3.2107,3.1319,3.0166,3.0751,3.0151,2.9077,2.9668,2.8501,2.67,2.67,2.6784,2.6903,2.7055,2.8104,2.9704,3.1836,3.3028,3.4269,3.7116,3.7978,3.857,4.073,4.1275,4.1681,4.3135,4.3457,4.366,4.4381,4.3876,4.3288,4.3254,4.4488,4.506,4.3626,4.5925,4.7667,4.7005,4.753,4.8225,4.8917,4.9678,5.0422,5.1133,5.1894,5.2689,5.345,5.3501,5.3501,5.3501,5.3501,5.3501,5.3501,5.3501,5.3501,5.3501,5.3501,5.3501,5.3501,5.3501,5.3501,5.3501,5.3501,5.3501,5.3501,5.3501,5.3501,5.3501,5.3501,5.3501,5.3501,5.3501,5.3501,5.3501,5.3551,5.3568,5.3568,0.0,0.0,0.0,0.0,0.0,0.0,0.0,0.0,0.0,0.0,0.0,0.0,0.0,0.0,0.0,0.0,0.0,0.0,1.5469,1.7163,1.9006,2.1062,2.2962,2.4275,2.489,2.5578,2.6312,2.7094,2.8086,2.9307,3.0726,3.0571,3.0585,3.0728,3.0074,2.949,2.9008,2.9548,2.9463,2.8999,2.9593,2.9948,2.9929,2.8416,2.8324,2.8807,2.73,2.6725,2.67,2.67,2.7824,2.9617,3.1816,3.2791,3.3315,3.4438,3.5723,3.6913,3.7691,3.9094,4.0629,4.1728,4.2439,4.3085,4.4062,4.4296,4.4195,4.3792,4.2675,4.1597,4.1026,4.2155,4.3217,4.3372,4.5925,4.8022,4.8392,4.8612,4.8783,4.8984,5.0152,5.0981,5.1184,5.2402,5.3281,5.3484,5.3501,5.3501,5.3501,5.3501,5.3501,5.3501,5.3501,5.3501,5.3501,5.3501,5.3501,5.3501,5.3501,5.3501,5.3501,5.3501,5.3501,5.3501,5.3501,5.3501,5.3501,5.3501,5.3501,5.3501,5.3501,5.3501,5.3568,5.411,5.4313,5.4397,0.0,0.0,0.0,0.0,0.0,0.0,0.0,0.0,0.0,0.0,0.0,0.0,0.0,0.0,0.0,0.0,0.0,0.0,0.0,1.5598,1.687,1.802,1.9438,2.048,2.1109,2.1483,2.2173,2.3143,2.4563,2.5862,2.7055,2.8088,2.8366,2.8055,2.8237,2.79,2.7224,2.8002,2.7748,0.0,0.0,2.7165,2.6615,2.5972,2.6268,2.6945,2.631,2.6996,2.8332,2.9313,3.0497,3.1891,3.388,3.45,3.4776,3.6186,3.7217,3.8029,3.8684,4.0003,4.139,4.213,4.2861,4.344,4.3569,4.3586,4.3382,4.2577,4.1512,4.0684,4.0599,4.2083,4.323,4.2963,4.5722,4.7938,4.802,4.831,4.8646,4.8968,5.0305,5.1201,5.1201,5.2588,5.3501,5.3501,5.3501,5.3501,5.3501,5.3501,5.3501,5.3501,5.3501,5.3501,5.3501,5.3501,5.3501,5.3501,5.3501,5.3501,5.3501,5.3501,5.3501,5.3501,5.3501,5.3501,5.3534,5.3856,5.3974,5.4008,5.4346,5.4465,5.4515,5.4938,5.5091,5.5141,0.0,0.0,0.0,0.0,0.0,0.0,0.0,0.0,0.0,0.0,0.0,0.0,0.0,0.0,0.0,0.0,0.0,0.0,0.0,0.0,1.4695,1.5561,1.5634,1.5894,1.6432,1.6449,1.6978,1.8053,2.0874,2.2372,2.2646,2.6097,2.7056,2.5935,2.7233,2.7351,2.6674,2.7579,2.6767,2.4866,2.5076,2.4003,2.2455,0.0,2.4406,2.4694,2.6175,2.8163,3.0437,3.2652,3.3609,3.4015,3.4956,3.5244,3.5633,3.7618,3.8193,3.8464,3.9745,4.0641,4.139,4.213,4.2861,4.3203,4.2472,4.23,4.2046,4.1102,4.0481,4.0278,4.0815,4.2689,4.3805,4.2773,4.5415,4.7481,4.7141,4.7648,4.8276,4.8934,5.0305,5.1201,5.1201,5.2588,5.3501,5.3501,5.3501,5.3501,5.3501,5.3501,5.3501,5.3501,5.3501,5.3501,5.3501,5.3501,5.3501,5.3501,5.3501,5.3501,5.3501,5.3501,5.3501,5.3518,5.3602,5.3653,5.3704,5.4431,5.4753,5.4803,5.5445,5.5699,5.5716,5.58,5.5851,5.5851,0.0,0.0,0.0,0.0,0.0,0.0,0.0,0.0,0.0,0.0,0.779,0.7899,0.0,0.0,0.0,0.0,0.0,0.0,0.0,0.0,0.0,1.5523,1.5813,1.6329,1.7193,1.7263,1.7453,1.7774,1.8223,1.9113,2.0362,2.0782,2.1194,2.158,2.1568,2.113,2.0541,2.1945,2.1938,2.1089,2.2364,2.2634,2.2388,2.3265,0.0,0.0,2.6175,2.8163,3.0437,3.2652,3.4641,3.6547,3.8522,3.9131,3.9216,3.9592,3.9711,3.9762,4.0028,4.0641,4.139,4.213,4.2861,4.3203,4.2472,4.23,4.1741,3.9783,3.9754,3.9956,3.9462,4.0696,4.232,4.3941,4.5263,4.6684,4.8376,4.8731,4.8866,4.8984,5.0305,5.1201,5.1201,5.2588,5.3501,5.3501,5.3501,5.3501,5.3501,5.3501,5.3501,5.3501,5.3501,5.3501,5.3501,5.3501,5.3501,5.3501,5.3501,5.3501,5.3501,5.3501,5.3501,5.3534,5.4143,5.4397,5.4465,5.5209,5.5513,5.5513,5.5648,5.5699,5.5767,5.6393,5.6613,5.6697,0.0,0.0,0.0,0.0,0.0,0.0,0.0,0.0,0.7181,0.7549,0.7964,0.8262,0.8405,0.8481,0.0,0.0,0.0,0.0,0.0,0.0,0.0,0.0,1.4955,1.5275,1.542,1.5861,1.6376,1.6971,0.0,1.759,1.8969,1.9203,1.9228,1.9116,1.9733,1.9805,1.9541,2.0716,2.1201,2.1265,2.1992,2.2296,2.2415,0.0,0.0,0.0,2.5645,2.731,2.9381,3.0791,3.3737,3.7185,3.9402,4.0096,4.0096,4.0096,4.0096,4.0096,4.0096,4.0641,4.139,4.213,4.2861,4.3017,4.1504,4.1149,4.0523,3.8307,3.8447,3.8959,3.8988,4.051,4.2117,4.323,4.5024,4.6633,4.7716,4.8511,4.9001,4.9001,5.0305,5.1201,5.1201,5.2588,5.3501,5.3501,5.3501,5.3501,5.3501,5.3501,5.3501,5.3501,5.3501,5.3501,5.3501,5.3501,5.3501,5.3501,5.3501,5.3501,5.3518,5.3907,5.4059,5.411,5.4854,5.5175,5.5243,5.597,5.6257,5.6325,5.6697,5.685,5.6884,5.7239,5.7357,5.7408,0.0,0.0,0.0,0.0,0.0,0.0,0.0,0.6874,0.705,0.7454,0.8087,0.8662,0.9067,0.9107,0.9574,0.0,0.0,0.0,0.0,0.0,0.0,0.0,0.0,0.0,1.3874,0.0,0.0,1.6201,1.6163,0.0,0.0,0.0,0.0,0.0,1.9484,2.0092,2.0318,2.1099,2.1674,0.0,0.0,2.2219,2.2202,0.0,0.0,0.0,0.0,2.6105,2.776,2.879,3.1825,3.5582,3.779,3.9028,3.9592,3.9436,3.9503,3.9694,4.0011,4.0523,4.117,4.208,4.2743,4.2628,4.0574,4.01,3.9419,3.7021,3.7263,3.8079,3.865,4.0438,4.1927,4.2249,4.4296,4.6073,4.6716,4.78,4.8646,4.8968,5.0305,5.1201,5.1201,5.2588,5.3501,5.3501,5.3501,5.3501,5.3501,5.3501,5.3501,5.3501,5.3501,5.3501,5.3501,5.3501,5.3501,5.3501,5.3501,5.3501,5.3534,5.4262,5.46,5.4651,5.5564,5.5936,5.5986,5.6731,5.7036,5.7087,5.7662,5.79,5.79,5.79,5.79,5.79,0.0,0.0,0.0,0.0,0.0,0.0,0.0,0.6782,0.6976,0.7209,0.7974,0.8832,0.9707,0.9804,1.0084,0.0,0.0,0.0,0.0,0.0,0.0,0.0,0.0,0.0,0.0,0.0,0.0,1.5942,1.5747,0.0,0.0,0.0,0.0,0.0,0.0,2.0409,2.114,2.1887,0.0,0.0,0.0,0.0,0.0,0.0,0.0,0.0,0.0,2.472,2.5634,2.7826,2.9194,3.0388,3.2586,3.5498,3.7973,3.7291,3.7579,3.8396,3.974,4.0146,4.0553,4.1944,4.235,4.1999,4.0447,4.0087,3.9271,3.6321,3.6879,3.791,3.7978,3.9271,4.0743,4.208,4.2536,4.367,4.6397,4.6919,4.7496,4.8849,5.0305,5.1201,5.1201,5.2588,5.3501,5.3501,5.3501,5.3501,5.3501,5.3501,5.3501,5.3501,5.3501,5.3501,5.3501,5.3501,5.3501,5.3501,5.3501,5.3501,5.3534,5.4262,5.46,5.4668,5.6089,5.6697,5.6765,5.7492,5.7798,5.7815,5.7883,5.79,5.79,5.79,5.79,5.79,0.0,0.0,0.0,0.0,0.0,0.0,0.0,0.6672,0.6795,0.6992,0.7774,0.8657,0.9561,1.0124,1.0703,0.0,0.0,0.0,0.0,0.0,0.0,0.0,0.0,0.0,0.0,0.0,1.4905,1.5714,1.5644,0.0,0.0,0.0,0.0,0.0,0.0,1.9107,1.983,2.0128,0.0,0.0,0.0,0.0,0.0,0.0,0.0,0.0,0.0,0.0,2.369,2.5456,2.7278,2.8737,2.8282,3.0869,3.4409,3.6264,3.7325,3.8227,3.9694,4.0422,4.1014,4.2046,4.1965,4.1373,4.0345,3.9398,3.8176,3.6039,3.6456,3.7376,3.7809,3.8734,3.9779,4.0811,4.1724,4.2861,4.4505,4.5923,4.7175,4.8208,5.0034,5.1201,5.1201,5.2588,5.3501,5.3501,5.3501,5.3501,5.3501,5.3501,5.3501,5.3501,5.3501,5.3501,5.3501,5.3501,5.3501,5.3501,5.3501,5.3737,5.4194,5.4938,5.5497,5.5987,5.7002,5.7459,5.7476,5.7781,5.79,5.79,5.79,5.79,5.79,5.79,5.79,5.79,0.0,0.0,0.0,0.0,0.0,0.6599,0.6599,0.6599,0.6676,0.6878,0.7604,0.8469,0.9393,1.0225,1.1015,1.174,0.0,0.0,0.0,0.0,0.0,0.0,0.0,0.0,0.0,0.0,1.4965,1.5927,1.5927,1.6576,0.0,0.0,1.7924,1.8127,0.0,0.0,0.0,0.0,0.0,0.0,0.0,0.0,0.0,0.0,0.0,0.0,0.0,0.0,0.0,0.0,0.0,2.702,2.5459,2.729,3.0669,3.3946,3.601,3.7555,3.9051,4.0307,4.139,4.213,4.1745,4.1018,4.0261,3.8959,3.7454,3.5921,3.6417,3.7291,3.7792,3.8684,3.9491,4.0028,4.0963,4.2049,4.3237,4.479,4.6244,4.743,4.9341,5.0626,5.0846,5.2469,5.3501,5.3501,5.3501,5.3501,5.3501,5.3501,5.3501,5.3501,5.3501,5.3501,5.3501,5.3501,5.3501,5.3501,5.3501,5.389,5.4634,5.5361,5.6088,5.685,5.7577,5.79,5.79,5.79,5.79,5.79,5.79,5.79,5.79,5.79,5.79,5.79,0.0,0.0,0.0,0.0,0.0,0.0,0.0,0.6599,0.6676,0.6878,0.7482,0.8314,0.9379,1.0097,1.0841,1.1729,0.0,0.0,0.0,0.0,0.0,0.0,0.0,0.0,0.0,0.0,1.5223,1.6693,1.6693,1.7077,1.78,1.78,1.8194,1.8883,0.0,0.0,0.0,0.0,0.0,0.0,0.0,0.0,0.0,0.0,0.0,0.0,0.0,0.0,0.0,0.0,0.0,0.0,0.0,2.5387,2.7072,2.9693,3.2926,3.5966,3.7505,3.9517,4.139,4.213,4.1745,4.1018,4.0269,3.8954,3.7454,3.5921,3.6828,3.7877,3.7893,3.9102,4.0096,4.0096,4.0113,4.0895,4.3085,4.3423,4.4285,4.6532,4.8122,4.9306,5.0049,5.2164,5.3501,5.3501,5.3501,5.3501,5.3501,5.3501,5.3501,5.3501,5.3501,5.3501,5.3501,5.3501,5.3501,5.3501,5.3501,5.389,5.4634,5.5361,5.6088,5.685,5.7577,5.79,5.79,5.79,5.79,5.79,5.79,5.79,5.79,5.79,5.79,5.79,0.0,0.0,0.0,0.0,0.0,0.0,0.0,0.6599,0.6625,0.6693,0.7353,0.8206,0.919,0.9972,1.0797,1.1723,0.0,0.0,0.0,0.0,0.0,0.0,0.0,0.0,0.0,0.0,1.4458,1.5607,1.6116,1.6622,1.7124,1.7344,1.7584,1.7806,1.7568,1.7841,0.0,0.0,0.0,0.0,0.0,0.0,1.9911,0.0,0.0,0.0,0.0,0.0,0.0,0.0,0.0,0.0,0.0,0.0,0.0,2.7986,3.0799,3.3901,3.5813,3.7246,3.8256,3.8476,3.8374,3.812,3.7912,3.706,3.6186,3.5701,3.6434,3.7308,3.7821,3.8684,3.9508,4.0028,4.0096,4.0692,4.2405,4.3569,4.5043,4.7293,4.9746,5.1555,5.235,5.3078,5.3501,5.3501,5.3501,5.3501,5.3501,5.3501,5.3501,5.3501,5.3501,5.3501,5.3501,5.3501,5.3501,5.3501,5.3501,5.416,5.5361,5.5581,5.6393,5.756,5.7798,5.79,5.79,5.79,5.79,5.79,5.79,5.79,5.79,5.79,5.79,5.79,0.0,0.0,0.0,0.0,0.0,0.0,0.0,0.6599,0.6674,0.6878,0.7334,0.812,0.936,0.9955,1.0676,1.1713,0.0,0.0,0.0,0.0,0.0,0.0,0.0,0.0,0.0,1.3844,1.4577,1.5731,1.6209,1.655,1.6802,1.7008,1.7113,1.7101,1.6898,1.7037,0.0,0.0,0.0,0.0,0.0,0.0,1.9475,0.0,0.0,0.0,0.0,0.0,0.0,0.0,0.0,0.0,0.0,0.0,0.0,0.0,2.9054,3.1484,3.4079,3.5757,3.6795,3.6795,3.6795,3.6795,3.6795,3.618,3.56,3.56,3.6468,3.7359,3.7809,3.8717,3.9559,4.0028,4.032,4.1031,4.2506,4.3805,4.5514,4.8022,5.0423,5.2198,5.2976,5.3331,5.3501,5.3501,5.3501,5.3501,5.3501,5.3501,5.3501,5.3501,5.3501,5.3501,5.3501,5.3501,5.3501,5.3501,5.3501,5.4262,5.5699,5.5699,5.6511,5.79,5.79,5.79,0.0,5.79,5.79,5.79,5.79,5.79,5.79,5.79,5.79,5.79,0.0,0.0,0.0,0.0,0.0,0.0,0.0,0.0,0.0,0.7331,0.7431,0.8097,0.9796,1.0001,1.0501,1.1655,0.0,0.0,0.0,0.0,0.0,0.0,0.0,0.0,0.0,1.4537,1.5358,1.67,1.6747,1.6751,1.6725,1.6751,1.6763,1.6763,1.6738,1.6725,1.6705,0.0,0.0,0.0,0.0,0.0,0.0,0.0,0.0,0.0,0.0,0.0,0.0,0.0,0.0,0.0,0.0,0.0,0.0,0.0,0.0,0.0,0.0,3.4669,3.631,3.631,3.6428,3.6558,3.6558,3.6062,0.0,3.5532,3.6794,3.7877,3.7826,3.9068,4.0096,4.0096,4.0726,4.1728,4.3203,4.4316,4.6005,4.8748,5.0423,5.1607,5.2249,5.3027,5.3501,5.3501,5.3501,5.3501,5.3501,5.3501,5.3501,5.3501,5.3501,5.3501,5.3501,5.3501,5.3501,5.3501,5.3501,5.4262,5.5699,5.5699,5.6511,5.79,5.79,5.79,5.79,5.79,5.79,5.79,5.79,5.79,5.79,5.79,5.79,5.79,0.0,0.0,0.0,0.0,0.0,0.0,0.0,0.0,0.0,0.0,0.7796,0.85,0.9581,1.0064,1.0615,0.0,0.0,0.0,0.0,0.0,0.0,0.0,0.0,0.0,0.0,1.4319,1.504,1.5588,1.6144,1.6294,1.6046,1.6308,1.6423,1.6416,1.615,1.6039,1.6084,0.0,0.0,0.0,0.0,0.0,0.0,0.0,0.0,0.0,2.0458,2.1131,0.0,0.0,0.0,0.0,0.0,0.0,0.0,0.0,2.7769,2.8549,2.9722,0.0,3.1664,3.1664,3.2949,3.4201,0.0,3.4934,3.543,3.4878,3.6434,3.7736,3.7156,3.873,4.0096,4.0096,4.0726,4.1728,4.3203,4.6515,4.9068,4.9761,5.1691,5.279,5.235,5.3027,5.3501,5.3501,5.3501,5.3501,5.3501,5.3501,5.3501,5.3501,5.3501,5.3501,5.3501,5.3501,5.3501,5.3501,5.3501,5.4262,5.5699,5.5699,5.6511,5.79,5.79,5.79,5.79,5.79,5.79,5.79,5.79,5.79,5.79,5.79,5.79,5.79,0.0,0.0,0.0,0.0,0.0,0.0,0.0,0.0,0.0,0.0,0.0,0.0,0.0,0.0,0.0,0.0,0.0,0.0,0.0,0.0,0.0,0.0,0.0,0.0,1.3469,1.4358,1.5027,1.5484,1.5877,1.5976,1.5806,1.599,1.6074,1.6052,1.5885,1.5949,1.6256,1.6788,1.7242,0.0,1.841,0.0,0.0,0.0,0.0,0.0,2.0917,2.159,0.0,2.3251,2.4033,2.4709,0.0,0.0,0.0,0.0,2.8025,2.8404,2.8874,2.9542,3.0183,3.0531,3.2019,3.348,3.3829,3.4782,3.5481,3.5098,3.6541,3.7787,3.7381,3.9389,4.0878,4.0214,4.1877,4.3673,4.4807,4.7344,4.934,5.0032,5.1488,5.2537,5.2824,5.3247,5.3501,5.3501,5.3501,5.3501,5.3501,5.3501,5.3501,5.3501,5.3501,5.3501,5.3501,5.3501,5.3501,5.3501,5.3501,5.4262,5.5699,5.5699,5.6511,5.79,5.79,5.79,5.79,5.79,5.79,5.79,5.79,5.79,5.79,5.79,5.79,5.79,0.0,0.0,0.0,0.0,0.0,0.0,0.0,0.0,0.0,0.0,0.0,0.0,0.0,0.0,0.0,0.0,0.0,0.0,0.0,0.0,0.0,0.0,0.0,1.3262,1.3938,1.4609,1.5237,1.5799,1.5799,1.5799,1.5799,1.5799,1.5851,1.5934,1.6046,1.6368,1.6868,1.6958,1.7661,1.8709,1.8807,0.0,0.0,0.0,0.0,0.0,0.0,0.0,0.0,2.4201,2.4739,2.5098,2.6243,0.0,0.0,0.0,0.0,0.0,2.8729,2.9713,3.069,3.1106,3.2391,3.3694,3.4229,3.4912,3.5442,3.5442,3.6659,3.7838,3.8176,4.0286,4.1623,4.0591,4.3298,4.5872,4.6819,4.7802,4.8834,4.9949,5.0963,5.2013,5.3213,5.3433,5.3501,5.3501,5.3501,5.3501,5.3501,5.3501,5.3501,5.3501,5.3501,5.3501,5.3501,5.3501,5.3501,5.3501,5.3501,5.4262,5.5699,5.5699,5.6511,5.79,5.79,5.79,5.79,5.79,5.79,5.79,5.79,5.79,5.79,5.79,5.79,5.79,0.0,0.0,0.0,0.0,0.0,0.0,0.0,0.0,0.0,0.0,0.0,0.0,0.0,0.0,0.0,0.0,0.0,0.0,0.0,0.0,0.0,0.0,1.2987,1.3959,1.4633,1.5297,1.5709,1.5799,1.5799,1.5799,1.5799,1.5799,1.6076,1.6592,1.7153,1.7459,1.7578,1.8147,1.8514,1.8747,1.9324,0.0,0.0,0.0,0.0,0.0,0.0,0.0,0.0,2.4335,2.5349,2.633,2.6539,0.0,0.0,0.0,0.0,0.0,2.8099,3.0516,3.2618,3.1478,3.2791,3.4212,3.3694,3.4134,3.4675,3.4675,3.5904,3.7545,3.9423,4.0134,4.076,4.1792,4.3535,4.5449,4.7447,4.9442,5.0542,5.015,5.1911,5.2976,5.2536,5.3112,5.3501,5.3501,5.3501,5.3501,5.3501,5.3501,5.3501,5.3501,5.3501,5.3501,5.3501,5.3501,5.3501,5.3501,5.3501,5.4262,5.5699,5.5699,5.6511,5.79,5.79,5.79,5.79,5.79,5.79,5.79,5.79,5.79,5.79,5.79,5.79,5.79,0.0,0.0,0.0,0.0,0.0,0.0,0.0,0.0,0.0,0.0,0.0,0.0,0.0,0.0,0.0,0.0,0.0,0.0,0.0,0.0,0.0,1.3376,1.3669,1.3932,1.4259,1.5275,1.5799,1.5799,1.5799,1.5964,1.6286,1.6667,1.6966,1.7249,1.7556,1.7908,1.8252,1.8574,1.8912,1.9265,0.0,0.0,0.0,0.0,0.0,0.0,0.0,0.0,0.0,0.0,2.5259,2.6063,2.6063,0.0,0.0,0.0,0.0,0.0,2.9036,3.1007,3.2943,3.3457,3.5267,3.6953,3.7021,3.7274,3.741,3.7021,3.7816,3.9029,4.0438,4.169,4.3295,4.5551,4.55,4.5974,4.8174,4.9037,4.973,5.0591,5.1623,5.2435,5.2909,5.3281,5.3501,5.3501,5.3501,5.3501,5.3501,5.3501,5.3501,5.3501,5.3501,5.3501,5.3501,5.3501,5.3501,5.3501,5.3501,5.4059,5.5124,5.5513,5.6274,5.7323,5.7729,5.79,5.79,5.79,5.79,5.79,5.79,5.79,5.79,5.79,5.79,5.79,0.0,0.0,0.0,0.0,0.0,0.0,0.0,0.0,0.0,0.0,0.0,0.0,0.0,0.0,0.0,0.0,0.0,0.0,0.0,0.0,1.2115,1.4124,1.3871,1.3874,1.4259,1.5275,1.5799,1.5799,1.5934,1.6338,1.6943,1.7616,1.7929,1.7938,1.8102,1.8454,1.8927,1.8927,1.9235,1.9708,0.0,0.0,0.0,0.0,0.0,0.0,0.0,0.0,0.0,0.0,0.0,0.0,0.0,0.0,0.0,2.6903,2.7702,2.8453,2.9734,3.1424,3.3214,3.4917,3.6507,3.807,3.9508,3.9423,3.9085,3.9237,3.9846,4.0641,4.1559,4.3298,4.5277,4.7361,4.6718,4.6735,4.8951,4.8918,4.9375,5.1235,5.1624,5.2199,5.3399,5.3501,5.3501,5.3501,5.3501,5.3501,5.3501,5.3501,5.3501,5.3501,5.3501,5.3501,5.3501,5.3501,5.3501,5.3501,5.3501,5.389,5.4634,5.5361,5.6088,5.685,5.7577,5.79,5.79,5.79,5.79,5.79,5.79,5.79,5.79,5.79,5.79,5.79,0.0,0.0,0.0,0.0,0.0,0.0,0.0,0.0,0.0,0.0,0.0,0.0,0.0,0.0,0.0,0.0,0.0,0.0,0.0,0.0,1.1386,1.2431,1.3034,1.406,1.5627,1.5754,1.5799,1.5799,1.6368,1.698,1.7646,1.8311,1.8627,1.8657,1.928,1.9579,1.9633,1.9633,1.9663,1.9708,1.9708,0.0,0.0,0.0,0.0,0.0,0.0,0.0,0.0,0.0,0.0,0.0,0.0,0.0,2.493,2.6273,2.7053,2.7762,2.91,3.1847,3.4381,3.4539,3.4184,3.4726,3.8273,3.7437,3.6693,3.944,4.0608,4.1546,4.2983,4.3995,4.4432,4.3896,4.5449,4.7494,4.971,5.0558,5.1286,5.2131,5.2892,5.3382,5.3501,5.3501,5.3501,5.3501,5.3501,5.3501,5.3501,5.3501,5.3501,5.3501,5.3501,5.3501,5.3501,5.3501,5.3501,5.3501,5.3501,5.389,5.4634,5.5361,5.6088,5.685,5.7577,5.79,5.79,5.79,5.79,5.79,5.79,5.79,5.79,5.79,5.79,5.79,0.0,0.0,0.0,0.0,0.0,0.0,0.0,0.0,0.0,0.0,0.0,0.0,0.0,0.0,0.0,0.0,0.0,0.0,0.0,0.0,1.2014,1.3121,1.3844,1.4593,1.5352,1.5646,1.5979,1.6368,1.7421,1.8072,1.8335,1.9016,1.9324,1.9339,1.9588,1.9708,1.9708,1.9708,1.9708,1.9738,2.0154,2.0473,0.0,0.0,0.0,0.0,0.0,0.0,0.0,0.0,2.4421,2.4903,2.4492,2.4405,2.4672,2.569,2.689,2.8115,2.9133,3.1907,3.45,3.45,3.4286,3.5182,3.9411,3.9703,3.9398,4.0544,4.2117,4.3484,4.4042,4.5889,4.6938,4.5703,4.7005,4.8781,5.0541,5.1015,5.1658,5.2909,5.3315,5.3501,5.3501,5.3501,5.3501,5.3501,5.3501,5.3501,5.3501,5.3501,5.3501,5.3501,5.3501,5.3501,5.3501,5.3501,5.3501,5.3501,5.3501,5.3653,5.3957,5.5141,5.5851,5.6172,5.7374,5.79,5.79,5.79,5.79,5.79,5.79,5.79,5.79,5.79,5.79,5.79,0.0,0.0,0.0,0.0,0.0,0.0,0.0,0.0,0.0,0.0,0.0,0.0,0.0,0.0,0.0,0.0,0.0,0.0,1.1115,1.1382,1.2116,1.3423,1.4313,1.4965,1.5415,1.6061,1.6495,1.6696,1.8042,1.8807,1.9031,1.9489,1.9708,1.9708,1.9923,2.0013,2.0034,2.0238,2.0327,2.0372,2.0832,2.1131,0.0,0.0,0.0,0.0,0.0,0.0,0.0,0.0,2.3898,2.4201,2.3744,2.397,2.4606,2.5591,2.7311,2.9163,3.0389,3.2404,3.437,3.5346,3.5041,3.5684,4.0189,4.065,4.0561,4.1982,4.3518,4.4668,4.4905,4.6786,4.7902,4.665,4.7885,4.9526,5.0998,5.1201,5.1759,5.3331,5.3501,5.3501,5.3501,5.3501,5.3501,5.3501,5.3501,5.3501,5.3501,5.3501,5.3501,5.3501,5.3501,5.3501,5.3501,5.3501,5.3501,5.3501,5.3501,5.3501,5.3551,5.4803,5.5479,5.5767,5.7019,5.7697,5.79,5.79,5.79,5.79,5.79,5.79,5.79,5.79,5.79,5.79,0.0,0.0,0.0,0.0,0.0,0.0,0.0,0.0,0.0,0.0,0.0,0.0,0.0,0.0,0.0,0.0,0.0,0.0,1.0656,1.0713,1.1407,1.2928,1.4092,1.5142,1.6058,1.7154,1.7377,1.6711,1.8057,1.9046,1.9708,1.9708,1.9708,1.9738,2.0399,2.0703,2.0757,2.1425,2.1695,2.1695,2.171,2.2109,2.2703,0.0,0.0,0.0,0.0,0.0,0.0,0.0,2.3595,2.3595,2.3595,2.397,2.4673,2.6086,2.8356,3.0855,3.2998,3.3512,3.4157,3.7127,3.6197,3.5723,4.0189,3.95,3.9208,4.3704,4.4601,4.4821,4.5568,4.6312,4.6583,4.5838,4.7564,4.9526,5.0998,5.1201,5.1759,5.3331,5.3501,5.3501,5.3501,5.3501,5.3501,5.3501,5.3501,5.3501,5.3501,5.3501,5.3501,5.3501,5.3501,5.3501,5.3501,5.3501,5.3501,5.3501,5.3501,5.3501,5.3534,5.4262,5.5006,5.5733,5.6477,5.7222,5.79,5.79,5.79,5.79,5.79,5.79,5.79,5.79,5.79,5.79,0.0,0.0,0.0,0.0,0.0,0.0,0.0,0.0,0.0,0.0,0.0,0.0,0.0,0.0,0.0,0.0,0.0,0.0,1.0656,1.1357,1.1999,1.2553,1.4205,1.5083,1.4978,1.6759,1.7825,1.8117,1.8972,1.9513,1.9708,1.9708,1.9953,2.0413,2.0608,2.0967,2.1425,2.163,2.1695,2.1749,2.2213,2.2523,2.2703,0.0,0.0,0.0,0.0,0.0,0.0,0.0,0.0,0.0,2.3595,2.4241,2.5169,2.6205,2.7884,2.9695,3.0931,3.3879,3.6389,3.569,3.7381,3.9563,4.0899,4.0684,4.1356,4.5328,4.5311,4.4973,4.6227,4.7496,4.7936,4.6667,4.7885,4.9526,5.0998,5.1201,5.1759,5.3331,5.3501,5.3501,5.3501,5.3501,5.3501,5.3501,5.3501,5.3501,5.3501,5.3501,5.3501,5.3501,5.3501,5.3501,5.3501,5.3501,5.3501,5.3501,5.3501,5.3501,5.3534,5.4262,5.5006,5.5733,5.6477,5.7222,5.79,5.79,5.79,5.79,5.79,5.79,5.79,5.79,5.79,5.79,0.0,0.0,0.0,0.0,0.0,0.0,0.0,0.0,0.0,0.0,0.0,0.0,0.0,0.0,0.0,0.0,0.0,0.0,0.0,1.1935,1.2406,1.2709,1.4254,1.5361,1.5923,1.72,1.8265,1.9091,1.9504,1.9708,1.9708,1.9974,2.0318,2.0718,2.1251,2.1724,2.2109,2.2353,2.2458,2.2473,2.2633,2.2838,2.3032,0.0,0.0,0.0,0.0,0.0,0.0,0.0,0.0,0.0,2.3595,2.4373,2.5603,2.7251,2.8786,3.0577,3.3423,3.5793,3.7635,3.834,3.9868,4.1441,4.2337,4.2777,4.3724,4.6261,4.6343,4.6261,4.7462,4.8409,4.8714,4.7817,4.8426,4.9526,5.0998,5.1201,5.1759,5.3331,5.3501,5.3501,5.3501,5.3501,5.3501,5.3501,5.3501,5.3501,5.3501,5.3501,5.3501,5.3501,5.3501,5.3501,5.3501,5.3501,5.3501,5.3501,5.3501,5.3501,5.3518,5.3957,5.4566,5.5327,5.6359,5.7222,5.79,5.79,5.79,5.79,5.79,5.79,5.79,5.79,5.79,5.79,0.0,0.0,0.0,0.0,0.0,0.0,0.0,0.0,0.0,0.0,0.0,0.0,0.0,0.0,0.0,0.0,0.0,0.0,0.0,0.0,1.2638,1.3173,1.4267,1.5852,1.7964,1.81,1.8638,1.9609,1.9669,1.9729,1.9803,2.0413,2.0772,2.0937,2.2164,2.2733,2.2823,2.3366,2.3595,2.355,2.2992,2.3112,2.3535,2.2992,0.0,0.0,0.0,0.0,0.0,0.0,0.0,0.0,2.3595,2.4424,2.5933,2.8612,3.0353,3.2591,3.8103,3.8362,3.8268,4.3091,4.2892,4.2049,4.4127,4.5227,4.5991,4.6665,4.7394,4.8124,4.8851,4.9001,4.9001,4.9001,4.9001,4.9526,5.0998,5.1201,5.1759,5.3331,5.3501,5.3501,5.3501,5.3501,5.3501,5.3501,5.3501,5.3501,5.3501,5.3501,5.3501,5.3501,5.3501,5.3501,5.3501,5.3501,5.3501,5.3501,5.3501,5.3501,5.3501,5.3501,5.394,5.4769,5.619,5.7222,5.79,5.79,5.79,5.79,5.79,5.79,5.79,5.79,5.79,5.79,0.0,0.0,0.0,0.0,0.0,0.0,0.0,0.0,0.0,0.0,0.0,0.0,0.0,0.0,0.0,0.0,0.0,0.0,0.0,0.0,1.2638,1.3173,1.4585,1.5974,1.7293,1.8135,1.8685,1.8912,1.9444,1.9968,2.0488,2.0628,2.1251,2.2273,2.2568,2.2957,2.3415,2.3535,2.3595,2.3595,2.3456,2.3475,2.3595,2.3456,2.349,0.0,0.0,0.0,0.0,0.0,0.0,0.0,2.3595,2.4424,2.5725,2.738,2.9549,3.2028,3.4919,3.7511,3.9795,4.1521,4.2909,4.3992,4.4482,4.5616,4.6599,4.6766,4.7394,4.8124,4.8851,4.9001,4.9001,4.9001,4.9001,4.9526,5.0998,5.1201,5.1759,5.3331,5.3501,5.3501,5.3501,5.3501,5.3501,5.3501,5.3501,5.3501,5.3501,5.3501,5.3501,5.3501,5.3501,5.3501,5.3501,5.3501,5.3501,5.3501,5.3501,5.3501,5.3501,5.3501,5.4228,5.5513,5.641,5.7222,5.79,5.79,5.79,5.79,5.79,5.79,5.79,5.79,5.79,5.79,0.0,0.0,0.0,0.0,0.0,0.0,0.0,0.0,0.0,0.0,0.0,0.0,0.0,0.0,0.0,0.0,0.0,0.0,0.0,0.0,1.3036,1.3605,1.4649,1.5837,1.7171,1.7744,1.8402,1.9175,1.9528,1.9878,2.0243,2.0887,2.138,2.1784,2.2722,2.3141,2.3186,2.3486,2.3595,2.3565,2.3291,2.3336,2.3595,2.3595,2.3804,2.4122,2.4436,0.0,0.0,0.0,0.0,0.0,0.0,0.0,2.6244,2.7621,2.9165,3.1378,3.5602,3.7877,3.966,4.2198,4.3721,4.4615,4.4615,4.5734,4.68,4.68,4.7665,4.8529,4.8934,4.9001,4.9001,4.9001,4.9001,4.9526,5.0998,5.1201,5.1759,5.3331,5.3501,5.3501,5.3501,5.3501,5.3501,5.3501,5.3501,5.3501,5.3501,5.3501,5.3501,5.3501,5.3501,5.3501,5.3501,5.3501,5.3501,5.3501,5.3501,5.3501,5.3501,5.3501,5.4295,5.5716,5.6105,5.6884,5.79,5.79,5.79,5.79,5.79,5.79,5.79,5.79,5.79,5.79,0.0,0.0,0.0,0.0,0.0,0.0,0.0,0.0,0.0,0.0,0.0,0.0,0.0,0.0,0.0,0.0,0.0,0.0,0.0,0.0,0.0,1.4069,1.4597,1.5584,1.7084,1.7339,1.8119,1.9528,1.9648,1.9768,1.9893,2.1006,2.135,2.1126,2.2727,2.3231,2.2897,2.3396,2.3595,2.355,2.3052,2.3216,2.3763,2.3763,2.4122,2.4694,2.5364,2.5528,2.5423,2.5423,0.0,0.0,0.0,0.0,2.6696,2.8093,2.9101,3.1024,3.6689,3.8355,3.9462,4.3569,4.4615,4.4615,4.4615,4.5734,4.68,4.68,4.797,4.9001,4.9001,4.9001,4.9001,4.9001,4.9001,4.9459,5.0812,5.1116,5.1708,5.3129,5.3416,5.3501,5.3501,5.3501,5.3501,5.3501,5.3501,5.3501,5.3501,5.3501,5.3501,5.3501,5.3501,5.3501,5.3501,5.3501,5.3501,5.3501,5.3501,5.3501,5.3501,5.3501,5.4245,5.5513,5.5631,5.646,5.773,5.7849,5.79,5.79,5.79,5.79,5.79,5.79,5.79,5.79,0.0,0.0,0.0,0.0,0.0,0.0,0.0,0.0,0.0,0.0,0.0,0.0,0.0,0.0,0.0,0.0,0.0,0.0,1.3185,0.0,0.0,1.4069,1.456,1.5323,1.6416,1.7464,1.8273,1.8828,1.9414,1.9998,2.0563,2.0757,2.141,2.2438,2.2703,2.3067,2.349,2.3565,2.3595,2.3595,2.3505,2.3868,2.447,2.447,2.453,2.4694,2.5364,2.5229,2.4728,2.4728,2.4728,0.0,0.0,0.0,2.5984,2.728,2.9394,3.1741,3.3792,3.7476,4.1373,4.3958,4.4615,4.4615,4.4615,4.5734,4.68,4.68,4.797,4.9001,4.9001,4.9001,4.9001,4.9001,4.9001,4.9289,5.0118,5.0811,5.1505,5.2367,5.3078,5.3501,5.3501,5.3501,5.3501,5.3501,5.3501,5.3501,5.3501,5.3501,5.3501,5.3501,5.3501,5.3501,5.3501,5.3501,5.3501,5.3501,5.3501,5.3501,5.3501,5.3501,5.3957,5.4769,5.5411,5.6172,5.7002,5.7628,5.79,5.79,5.79,5.79,5.79,5.79,5.79,5.79,0.0,0.0,0.0,0.0,0.0,0.0,0.0,0.0,0.0,0.0,0.0,0.0,0.0,0.0,0.0,1.2693,1.2743,1.2881,1.3185,1.3521,1.3824,1.4081,1.4872,1.5789,1.683,1.7674,1.8475,1.9265,1.9929,2.0413,2.0703,2.1086,2.1575,2.2169,2.2887,2.3156,2.3112,2.3456,2.3595,2.3595,2.3595,2.4448,2.5689,0.0,0.0,0.0,2.6749,2.6524,2.6273,2.6273,2.6033,2.5778,2.6131,0.0,0.0,0.0,2.911,3.1613,3.5068,3.855,4.1745,4.4025,4.4615,4.4615,4.4615,4.5734,4.68,4.68,4.797,4.9001,4.9001,4.9001,4.9001,4.9001,4.9001,4.9255,4.9998,5.0371,5.1014,5.2164,5.2604,5.301,5.3467,5.3501,5.3501,5.3501,5.3501,5.3501,5.3501,5.3501,5.3501,5.3501,5.3501,5.3501,5.3501,5.3501,5.3501,5.3501,5.3501,5.3501,5.3501,5.3501,5.3907,5.4634,5.5378,5.6122,5.6867,5.7612,5.79,5.79,5.79,5.79,5.79,5.79,5.79,5.79,0.0,0.0,0.0,0.0,0.0,0.0,0.0,0.0,0.0,0.0,0.0,0.0,0.0,0.0,0.0,0.0,1.2601,1.2768,1.3173,1.3618,1.3946,1.4081,1.4868,1.5847,1.702,1.7592,1.8494,1.9708,2.0378,2.0877,2.1221,2.1724,2.2049,2.2218,2.3022,2.3201,2.2957,2.3411,2.3595,2.364,2.4159,2.536,2.6854,2.6856,2.7784,0.0,0.0,2.8004,2.7809,2.7465,2.7003,2.6684,2.714,2.7276,0.0,0.0,0.0,3.1133,3.6002,3.8384,4.0223,4.3264,4.3873,4.389,4.4465,4.5734,4.68,4.68,4.797,4.9001,4.9001,4.9001,4.9001,4.9001,4.9001,4.9187,4.9729,4.9965,5.0523,5.1606,5.208,5.2536,5.3145,5.3382,5.3501,5.3501,5.3501,5.3501,5.3501,5.3501,5.3501,5.3501,5.3501,5.3501,5.3501,5.3501,5.3501,5.3501,5.3501,5.3501,5.3501,5.3501,5.3805,5.4363,5.5293,5.6003,5.6596,5.7509,5.79,5.79,5.79,5.79,5.79,5.79,5.79,5.79,0.0,0.0,0.0,0.0,0.0,0.0,0.0,0.0,0.0,0.0,0.0,0.0,1.2358,1.2806,1.3123,1.3156,1.316,1.3173,1.3198,1.3223,1.35,1.4081,1.4144,0.0,1.632,1.6996,1.8122,1.9708,2.0378,2.135,2.2598,2.2628,2.2947,2.3475,2.2972,2.3052,2.355,2.3595,2.3595,2.3774,2.5686,2.6884,2.775,2.9563,3.0313,3.0328,2.9713,2.9084,2.8353,2.7093,2.6629,2.6611,2.6636,2.6648,2.6768,0.0,0.0,0.0,3.4577,3.5289,3.6073,4.1149,4.188,4.1948,4.411,4.5734,4.68,4.68,4.797,4.9001,4.9001,4.9001,4.9001,4.9001,4.9001,4.9018,4.9052,4.9661,5.0133,5.0218,5.1454,5.2317,5.2367,5.3061,5.3501,5.3501,5.3501,5.3501,5.3501,5.3501,5.3501,5.3501,5.3501,5.3501,5.3501,5.3501,5.3501,5.3501,5.3501,5.3501,5.3501,5.3501,5.3518,5.3653,5.5073,5.5716,5.5868,5.7306,5.79,5.79,5.79,5.79,5.79,5.79,5.79,5.79,0.0,0.0,0.0,0.0,0.0,0.0,0.0,0.0,0.0,0.0,0.0,0.0,0.0,1.3085,1.3198,1.3198,1.3198,1.3366,1.3752,1.3778,1.4038,1.4588,1.5273,1.6049,1.6923,1.8266,1.9426,2.0339,2.145,2.2239,2.2703,2.3107,2.3385,2.3595,2.337,2.3396,2.3625,2.4062,2.4231,2.4421,2.6435,2.8126,2.9458,2.9325,3.0597,3.2241,3.0817,2.9848,2.9179,2.8731,2.7701,2.6672,2.7057,2.7171,2.7458,2.8912,2.9356,3.0201,3.389,3.5053,3.6,3.9343,4.1052,4.213,4.2943,4.5024,4.68,4.68,4.797,4.9001,4.9001,4.9001,4.9001,4.9001,4.9001,4.9001,4.9001,4.9221,4.956,5.0049,5.098,5.1776,5.2249,5.3027,5.3501,5.3501,5.3501,5.3501,5.3501,5.3501,5.3501,5.3501,5.3501,5.3501,5.3501,5.3501,5.3501,5.3501,5.3501,5.3501,5.3501,5.3501,5.3501,5.3568,5.4566,5.526,5.5783,5.6782,5.7459,5.79,5.79,5.79,5.79,5.79,5.79,5.79,0.0,0.0,0.0,0.0,0.0,0.0,0.0,0.0,0.0,0.0,0.0,0.0,0.0,0.0,1.3701,1.3521,1.3675,1.386,1.4081,1.4441,1.4879,1.5405,1.6519,1.7449,1.8167,1.9523,2.061,2.138,2.2258,2.2808,2.3007,2.3411,2.3595,2.3595,2.3595,2.3595,2.364,2.4332,2.4593,2.4866,2.7809,2.9335,2.9921,3.0448,3.1571,3.2691,3.1724,3.1065,3.0689,3.098,3.0163,2.8962,2.8667,2.8225,2.8123,2.9572,2.9859,3.031,3.3021,3.4117,3.5098,3.763,3.9372,4.0777,4.2029,4.4245,4.6208,4.6699,4.797,4.9001,4.9001,4.9001,4.9001,4.9001,4.9001,4.9001,4.9001,4.9001,4.9187,4.9661,5.0608,5.1387,5.1894,5.2875,5.3501,5.3501,5.3501,5.3501,5.3501,5.3501,5.3501,5.3501,5.3501,5.3501,5.3501,5.3501,5.3501,5.3501,5.3501,5.3501,5.3501,5.3501,5.3501,5.3534,5.4008,5.4786,5.5767,5.6511,5.7222,5.79,5.79,5.79,5.79,5.79,5.79,5.79,0.0,0.0,0.0,0.0,0.0,0.0,0.0,0.0,0.0,1.3198,0.0,0.0,0.0,0.0,0.0,1.417,1.4601,1.4689,1.4182,1.5145,1.5968,1.6526,1.772,1.8844,1.9911,2.0606,2.1524,2.2703,2.2718,2.3032,2.3595,2.3595,2.361,2.3625,2.3625,2.364,2.3699,2.435,2.4649,2.5062,2.9801,3.0508,2.9158,3.318,3.3456,3.1788,3.2552,3.2776,3.2853,3.362,3.3781,3.3305,3.1281,2.966,2.8618,2.9214,2.9827,3.0594,0.0,0.0,0.0,3.5966,3.6778,3.7765,4.1352,4.3433,4.5007,4.6445,4.7936,4.9001,4.9001,4.9001,4.9001,4.9001,4.9001,4.9001,4.9001,4.9001,4.9001,4.9001,5.0271,5.1184,5.1201,5.2571,5.3484,5.3501,5.3501,5.3501,5.3501,5.3501,5.3501,5.3501,5.3501,5.3501,5.3501,5.3501,5.3501,5.3501,5.3501,5.3501,5.3501,5.3501,5.3501,5.3501,5.3501,5.4312,5.5716,5.646,5.7205,5.79,5.79,5.79,5.79,5.79,5.79,5.79,0.0,0.0,0.0,0.0,0.0,0.0,0.0,0.0,0.0,0.0,0.0,0.0,0.0,0.0,1.4843,1.468,1.4805,1.4997,1.5248,1.5906,1.6731,1.777,1.8872,1.9825,2.061,2.1657,2.2374,2.2703,2.3141,2.3441,2.3595,2.3595,2.3864,2.4321,2.4321,2.459,2.5049,2.5244,2.5603,2.6372,3.0078,3.1559,3.179,3.3903,3.525,3.6045,3.5874,3.4746,3.3559,3.4926,3.3265,3.0443,2.9428,2.883,2.8618,2.9214,2.9827,3.0468,3.1271,0.0,0.0,0.0,0.0,0.0,3.8886,4.1961,4.4733,4.5125,4.724,4.9001,4.9001,4.9001,4.9001,4.9001,4.9001,4.9001,4.9001,4.9001,4.9001,4.9001,4.983,5.0608,5.115,5.208,5.2875,5.3467,5.3501,5.3501,5.3501,5.3501,5.3501,5.3501,5.3501,5.3501,5.3501,5.3501,5.3501,5.3501,5.3501,5.3501,5.3501,5.3501,5.3501,5.3501,5.3501,5.4025,5.4955,5.5699,5.6748,5.79,5.79,5.79,5.79,5.79,5.79,5.79,0.0,0.0,0.0,0.0,0.0,0.0,0.0,0.0,0.0,0.0,0.0,0.0,0.0,0.0,1.5964,1.5288,1.5873,1.6332,1.6432,1.7362,1.8228,1.8941,2.0046,2.0826,2.1228,2.219,2.2823,2.3077,2.343,2.3595,2.361,2.3883,2.4227,2.4608,2.4889,2.5393,2.6019,2.6019,2.6243,2.6945,3.0889,3.2226,3.2143,3.4686,3.5868,3.6203,3.6785,3.6344,3.5752,3.7561,3.53,3.1718,3.1622,3.0347,2.9,2.9596,3.0198,0.0,0.0,0.0,3.3463,3.3778,0.0,0.0,3.8531,4.1318,4.3992,4.5261,4.7361,4.9001,4.9001,4.9001,4.9001,4.9001,4.9001,4.9001,4.9001,4.9001,4.9001,4.9001,4.9644,5.0388,5.1133,5.1877,5.2638,5.345,5.3501,5.3501,5.3501,5.3501,5.3501,5.3501,5.3501,5.3501,5.3501,5.3501,5.3501,5.3501,5.3501,5.3501,5.3501,5.3501,5.3501,5.3501,5.3501,5.3923,5.4651,5.5395,5.6375,5.7459,5.7781,5.79,5.79,5.79,5.79,5.79,0.0,0.0,0.0,0.0,0.0,0.0,0.0,0.0,0.0,0.0,1.6133,1.6079,0.0,0.0,0.0,0.0,1.7334,1.8036,1.7698,1.9066,1.9968,2.0127,2.1213,2.1844,2.1904,2.2493,2.3052,2.3595,2.3595,2.364,2.3729,2.4321,2.4679,2.4844,2.5453,2.6078,2.6704,2.6704,2.6843,2.7424,3.1715,3.2466,3.1473,3.5446,3.599,3.4868,3.6782,3.7834,3.8593,4.0259,3.8437,3.5496,3.5613,3.3148,3.0253,3.0286,3.0897,0.0,0.0,0.0,0.0,3.433,3.5053,0.0,3.8983,4.0811,4.2689,4.5379,4.7175,4.8274,4.836,4.8376,4.8409,4.8494,4.8646,4.8815,4.8984,4.9001,4.9001,4.9001,4.9576,5.0304,5.1116,5.1776,5.2553,5.3433,5.3501,5.3501,5.3501,5.3501,5.3501,5.3501,5.3501,5.3501,5.3501,5.3501,5.3501,5.3501,5.3501,5.3501,5.3501,5.3501,5.3501,5.3501,5.3501,5.3873,5.4532,5.5361,5.6122,5.6867,5.7612,5.79,5.79,5.79,5.79,5.79,0.0,0.0,0.0,0.0,0.0,0.0,0.0,0.0,0.0,1.6503,1.6775,1.719,0.0,0.0,0.0,0.0,1.7928,1.8306,1.8759,1.9498,2.0376,2.1461,2.2145,2.2722,2.3221,2.3366,2.3475,2.3595,2.3595,2.3868,2.441,2.4545,2.5184,2.6213,2.6348,2.6779,2.7405,2.7405,2.8366,2.9965,3.08,3.1972,3.3449,3.5847,3.8017,3.9811,4.0233,4.01,3.959,3.8816,3.8463,3.7866,3.4952,3.4718,3.4823,3.1331,3.1992,3.3637,3.2581,3.2841,3.3582,3.433,3.5053,0.0,3.6338,3.8125,3.98,4.0405,4.2181,4.3792,4.437,4.4488,4.4691,4.5345,4.6462,4.7631,4.8832,4.9001,4.9001,4.9001,4.9137,4.9746,5.1066,5.1336,5.1996,5.3399,5.3501,5.3501,5.3501,5.3501,5.3501,5.3501,5.3501,5.3501,5.3501,5.3501,5.3501,5.3501,5.3501,5.3501,5.3501,5.3501,5.3501,5.3501,5.3501,5.3585,5.3822,5.5141,5.6122,5.6867,5.7612,5.79,5.79,5.79,5.79,5.79,0.0,0.0,0.0,0.0,0.0,0.0,0.0,0.0,0.0,1.8047,1.862,1.9027,1.9096,1.9573,0.0,0.0,0.0,0.0,2.0472,2.1001,2.1601,2.2266,2.2563,2.2838,2.3141,2.3141,2.346,2.4107,2.4107,2.4451,2.5109,2.5438,2.6515,2.8131,2.7725,2.8149,2.9095,2.8366,2.8643,2.9747,3.147,3.3668,3.6164,3.8179,4.0113,4.1745,4.1745,4.1745,4.1694,4.1369,3.9843,3.8011,3.7548,3.6425,3.4916,3.2967,3.3177,3.3874,3.3073,3.2912,3.3282,3.4699,3.534,0.0,0.0,3.7922,3.922,3.9952,4.1271,4.2418,4.2777,4.2861,4.3098,4.3876,4.5263,4.638,4.675,4.8071,4.9001,4.9001,4.9001,4.9593,5.1066,5.1201,5.1844,5.3382,5.3501,5.3501,5.3501,5.3501,5.3501,5.3501,5.3501,5.3501,5.3501,5.3501,5.3501,5.3501,5.3501,5.3501,5.3501,5.3501,5.3501,5.3501,5.3501,5.3501,5.3602,5.4702,5.5598,5.6358,5.7459,5.79,5.79,5.79,5.79,5.79,1.5994,0.0,0.0,0.0,0.0,0.0,0.0,0.0,0.0,1.9937,2.0887,2.1339,2.1008,2.2091,2.2496,0.0,0.0,0.0,2.2622,2.3022,2.3318,2.3445,2.3077,2.3052,2.3437,2.3197,2.3565,2.4593,2.4724,2.5208,2.5982,2.6393,2.7686,2.9618,2.914,2.9491,3.0394,2.9479,2.9417,3.0171,3.3045,3.5272,3.7087,3.9327,4.0807,4.1782,4.2496,4.3132,4.366,4.3873,4.1211,3.8053,3.9472,3.7683,3.491,3.4099,3.4136,3.4293,3.3595,3.3049,3.316,3.511,3.56,3.5932,0.0,0.0,0.0,3.9872,4.0595,4.1064,4.1217,4.1234,4.1474,4.2222,4.3609,4.4418,4.3822,4.6024,4.7817,4.8122,4.8663,4.9459,5.066,5.1032,5.1844,5.3382,5.323,5.3196,5.3484,5.3501,5.3501,5.3501,5.3501,5.3501,5.3501,5.3501,5.3501,5.3501,5.3501,5.3501,5.3501,5.3501,5.3501,5.3501,5.3501,5.3501,5.3568,5.4313,5.504,5.5834,5.7171,5.7781,5.79,5.79,5.79,5.79,1.6712,1.713,0.0,0.0,0.0,0.0,0.0,0.0,2.0631,2.138,2.3046,2.4142,2.4089,2.5795,2.6889,2.6763,2.6862,2.6427,2.5264,2.5241,2.5544,2.6135,2.4459,2.4339,2.612,2.499,2.4455,2.4593,2.5199,2.6102,2.7269,2.6816,2.7609,2.9453,3.0145,3.0115,2.9619,3.0763,3.2716,3.5099,3.5502,3.4317,3.2648,3.544,3.7768,3.9967,4.3184,4.4381,4.4178,4.2236,4.1199,4.0079,3.6422,3.7599,3.9172,3.3311,3.4386,3.6899,3.4156,3.3384,3.3743,3.5234,3.56,3.565,3.5819,0.0,3.6033,3.6191,0.0,3.6575,3.7291,0.0,0.0,3.8401,3.9779,4.0709,4.0616,4.2033,4.3569,4.4939,4.7411,4.9069,4.9238,5.0423,5.1844,5.3382,5.2232,5.2046,5.3433,5.3501,5.3501,5.3501,5.3501,5.3501,5.3501,5.3501,5.3501,5.3501,5.3501,5.3501,5.3501,5.3501,5.3501,5.3501,5.3501,5.3501,5.3568,5.4313,5.504,5.5783,5.6613,5.7323,5.79,5.79,5.79,5.79,1.7413,1.7825,0.0,0.0,0.0,0.0,0.0,0.0,2.1515,2.2183,2.2992,2.3625,2.3973,2.4762,2.5746,2.6926,2.7018,2.6779,2.6213,2.6183,0.0,2.4908,2.4044,2.3999,2.4848,2.4691,2.4784,2.5184,2.6195,2.718,2.8062,2.782,2.8955,3.1206,3.1214,3.1682,3.2546,3.3622,3.404,3.4053,3.5447,3.4709,3.331,3.8337,4.111,4.2525,4.4057,4.4615,4.4448,4.3501,4.1441,3.9411,4.0134,3.8966,3.7026,3.552,3.5562,3.569,3.3887,3.413,3.5018,3.5481,3.5949,3.618,3.5712,3.5273,3.507,3.5509,0.0,0.0,0.0,0.0,0.0,0.0,3.8493,3.9322,3.8874,4.0832,4.2692,4.3775,4.4995,4.6602,4.8798,5.1133,5.279,5.345,5.2909,5.2824,5.3467,5.3501,5.3501,5.3501,5.3501,5.3501,5.3501,5.3501,5.3501,5.3501,5.3501,5.3501,5.3501,5.3501,5.3501,5.3501,5.3501,5.3501,5.3568,5.4313,5.504,5.5767,5.6511,5.7256,5.79,5.79,5.79,5.79,1.858,0.0,0.0,0.0,2.0204,0.0,2.1221,2.1799,2.2408,2.2872,2.3437,2.3946,2.4373,2.539,2.6632,2.8083,2.8712,2.8815,2.8248,2.7722,2.7102,2.6391,2.4596,2.4198,2.5519,2.4924,2.4933,2.5603,2.671,2.7771,2.8732,2.8583,2.9801,3.2132,3.1952,3.2894,3.4713,3.5726,3.5659,3.5051,3.679,3.7144,3.7057,4.104,4.3397,4.4615,4.4615,4.4615,4.4499,4.3873,4.1491,3.9276,4.1927,3.9812,3.6535,3.7589,3.7242,3.6195,3.4723,3.5072,3.5755,3.5391,3.5588,3.5769,3.5391,3.4878,3.4709,3.5459,3.56,0.0,0.0,0.0,3.5797,3.6378,0.0,3.7889,3.7335,3.9106,4.0815,4.1783,4.2611,4.4404,4.7767,5.044,5.2131,5.2536,5.2756,5.3044,5.3484,5.3501,5.3501,5.3501,5.3501,5.3501,5.3501,5.3501,5.3501,5.3501,5.3501,5.3501,5.3501,5.3501,5.3501,5.3501,5.3501,5.3501,5.3568,5.4313,5.504,5.5767,5.6511,5.7256,5.79,5.79,5.79,5.79,2.0488,2.0623,0.0,2.0643,2.1206,2.1884,2.2538,2.3141,2.355,2.3565,2.5282,2.6479,2.6509,2.991,3.2243,3.2303,3.4098,3.4397,3.2437,3.0551,3.0652,3.326,2.7105,2.5762,3.0376,2.6601,2.4933,2.5603,2.6282,2.7559,2.9361,2.8768,2.9478,3.1286,3.2093,3.3228,3.4602,3.6135,3.8384,4.0941,4.1,4.2331,4.3973,4.1371,4.2141,4.4615,4.4615,4.4615,4.4262,4.2049,4.1208,4.0747,3.8751,3.9445,4.0578,3.8502,3.9417,4.0447,3.7492,3.6219,3.5521,3.4734,3.4015,3.3694,3.437,3.4516,3.4709,3.5459,3.56,3.56,3.56,3.56,3.56,0.0,3.5667,0.0,0.0,3.5752,3.6389,3.7893,4.0595,4.325,4.5585,4.7177,4.8665,5.0101,5.0879,5.1928,5.3416,5.3501,5.3501,5.3501,5.3501,5.3501,5.3501,5.3501,5.3501,5.3501,5.3501,5.3501,5.3501,5.3501,5.3501,5.3501,5.3501,5.3501,5.3568,5.4313,5.504,5.5767,5.6511,5.7256,5.79,5.79,5.79,5.79,0.0,0.0,2.1874,2.144,2.1914,2.2573,2.3201,2.3471,2.4266,2.6147,2.6979,2.8082,2.9911,3.1293,3.262,3.3922,3.4635,3.476,3.4066,3.1694,3.0974,3.2455,2.6791,2.5226,2.8709,2.6032,2.4709,2.4933,2.6843,2.8121,2.8751,2.9381,3.023,3.1238,3.2109,3.3812,3.6141,3.8142,3.9551,4.0514,4.0988,4.1948,4.3068,4.3126,4.3754,4.4615,4.4615,4.4615,4.4479,4.3704,4.2439,4.1339,4.2097,4.0798,3.9157,3.9872,3.9948,3.9564,3.8533,3.9139,3.953,3.7317,3.6924,3.6772,3.552,3.4844,3.4709,3.5459,3.56,3.56,3.56,3.56,3.56,0.0,0.0,3.56,0.0,3.6062,3.6772,3.7775,4.092,4.3321,4.4099,4.7327,4.956,5.0066,5.1725,5.2943,5.3467,5.3501,5.3501,5.3501,5.3501,5.3501,5.3501,5.3501,5.3501,5.3501,5.3501,5.3501,5.3501,5.3501,5.3501,5.3501,5.3501,5.3501,5.3602,5.482,5.5462,5.5817,5.7053,5.7697,5.79,5.79,5.79,5.79,2.1974,2.2403,2.2568,2.2124,2.2588,2.3141,2.3535,2.3752,2.4819,2.7451,2.7953,2.9032,3.1621,3.2514,3.3442,3.4693,3.5447,3.5451,3.4473,3.301,3.239,3.2918,2.882,2.785,3.0651,2.761,2.6103,2.6349,2.7199,2.7853,2.8305,2.913,2.9985,3.0833,3.1399,3.3706,3.7291,3.8705,4.0244,4.1745,4.2219,4.2689,4.323,4.4212,4.4262,4.3839,4.4398,4.4615,4.4615,4.4615,4.3619,4.2672,4.4127,4.2604,4.0561,4.1982,4.1741,4.0878,4.032,4.1018,4.1322,3.8903,3.865,3.8493,3.6485,3.5859,3.5926,3.6659,3.6157,3.609,3.7691,3.6676,3.587,0.0,0.0,3.5712,0.0,3.6705,3.7461,3.821,4.0392,4.2256,4.3304,4.601,4.8376,4.9981,5.1454,5.2638,5.3467,5.3501,5.3501,5.3501,5.3501,5.3501,5.3501,5.3501,5.3501,5.3501,5.3501,5.3501,5.3501,5.3501,5.3501,5.3501,5.3501,5.3501,5.3619,5.509,5.5699,5.5851,5.7323,5.79,5.79,5.79,5.79,5.79,2.2664,2.2753,2.2748,2.2748,2.3216,2.3595,2.3595,2.4156,2.5394,2.7709,2.8503,2.9744,3.2045,3.3966,3.5059,3.5059,3.6805,3.6802,3.4192,3.4555,3.4907,3.5059,3.3032,3.319,3.5983,3.1098,2.8823,2.9497,2.7315,2.6858,2.8046,2.8125,2.8864,3.0149,3.0149,3.3057,3.7944,3.7944,4.0527,4.4615,4.4615,4.4564,4.4482,4.4581,4.3636,4.2503,4.4042,4.4615,4.4615,4.4615,4.4615,4.4615,4.4615,4.4615,4.4615,4.4615,4.4615,4.4279,4.2807,4.1897,4.1018,3.958,3.9208,3.8848,3.7405,3.7613,3.8328,3.9022,3.7437,3.72,4.1356,3.8637,3.6439,0.0,0.0,3.5881,3.6694,3.7432,3.8176,3.8916,3.9123,4.0273,4.2983,4.344,4.5334,4.9626,5.0067,5.1133,5.3382,5.3433,5.3433,5.3501,5.3501,5.3501,5.3501,5.3501,5.3501,5.3501,5.3501,5.3501,5.3501,5.3501,5.3501,5.3501,5.3501,5.3501,5.3619,5.509,5.5699,5.5851,5.7323,5.79,5.79,5.79,5.79,5.79,2.3896,2.3637,2.3366,2.3366,2.349,2.3595,2.3595,2.5479,2.7868,3.05,3.2721,3.5089,3.771,3.8434,3.8731,3.8731,3.9211,3.9204,3.8504,3.6712,3.6609,3.8652,3.4357,3.3447,3.6746,3.1342,2.8855,2.957,2.7755,2.704,2.738,2.8338,2.9538,3.092,3.092,3.3812,3.8717,3.8717,4.0997,4.4615,4.4615,4.3907,4.301,4.4161,4.3636,4.2503,4.4042,4.4615,4.4615,4.4615,4.4615,4.4615,4.4615,4.4615,4.4615,4.4615,4.4615,4.4499,4.411,4.3873,4.3501,4.251,4.2273,4.2033,4.1098,4.1031,4.1221,4.142,4.0997,4.0426,3.9948,3.8903,3.777,3.6659,3.5983,3.5881,3.6694,3.7432,3.8176,3.8916,4.0933,4.1918,4.1031,4.3975,4.6397,4.7562,4.9678,5.1674,5.3416,5.2402,5.2317,5.3467,5.3501,5.3501,5.3501,5.3501,5.3501,5.3501,5.3501,5.3501,5.3501,5.3501,5.3501,5.3501,5.3501,5.3501,5.3619,5.509,5.5699,5.5851,5.7323,5.79,5.79,5.79,5.79,5.79,2.4733,2.4771,2.4879,2.5205,2.5785,2.6052,2.5516,2.6178,2.8099,3.1857,3.3864,3.6043,3.8912,4.0045,4.0709,4.1031,4.1064,4.0548,3.9349,3.8954,3.8908,3.9257,3.7469,3.7357,3.9322,3.5243,3.2656,3.1742,2.9836,2.8384,2.7414,2.8139,2.9448,3.12,3.12,3.3755,3.8137,3.9762,4.1657,4.3653,4.433,4.4076,0.0,4.4276,4.4059,4.3416,4.4293,4.4615,4.4615,4.4615,4.4615,4.4615,4.4615,4.4615,4.4615,4.4615,4.4615,4.4615,4.4615,4.4838,4.4959,4.4505,4.4894,4.5012,4.3619,4.3538,4.3792,4.3792,4.298,4.252,4.3234,4.0984,3.8244,3.5971,3.5898,3.64,3.7161,3.7922,3.865,3.9389,4.095,4.1457,4.0231,4.4161,4.6921,4.7259,4.8817,5.0271,5.1471,5.1319,5.159,5.2469,5.3162,5.3501,5.3501,5.3501,5.3501,5.3501,5.3501,5.3501,5.3501,5.3501,5.3501,5.3501,5.3501,5.3687,5.4076,5.5209,5.5885,5.6308,5.7442,5.79,5.79,5.79,5.79,5.79,2.5503,2.6,2.6655,2.729,2.8716,2.9529,2.8838,2.7704,2.8503,3.2886,3.4191,3.5738,3.8362,4.026,4.1593,4.2249,4.23,4.1283,3.8891,4.0978,4.1219,3.8828,4.1041,4.235,4.2439,4.0185,3.763,3.4804,3.2588,3.0277,2.7959,2.806,2.927,3.1336,3.1336,3.3535,3.7444,4.076,4.2333,4.2723,4.4059,4.4615,4.4615,4.4615,4.4615,4.4615,4.4615,4.4615,4.4615,4.4615,4.4615,4.4615,4.4615,4.4615,4.4615,4.4615,4.4682,4.4736,4.4736,4.528,4.5872,4.5974,4.6957,4.7413,4.5599,4.5669,4.6128,4.6128,4.4553,4.4265,4.7902,4.3555,3.8684,3.6422,3.6874,3.7782,3.8531,3.9174,3.9779,4.032,4.0641,0.0,4.0146,4.3992,4.6769,4.7413,4.765,4.8191,4.9238,5.0322,5.1083,5.1488,5.279,5.3501,5.3501,5.3501,5.3501,5.3501,5.3501,5.3501,5.3501,5.3501,5.3501,5.3501,5.3501,5.3923,5.4651,5.5395,5.6189,5.7002,5.7663,5.79,5.79,5.79,5.79,5.79,2.7088,2.7119,2.7258,2.7381,2.9172,3.1287,3.3346,3.4457,3.5366,3.6253,3.8945,4.0972,4.1512,4.1891,4.2164,4.23,4.23,4.2091,4.1606,4.2027,4.2091,4.1606,4.2027,4.2574,4.3186,4.0443,3.8154,3.6406,3.4134,3.1562,2.8798,2.9414,3.0565,3.2107,3.2107,3.4861,3.9601,4.0865,4.2486,4.4212,4.4482,4.4615,4.4615,4.4615,4.4615,4.4615,4.4615,4.4615,4.4615,4.4615,4.4615,4.4615,4.4615,4.4615,4.4615,4.4615,4.5024,4.5517,4.5517,4.6041,4.6752,4.7363,4.7718,4.7954,4.8189,4.8325,4.8426,4.8426,4.8105,4.7513,4.6481,4.3775,4.0997,3.8768,4.0037,4.1593,4.2324,4.2544,4.2442,4.1978,4.3572,4.3504,4.04,4.3058,4.5041,4.5159,4.631,4.8105,5.0677,4.9899,5.0541,5.3027,5.3365,5.3501,5.3501,5.3501,5.3501,5.3501,5.3501,5.3501,5.3501,5.3501,5.3501,5.3501,5.3501,5.3923,5.4651,5.5395,5.6494,5.773,5.7849,5.79,5.79,5.79,5.79,5.79,2.8777,2.8794,2.9284,3.0824,3.2647,3.4753,3.7219,3.9168,3.9835,3.8382,3.9647,4.0843,4.1214,4.2227,4.3047,4.3467,4.3484,4.3484,4.3484,4.3484,4.3484,4.3484,4.3484,4.367,4.4012,4.2638,4.0218,3.6795,3.5701,3.3237,2.9583,2.9939,3.0886,3.2361,3.3935,3.6022,3.8531,4.0815,4.2388,4.3484,4.4279,4.4615,4.4615,4.4615,4.4615,4.4615,4.4615,4.4615,4.4615,4.4615,4.4615,4.4615,4.4615,4.4855,4.5176,4.5176,4.5686,4.6261,4.6261,4.6819,4.7447,4.7819,4.8191,4.8563,4.8934,4.9001,4.9001,4.9001,4.9001,4.8325,4.6109,4.4147,4.2405,4.0946,4.1271,4.2117,4.3237,4.4099,4.4454,4.4113,4.4333,4.3961,4.2584,4.301,4.3738,4.4533,4.5971,4.775,4.9933,4.939,5.0016,5.2232,5.3078,5.3501,5.3501,5.3501,5.3501,5.3501,5.3501,5.3501,5.3501,5.3501,5.3501,5.3501,5.3501,5.4143,5.526,5.6376,5.7256,5.79,5.79,5.79,5.79,5.79,5.79,5.79,3.0835,3.1038,3.1918,3.4726,3.6615,3.8323,4.0066,4.2219,4.2796,4.0401,4.0231,4.0564,4.1147,4.267,4.391,4.4533,4.4615,4.4615,4.4615,4.4615,4.4615,4.4615,4.4615,4.4615,4.4615,4.4615,4.2347,3.7731,3.741,3.5126,3.1028,3.0717,3.1444,3.3112,3.5481,3.7071,3.8154,4.0895,4.235,4.2892,4.411,4.4615,4.4615,4.4615,4.4615,4.4615,4.4615,4.4685,4.4838,4.4838,4.4838,4.4838,4.4838,4.5345,4.594,4.594,4.6464,4.7022,4.7022,4.7581,4.814,4.814,4.8563,4.9001,4.9001,4.9001,4.9001,4.9001,4.9001,4.8325,4.6109,4.508,4.4251,4.3183,4.2929,4.3321,4.464,4.5858,4.6583,4.643,4.5334,4.4722,4.5041,4.411,4.3995,4.521,4.6242,4.7428,4.8917,4.9001,4.9695,5.115,5.2368,5.301,5.301,5.3348,5.3501,5.3501,5.3501,5.3501,5.3501,5.3501,5.3501,5.3501,5.3501,5.4346,5.58,5.7289,5.79,5.79,5.79,5.79,5.79,5.79,5.79,5.79,3.3687,3.4083,3.4827,3.7178,3.9348,4.0865,4.1068,4.3027,4.4133,4.3135,4.3638,4.4125,4.4193,4.437,4.4516,4.4584,4.4615,4.4615,4.4615,4.4615,4.4615,4.4615,4.4615,4.4615,4.4615,4.4615,4.3349,4.0798,3.9445,3.719,3.406,3.2723,3.3237,3.5295,3.5594,3.7961,4.1758,4.1441,4.2503,4.4398,4.4533,4.4615,4.4615,4.4615,4.4615,4.4615,4.4615,4.5024,4.5602,4.5602,4.5602,4.5602,4.5602,4.6092,4.6699,4.6699,4.7225,4.7802,4.7802,4.8326,4.89,4.89,4.8951,4.9001,4.9001,4.9001,4.9001,4.9001,4.9001,4.8325,4.6109,4.721,4.78,4.572,4.7005,4.8545,4.9372,4.9609,4.9441,4.8781,4.8562,4.7986,4.6733,4.7073,4.743,4.7582,4.7107,4.7428,4.8917,4.9001,4.9695,5.115,5.1336,5.1421,5.1421,5.279,5.3501,5.3501,5.3501,5.3501,5.3501,5.3501,5.3501,5.3501,5.3501,5.4346,5.58,5.7289,5.79,5.79,5.79,5.79,5.79,5.79,5.79,5.79,3.7501,3.7676,3.8272,4.0151,4.1209,4.2128,4.3095,4.4398,4.5145,4.4809,4.4671,4.4615,4.4615,4.4615,4.4615,4.4615,4.4615,4.4615,4.4615,4.4615,4.4615,4.4615,4.4615,4.4615,4.4615,4.4615,4.3484,4.1204,3.9292,3.7026,3.4483,3.389,3.481,3.7031,3.8367,3.9956,4.1711,4.279,4.3772,4.4615,4.4615,4.4615,4.4615,4.4615,4.4871,4.5263,4.5263,4.5737,4.6363,4.6363,4.6363,4.6363,4.6363,4.687,4.7447,4.7447,4.7971,4.8563,4.8563,4.8781,4.9001,4.9001,4.9001,4.9001,4.9001,4.9001,4.9001,4.9001,4.9001,4.8731,4.7851,4.7682,4.7682,4.7682,4.8039,4.8748,4.9915,5.0862,5.1302,5.1014,5.0202,4.9593,4.9458,4.8512,4.809,4.8529,4.8291,4.8376,4.8968,4.9831,5.0592,5.1184,5.2097,5.2571,5.2571,5.3179,5.3501,5.3501,5.3501,5.3501,5.3501,5.3501,5.3501,5.3551,5.4448,5.5158,5.58,5.7289,5.79,5.79,5.79,5.79,5.79,5.79,5.79,5.79,4.0647,4.0762,4.1416,4.3454,4.3826,4.4284,4.5654,4.6299,4.6629,4.6629,4.6192,4.5706,4.53,4.5244,4.5244,4.5244,4.5244,4.5142,4.4939,4.4922,4.4821,4.4601,4.4615,4.4615,4.4615,4.4615,4.3805,4.2202,3.9969,3.8058,3.6451,3.5791,3.6705,3.8942,4.0498,4.1576,4.2303,4.3924,4.4615,4.4615,4.4615,4.4615,4.4618,4.4838,4.5246,4.5722,4.5957,4.6498,4.7124,4.7124,4.7259,4.7411,4.7192,4.7631,4.8225,4.8225,4.858,4.9001,4.9001,4.9001,4.9001,4.9001,4.9001,4.9001,4.9001,4.9001,4.9001,4.9001,4.9001,4.9001,4.9001,4.8156,4.7851,4.912,4.89,4.9069,5.0541,5.164,5.2232,5.2012,5.1065,5.0642,5.115,4.9798,4.9087,4.961,5.0067,5.0135,4.9662,5.0626,5.1201,5.1201,5.2249,5.2807,5.2807,5.3281,5.3501,5.3501,5.3501,5.3501,5.3501,5.3501,5.3501,5.3568,5.482,5.5496,5.58,5.7053,5.7714,5.79,5.79,5.79,5.79,5.79,5.79,5.79,4.2637,4.3059,4.4032,4.711,4.7617,4.7913,4.8712,4.8866,4.8854,4.8854,4.8854,4.8324,4.6925,4.6766,4.6766,4.6766,4.6766,4.6464,4.5722,4.5703,4.5348,4.4618,4.4615,4.4615,4.4615,4.4615,4.4598,4.455,4.2269,4.1153,4.1072,3.8886,3.9043,4.1157,4.1187,4.2439,4.455,4.4598,4.4615,4.4615,4.4615,4.4615,4.4668,4.5399,4.5689,4.5805,4.6532,4.7259,4.7887,4.7887,4.8377,4.8849,4.8124,4.8394,4.8984,4.8984,4.9001,4.9001,4.9001,4.9001,4.9001,4.9001,4.9001,4.9001,4.9001,4.9001,4.9001,4.9001,4.9001,4.9001,4.9001,4.8984,4.9221,4.9981,5.0083,5.0574,5.2063,5.2283,5.2029,5.1302,5.1201,5.1184,5.1201,5.1184,5.1167,5.1167,5.2571,5.279,5.1252,5.1184,5.1201,5.1201,5.1218,5.1235,5.1235,5.274,5.3501,5.3501,5.3501,5.3501,5.3501,5.3501,5.3501,5.3551,5.4279,5.5023,5.5767,5.6511,5.7239,5.79,5.79,5.79,5.79,5.79,5.79,5.79,4.8091,4.8353,4.8519,4.905,4.9132,4.9077,4.8921,4.9332,4.9644,4.9644,5.0092,5.0231,4.9769,4.8828,4.8018,4.7524,4.7468,4.7189,4.6508,4.6447,4.6109,4.5382,4.5348,4.5111,4.4601,4.4615,4.4615,4.4615,4.232,4.1204,4.1187,4.0481,4.1356,4.3518,4.3518,4.3924,4.4615,4.4615,4.4888,4.5348,4.5348,4.5635,4.6123,4.6346,4.6769,4.7227,4.7464,4.8022,4.8648,4.8648,4.8815,4.8968,4.8715,4.88,4.9001,4.9001,4.9001,4.9001,4.9001,4.9001,4.9001,4.9001,4.9001,4.9001,4.9001,4.9001,4.9001,4.9001,4.9001,4.9001,4.9001,4.9407,4.9829,5.0066,5.093,5.1758,5.2232,5.2773,5.3044,5.2807,5.2757,5.2757,5.2757,5.2757,5.2317,5.1286,5.1658,5.1269,4.9781,5.1641,5.2283,5.1235,5.2216,5.2757,5.2757,5.3264,5.3501,5.3501,5.3501,5.3501,5.3501,5.3501,5.3501,5.3551,5.4279,5.5023,5.5767,5.6511,5.7222,5.79,5.79,5.79,5.79,5.79,5.79,5.79,5.071,5.0802,5.0755,5.0649,5.062,5.0602,5.0523,5.0909,5.1209,5.1209,5.1599,5.1892,5.1892,5.1071,5.0115,4.9135,4.9042,4.8628,4.7652,4.7577,4.714,4.6157,4.6109,4.5889,4.543,4.5159,4.5007,4.5007,4.3301,4.2486,4.2486,4.2486,4.3247,4.4601,4.4888,4.5007,4.5024,4.5311,4.57,4.6109,4.6109,4.6397,4.6834,4.7107,4.7513,4.7938,4.8208,4.8597,4.9001,4.9001,4.9001,4.9001,4.9001,4.9001,4.9001,4.9001,4.9001,4.9001,4.9001,4.9001,4.9001,4.9001,4.9001,4.9001,4.9001,4.9001,4.9001,4.9001,4.9001,4.9086,4.9357,4.9779,5.0286,5.0828,5.1691,5.2418,5.2706,5.3179,5.3298,5.2723,5.2655,5.2655,5.2655,5.2655,5.2469,5.208,5.2063,5.1658,5.0744,5.1944,5.2452,5.208,5.2993,5.3501,5.3501,5.3501,5.3501,5.3501,5.3501,5.3501,5.3501,5.3501,5.3501,5.3534,5.3991,5.4769,5.5733,5.6189,5.6985,5.79,5.79,5.79,5.79,5.79,5.79,5.79,5.0967,5.0967,5.1206,5.195,5.2079,5.2344,5.3086,5.3196,5.3196,5.3196,5.3196,5.3196,5.3196,5.3196,5.2669,5.1373,5.1189,5.0559,4.9146,4.9056,4.8455,4.7075,4.7012,4.6995,4.6944,4.6265,4.5897,4.5843,4.512,4.4736,4.4736,4.4736,4.4736,4.477,4.5466,4.5788,4.5821,4.6498,4.6834,4.687,4.687,4.6904,4.7022,4.7718,4.7988,4.8073,4.8749,4.9001,4.9001,4.9001,4.9001,4.9001,4.9001,4.9001,4.9001,4.9001,4.9001,4.9001,4.9001,4.9001,4.9001,4.9001,4.9001,4.9001,4.9001,4.9001,4.9001,4.9001,4.9001,4.9221,4.9949,5.015,5.0625,5.2063,5.235,5.2638,5.3399,5.3501,5.2976,5.1522,5.1353,5.1353,5.1353,5.1353,5.1911,5.3247,5.3348,5.3348,5.3348,5.1979,5.1911,5.345,5.3501,5.3501,5.3501,5.3501,5.3501,5.3501,5.3501,5.3501,5.3501,5.3501,5.3501,5.3501,5.3501,5.4346,5.5699,5.5699,5.6579,5.79,5.79,5.79,5.79,5.79,5.79,5.79,5.2517,5.2627,5.2682,5.2884,5.292,5.2976,5.3177,5.3196,5.3196,5.3196,5.3196,5.3196,5.3196,5.3196,5.3071,5.2725,5.2177,5.151,5.0638,5.0568,5.0167,4.9284,4.9236,4.8982,4.8411,4.823,4.7876,4.7307,4.6615,4.6276,4.6276,4.6276,4.6276,4.6293,4.6447,4.6532,4.6549,4.6733,4.7124,4.7633,4.7633,4.7971,4.8494,4.8665,4.8732,4.8749,4.8951,4.9001,4.9001,4.9001,4.9001,4.9001,4.9001,4.9001,4.9001,4.9001,4.9001,4.9001,4.9001,4.9001,4.9001,4.9001,4.9001,4.9001,4.9001,4.9001,4.9001,4.9001,4.9001,4.9221,4.9949,5.0557,5.1251,5.2147,5.2824,5.3281,5.3467,5.3501,5.3365,5.2993,5.2959,5.2959,5.2959,5.2959,5.2604,5.181,5.1742,5.1742,5.1742,5.1404,5.1911,5.345,5.3501,5.3501,5.3501,5.3501,5.3501,5.3501,5.3501,5.3501,5.3501,5.3501,5.3501,5.3501,5.3501,5.4346,5.5699,5.5699,5.6579,5.79,5.79,5.79,5.79,5.79,5.79,5.79,5.3104,5.3196,5.3196,5.3196,5.3196,5.3196,5.3196,5.3196,5.3196,5.3196,5.3196,5.3196,5.3196,5.3196,5.3196,5.3196,5.2842,5.23,5.1593,5.1556,5.124,5.0523,5.0492,5.031,4.991,4.9568,4.8873,4.7804,4.7127,4.68,4.68,4.68,4.68,4.6802,4.7141,4.731,4.7327,4.7665,4.8037,4.8394,4.8394,4.8631,4.9001,4.9001,4.9001,4.9001,4.9001,4.9001,4.9001,4.9001,4.9001,4.9001,4.9001,4.9001,4.9001,4.9001,4.9001,4.9001,4.9001,4.9001,4.9001,4.9001,4.9001,4.9001,4.9001,4.9001,4.9001,4.9001,4.9272,4.9729,5.0473,5.1217,5.1945,5.2723,5.2604,5.2689,5.3399,5.2892,5.2723,5.3416,5.3501,5.3501,5.3501,5.3501,5.3162,5.23,5.2249,5.2249,5.2249,5.2249,5.2655,5.3484,5.3501,5.3501,5.3501,5.3501,5.3501,5.3501,5.3501,5.3501,5.3501,5.3501,5.3501,5.3501,5.3501,5.4346,5.5699,5.5699,5.6579,5.79,5.79,5.79,5.79,5.79,5.79,5.79,5.3196,5.3196,5.3196,5.3196,5.3196,5.3196,5.3196,5.3196,5.3196,5.3196,5.3196,5.3196,5.3196,5.3196,5.3196,5.3196,5.3196,5.2937,5.2312,5.2259,5.2006,5.1449,5.1424,5.1424,5.1424,5.0607,4.955,4.8296,4.7509,4.7124,4.7124,4.7124,4.7124,4.7173,4.7785,4.8073,4.8107,4.8732,4.9001,4.9001,4.9001,4.9001,4.9001,4.9001,4.9001,4.9001,4.9001,4.9001,4.9001,4.9001,4.9001,4.9001,4.9001,4.9001,4.9001,4.9001,4.9001,4.9001,4.9001,4.9001,4.9001,4.9001,4.9001,4.9001,4.9001,4.9001,4.9035,4.9137,4.9661,5.0355,5.1201,5.1894,5.2486,5.3061,5.2249,5.1911,5.2993,5.2232,5.203,5.3348,5.3501,5.3501,5.3501,5.3501,5.3501,5.3501,5.3501,5.3501,5.3501,5.3501,5.3501,5.3501,5.3501,5.3501,5.3501,5.3501,5.3501,5.3501,5.3501,5.3501,5.3501,5.3501,5.3501,5.3501,5.3501,5.4279,5.553,5.5648,5.6511,5.7764,5.7866,5.79,5.79,5.79,5.79,5.79,5.3196,5.3196,5.3196,5.3196,5.3196,5.3196,5.3196,5.3196,5.3196,5.3196,5.3196,5.3196,5.3196,5.3196,5.3196,5.3196,5.3196,5.3153,5.3031,5.3031,5.2988,5.2883,5.2883,5.2883,5.2883,5.159,5.0817,5.0589,4.9293,4.8663,4.8663,4.8663,4.8663,4.8663,4.8781,4.8817,4.8849,4.8951,4.9001,4.9001,4.9001,4.9001,4.9001,4.9001,4.9001,4.9001,4.9001,4.9001,4.9001,4.9001,4.9001,4.9001,4.9001,4.9001,4.9001,4.9001,4.9001,4.9001,4.9001,4.9001,4.9001,4.9001,4.9001,4.9001,4.9001,4.9001,4.9187,4.9796,5.0032,5.0507,5.1877,5.2232,5.2147,5.1641,5.2452,5.2757,5.1708,5.2469,5.323,5.3467,5.3501,5.3501,5.3501,5.3501,5.3501,5.3501,5.3501,5.3501,5.3501,5.3501,5.3501,5.3501,5.3501,5.3501,5.3501,5.3501,5.3501,5.3501,5.3501,5.3501,5.3501,5.3501,5.3501,5.3501,5.3501,5.3974,5.482,5.5428,5.6189,5.7036,5.7645,5.79,5.79,5.79,5.79,5.79,5.3196,5.3196,5.3196,5.3196,5.3196,5.3196,5.3196,5.3196,5.3196,5.3196,5.3196,5.3196,5.3196,5.3196,5.3196,5.3196,5.3196,5.3196,5.3196,5.3196,5.3196,5.3196,5.3196,5.3196,5.3196,5.1813,5.1099,5.1099,4.9695,4.9001,4.9001,4.9001,4.9001,4.9001,4.9001,4.9001,4.9001,4.9001,4.9001,4.9001,4.9001,4.9001,4.9001,4.9001,4.9001,4.9001,4.9001,4.9001,4.9001,4.9001,4.9001,4.9001,4.9001,4.9001,4.9001,4.9001,4.9001,4.9001,4.9001,4.9001,4.9001,4.9001,4.9001,4.9001,4.9001,4.9306,4.9678,5.0032,5.0743,5.1488,5.2181,5.2655,5.2841,5.2486,5.2334,5.23,5.2418,5.2334,5.257,5.3399,5.3501,5.3501,5.3501,5.3501,5.3501,5.3501,5.3501,5.3501,5.3501,5.3501,5.3501,5.3501,5.3501,5.3501,5.3501,5.3501,5.3501,5.3501,5.3501,5.3501,5.3501,5.3501,5.3501,5.3501,5.3501,5.3923,5.4651,5.5395,5.6122,5.6867,5.7612,5.79,5.79,5.79,5.79,5.79,5.3196,5.3196,5.3196,5.3196,5.3196,5.3196,5.3196,5.3196,5.3196,5.3196,5.3196,5.3196,5.3196,5.3196,5.3196,5.3196,5.3196,5.3196,5.3196,5.3196,5.3196,5.3196,5.3196,5.3196,5.3196,5.1958,5.133,5.133,4.9922,4.9226,4.9228,4.9061,4.9001,4.9001,4.9001,4.9001,4.9001,4.9001,4.9001,4.9001,4.9001,4.9001,4.9001,4.9001,4.9001,4.9001,4.9001,4.9001,4.9001,4.9001,4.9001,4.9001,4.9001,4.9001,4.9001,4.9001,4.9001,4.9001,4.9001,4.9001,4.9001,4.9001,4.9001,4.9035,4.9221,4.9678,5.0201,5.054,5.1505,5.2367,5.2536,5.3078,5.3382,5.3027,5.2266,5.2013,5.2858,5.2249,5.2165,5.3365,5.3501,5.3501,5.3501,5.3501,5.3501,5.3501,5.3501,5.3501,5.3501,5.3501,5.3501,5.3501,5.3501,5.3501,5.3501,5.3501,5.3501,5.3501,5.3501,5.3501,5.3501,5.3501,5.3501,5.3501,5.3501,5.3822,5.4397,5.5141,5.5886,5.663,5.7357,5.7764,5.79,5.79,5.79,5.79,5.3196,5.3196,5.3196,5.3196,5.3196,5.3196,5.3196,5.3196,5.3196,5.3196,5.3196,5.3196,5.3196,5.3196,5.3196,5.3196,5.3196,5.3196,5.3196,5.3196,5.3196,5.3196,5.3196,5.3196,5.3196,5.2434,5.2042,5.2042,5.0622,4.9919,4.9904,4.9286,4.9001,4.9001,4.9001,4.9001,4.9001,4.9001,4.9001,4.9001,4.9001,4.9001,4.9001,4.9001,4.9001,4.9001,4.9001,4.9001,4.9001,4.9001,4.9001,4.9001,4.9001,4.9001,4.9001,4.9001,4.9001,4.9001,4.9001,4.9001,4.9001,4.9001,4.9001,4.9187,4.9847,5.0066,5.0489,5.186,5.2232,5.2536,5.3281,5.3467,5.3027,5.1607,5.2469,5.2875,5.1556,5.2503,5.3382,5.3501,5.3501,5.3501,5.3501,5.3501,5.3501,5.3501,5.3501,5.3501,5.3501,5.3501,5.3501,5.3501,5.3501,5.3501,5.3501,5.3501,5.3501,5.3501,5.3501,5.3501,5.3501,5.3501,5.3501,5.3501,5.3501,5.3534,5.3653,5.438,5.5124,5.5851,5.6596,5.7289,5.79,5.79,5.79,5.79,5.3196,5.3196,5.3196,5.3196,5.3196,5.3196,5.3196,5.3196,5.3196,5.3196,5.3196,5.3196,5.3196,5.3196,5.3196,5.3196,5.3196,5.3196,5.3196,5.3196,5.3196,5.3196,5.3196,5.3196,5.3196,5.2479,5.2101,5.2101,5.1146,5.0445,4.999,4.9751,4.9404,4.9001,4.9001,4.9001,4.9001,4.9001,4.9001,4.9001,4.9001,4.9001,4.9001,4.9001,4.9001,4.9001,4.9001,4.9001,4.9001,4.9001,4.9001,4.9001,4.9001,4.9001,4.9001,4.9001,4.9001,4.9001,4.9001,4.9001,4.912,4.956,4.9678,4.9881,5.0608,5.115,5.1623,5.2181,5.2706,5.3145,5.345,5.3501,5.3315,5.2706,5.3129,5.3298,5.2723,5.3129,5.3501,5.3501,5.3501,5.3501,5.3501,5.3501,5.3501,5.3501,5.3501,5.3501,5.3501,5.3501,5.3501,5.3501,5.3501,5.3501,5.3501,5.3501,5.3501,5.3501,5.3501,5.3501,5.3501,5.3501,5.3501,5.3501,5.3501,5.3501,5.3568,5.4313,5.504,5.5767,5.6511,5.7256,5.79,5.79,5.79,5.79,5.3227,5.3196,5.3196,5.3196,5.3196,5.3196,5.3196,5.3196,5.3196,5.3196,5.3196,5.3196,5.3196,5.3196,5.3196,5.3196,5.3196,5.3196,5.3196,5.3196,5.3196,5.3196,5.3196,5.3196,5.3196,5.2695,5.2445,5.2445,5.1747,5.1047,5.0352,5.0352,4.9979,4.9314,4.9566,4.9652,4.9637,4.9419,4.9299,4.9301,4.9077,4.9001,4.9001,4.9001,4.9001,4.9001,4.9001,4.9001,4.9001,4.9001,4.9001,4.9001,4.9001,4.9001,4.9001,4.9001,4.9001,4.9052,4.9272,4.9357,4.9458,4.9981,5.027,5.0642,5.137,5.1944,5.2367,5.2621,5.3129,5.3501,5.3501,5.3501,5.3501,5.3501,5.3501,5.3501,5.3501,5.3501,5.3501,5.3501,5.3501,5.3501,5.3501,5.3501,5.3501,5.3501,5.3501,5.3501,5.3501,5.3501,5.3501,5.3501,5.3501,5.3501,5.3501,5.3501,5.3501,5.3501,5.3501,5.3501,5.3501,5.3501,5.3501,5.3501,5.3501,5.3501,5.3551,5.4042,5.4685,5.5446,5.6173,5.6917,5.7577,5.7815,5.79,5.79,5.3274,5.3196,5.3196,5.3196,5.3196,5.3196,5.3196,5.3196,5.3196,5.3196,5.3196,5.3196,5.3196,5.3196,5.3196,5.3196,5.3196,5.3196,5.3196,5.3196,5.3196,5.3196,5.3196,5.3196,5.3196,5.3196,5.3196,5.3196,5.2468,5.1771,5.1112,5.1112,5.0716,5.0047,5.077,5.1099,5.1034,5.031,5.0004,4.9933,4.9271,4.9001,4.9001,4.9001,4.9001,4.9001,4.9001,4.9001,4.9001,4.9001,4.9001,4.9001,4.9001,4.9001,4.9001,4.9001,4.9001,4.9171,4.9914,5.0117,5.0117,5.0117,5.0676,5.1404,5.2147,5.2317,5.2536,5.3348,5.3501,5.3501,5.3501,5.3501,5.3501,5.3501,5.3501,5.3501,5.3501,5.3501,5.3501,5.3501,5.3501,5.3501,5.3501,5.3501,5.3501,5.3501,5.3501,5.3501,5.3501,5.3501,5.3501,5.3501,5.3501,5.3501,5.3501,5.3501,5.3501,5.3501,5.3501,5.3501,5.3501,5.3501,5.3501,5.3501,5.3501,5.3501,5.3501,5.3501,5.3923,5.4668,5.5411,5.6139,5.6884,5.7646,5.79,5.79,5.3644,5.3381,5.3196,5.3196,5.3196,5.3196,5.3196,5.3196,5.3196,5.3196,5.3196,5.3196,5.3196,5.3196,5.3196,5.3196,5.3196,5.3196,5.3196,5.3196,5.3196,5.3196,5.3196,5.3196,5.3196,5.3196,5.3196,5.3196,5.2988,5.249,5.1808,5.1808,5.1431,5.0783,5.0995,5.081,5.0307,5.0086,4.9737,4.9286,4.9077,4.9001,4.9001,4.9001,4.9001,4.9001,4.9001,4.9001,4.9001,4.9001,4.9001,4.9001,4.9001,4.9001,4.9001,4.9001,4.9373,4.9813,5.0049,5.0862,5.164,5.164,5.1809,5.2181,5.2959,5.3145,5.3213,5.345,5.3501,5.3501,5.3501,5.3501,5.3501,5.3501,5.3501,5.3501,5.3501,5.3501,5.3501,5.3501,5.3501,5.3501,5.3501,5.3501,5.3501,5.3501,5.3501,5.3501,5.3501,5.3501,5.3501,5.3501,5.3501,5.3501,5.3501,5.3501,5.3501,5.3501,5.3501,5.3501,5.3501,5.3501,5.3501,5.3501,5.3501,5.3501,5.3501,5.3501,5.3923,5.4668,5.5411,5.6139,5.6884,5.7646,5.79,5.79,5.3842,5.3484,5.3196,5.3196,5.3196,5.3196,5.3196,5.3196,5.3196,5.3196,5.3196,5.3196,5.3196,5.3196,5.3196,5.3196,5.3196,5.3196,5.3196,5.3196,5.3196,5.3196,5.3196,5.3196,5.3196,5.3196,5.3196,5.3196,5.3196,5.2813,5.2112,5.2393,5.2166,5.1506,5.1801,5.1691,5.1228,5.0662,5.0185,4.978,4.9228,4.9001,4.9001,4.9001,4.9001,4.9001,4.9001,4.9001,4.9001,4.9001,4.9001,4.9001,4.9001,4.9204,4.9441,4.9441,4.9965,5.0591,5.0879,5.1623,5.2384,5.2706,5.2773,5.2909,5.3399,5.3501,5.3501,5.3501,5.3501,5.3501,5.3501,5.3501,5.3501,5.3501,5.3501,5.3501,5.3501,5.3501,5.3501,5.3501,5.3501,5.3501,5.3501,5.3501,5.3501,5.3501,5.3501,5.3501,5.3501,5.3501,5.3501,5.3501,5.3501,5.3501,5.3501,5.3501,5.3501,5.3501,5.3501,5.3501,5.3501,5.3501,5.3501,5.3501,5.3501,5.3501,5.3501,5.3501,5.3754,5.4245,5.4989,5.5733,5.6461,5.7188,5.7663,5.79,5.4044,5.3646,5.3369,5.3408,5.3416,5.3416,5.3416,5.3416,5.3416,5.3416,5.3343,5.3306,5.3306,5.3232,5.3196,5.3196,5.3196,5.3196,5.3196,5.3196,5.3196,5.3196,5.3196,5.3196,5.3196,5.3196,5.3196,5.3196,5.3196,5.2853,5.2206,5.2893,5.2842,5.2236,5.2904,5.3164,5.302,5.1722,5.1151,5.0981,4.971,4.9182,4.9182,4.9123,4.9092,4.9077,4.9017,4.9001,4.9001,4.9001,4.9035,4.9103,4.9103,4.9593,5.0201,5.0201,5.0727,5.1438,5.2131,5.235,5.2587,5.3315,5.3501,5.3501,5.3501,5.3501,5.3501,5.3501,5.3501,5.3501,5.3501,5.3501,5.3501,5.3501,5.3501,5.3501,5.3501,5.3501,5.3501,5.3501,5.3501,5.3501,5.3501,5.3501,5.3501,5.3501,5.3501,5.3501,5.3501,5.3501,5.3501,5.3501,5.3501,5.3501,5.3501,5.3501,5.3501,5.3501,5.3501,5.3501,5.3501,5.3501,5.3501,5.3501,5.3501,5.3501,5.3501,5.3501,5.3501,5.3568,5.4296,5.5057,5.5783,5.6528,5.7256,5.79,5.5241,5.4912,5.4714,5.5018,5.5089,5.5089,5.5089,5.5089,5.5089,5.5089,5.4528,5.4142,5.4142,5.3581,5.3196,5.3196,5.3196,5.3196,5.3196,5.3196,5.3196,5.3196,5.3196,5.3196,5.3196,5.3196,5.3196,5.3196,5.3196,5.3114,5.2977,5.3143,5.3114,5.2959,5.3124,5.2875,5.2324,5.2018,5.1581,5.1073,5.0756,5.0653,5.0585,4.999,4.9777,4.9707,4.9182,4.9001,4.9001,4.9001,4.9373,4.9847,4.9847,5.0371,5.0964,5.0964,5.1488,5.2097,5.2266,5.2756,5.3281,5.3467,5.3501,5.3501,5.3501,5.3501,5.3501,5.3501,5.3501,5.3501,5.3501,5.3501,5.3501,5.3501,5.3501,5.3501,5.3501,5.3501,5.3501,5.3501,5.3501,5.3501,5.3501,5.3501,5.3501,5.3501,5.3501,5.3501,5.3501,5.3501,5.3501,5.3501,5.3501,5.3501,5.3501,5.3501,5.3501,5.3501,5.3501,5.3501,5.3501,5.3501,5.3501,5.3501,5.3501,5.3501,5.3501,5.3501,5.3501,5.3568,5.4296,5.5057,5.5783,5.6528,5.7256,5.79,5.6274,5.5926,5.5614,5.5591,5.5603,5.5603,5.5603,5.5603,5.5603,5.5603,5.5236,5.4979,5.4979,5.4601,5.4344,5.4344,5.4344,5.4179,5.3801,5.3765,5.3599,5.3214,5.3196,5.3196,5.3196,5.3196,5.3196,5.3196,5.3196,5.3196,5.3196,5.3196,5.3196,5.3196,5.3196,5.2988,5.2599,5.2247,5.1892,5.1544,5.1228,5.1099,5.106,5.0662,5.031,4.9999,5.0036,5.0054,5.0051,5.0051,5.0321,5.0625,5.0625,5.1133,5.1708,5.1708,5.2283,5.2875,5.2875,5.3179,5.3501,5.3501,5.3501,5.3501,5.3501,5.3501,5.3501,5.3501,5.3501,5.3501,5.3501,5.3501,5.3501,5.3501,5.3501,5.3501,5.3501,5.3501,5.3501,5.3501,5.3501,5.3501,5.3501,5.3501,5.3501,5.3501,5.3501,5.3501,5.3501,5.3501,5.3501,5.3501,5.3501,5.3501,5.3501,5.3501,5.3501,5.3501,5.3501,5.3501,5.3501,5.3501,5.3501,5.3501,5.3501,5.3501,5.3501,5.3501,5.3501,5.3551,5.3923,5.4532,5.526,5.6004,5.6968,5.79,5.7197,5.6842,5.6476,5.6073,5.6007,5.6007,5.6007,5.6007,5.6007,5.6007,5.5897,5.5805,5.5805,5.5677,5.5603,5.5603,5.5603,5.5328,5.4638,5.4601,5.4308,5.3636,5.3599,5.3599,5.3599,5.3599,5.3471,5.3196,5.3196,5.3196,5.3196,5.3196,5.3196,5.3196,5.3196,5.3196,5.3164,5.2554,5.2373,5.2446,5.1882,5.1742,5.1854,5.1739,5.1321,5.0851,5.1404,5.1505,5.1376,5.1249,5.1286,5.1387,5.1387,5.1894,5.252,5.252,5.2993,5.3501,5.3501,5.3501,5.3501,5.3501,5.3501,5.3501,5.3501,5.3501,5.3501,5.3501,5.3501,5.3501,5.3501,5.3501,5.3501,5.3501,5.3501,5.3501,5.3501,5.3501,5.3501,5.3501,5.3501,5.3501,5.3501,5.3501,5.3501,5.3501,5.3501,5.3501,5.3501,5.3501,5.3501,5.3501,5.3501,5.3501,5.3501,5.3501,5.3501,5.3501,5.3501,5.3501,5.3501,5.3501,5.3501,5.3501,5.3501,5.3501,5.3501,5.3501,5.3501,5.3501,5.3501,5.4025,5.4888,5.5767,5.685,5.79,5.7975,5.7897,5.7819,5.7693,5.7685,5.7685,5.7685,5.7685,5.7685,5.7685,5.7079,5.6638,5.6638,5.6025,5.5603,5.5603,5.5603,5.5548,5.5438,5.5438,5.5383,5.5273,5.5273,5.5273,5.5273,5.5273,5.4583,5.3196,5.3196,5.3196,5.3196,5.3196,5.3196,5.3196,5.3196,5.3196,5.3185,5.3092,5.3455,5.4078,5.4001,5.4381,5.4928,5.4345,5.4058,5.3907,5.3376,5.2779,5.2127,5.1439,5.1624,5.2147,5.2147,5.2706,5.3348,5.3348,5.3416,5.3501,5.3501,5.3501,5.3501,5.3501,5.3501,5.3501,5.3501,5.3501,5.3501,5.3501,5.3501,5.3501,5.3501,5.3501,5.3501,5.3501,5.3501,5.3501,5.3501,5.3501,5.3501,5.3501,5.3501,5.3501,5.3501,5.3501,5.3501,5.3501,5.3501,5.3501,5.3501,5.3501,5.3501,5.3501,5.3501,5.3501,5.3501,5.3501,5.3501,5.3501,5.3501,5.3501,5.3501,5.3501,5.3501,5.3501,5.3501,5.3501,5.3501,5.3501,5.3501,5.3501,5.3501,5.4346,5.5716,5.7103,5.7729,5.79,5.9281,5.9222,5.9143,5.8828,5.8578,5.8386,5.8386,5.8168,5.7997,5.7997,5.7685,5.7464,5.7464,5.7152,5.6943,5.6943,5.6943,5.6748,5.6308,5.6271,5.6069,5.5622,5.5603,5.5603,5.5603,5.5603,5.5254,5.4546,5.4546,5.4546,5.4546,5.4546,5.4546,5.4546,5.4546,5.4546,5.4546,5.4546,5.4748,5.5071,5.5071,5.5273,5.5581,5.5256,5.4935,5.4566,5.4225,5.3907,5.3569,5.3218,5.3047,5.2976,5.2976,5.3213,5.3501,5.3501,5.3501,5.3501,5.3501,5.3501,5.3501,5.3501,5.3501,5.3501,5.3501,5.3501,5.3501,5.3501,5.3501,5.3501,5.3501,5.3501,5.3501,5.3501,5.3501,5.3501,5.3501,5.3501,5.3501,5.3501,5.3501,5.3501,5.3501,5.3501,5.3501,5.3501,5.3501,5.3501,5.3501,5.3501,5.3501,5.3501,5.3501,5.3501,5.3501,5.3501,5.3501,5.3501,5.3501,5.3501,5.3501,5.3501,5.3501,5.3501,5.3501,5.3501,5.3501,5.3501,5.3501,5.3501,5.3501,5.4397,5.5834,5.6884,5.7543,5.79]}]]